GFSNGP_850_rhum_000.txt.gz
RH
43 38 35 38 41 40 50 45 51 35 35 28 25 26 25 34 41 42 43 47 47 48 50 51 57 66 73 76 80 76 66 63 61 66 60 53 48 45 44 45 49 52 50 51
41 31 27 34 32 29 34 37 38 37 37 26 25 36 38 37 39 46 48 46 48 49 52 62 74 84 74 77 81 80 73 68 68 71 68 63 60 60 64 66 63 57 60 67
44 33 38 49 38 38 36 33 33 39 32 29 31 40 41 42 43 45 49 50 50 59 65 70 64 64 71 77 80 70 68 62 68 63 58 58 61 62 64 62 60 65 67 73
56 48 68 38 31 32 38 33 32 33 33 33 41 44 44 44 46 50 56 55 63 58 51 50 62 76 78 72 63 58 56 59 55 51 53 53 56 58 57 56 62 61 60 67
69 65 51 44 36 37 38 42 34 38 36 33 49 46 43 45 51 59 66 63 58 60 64 71 73 71 65 60 59 51 53 45 36 37 37 38 41 46 43 46 54 48 51 54
98 82 86 40 40 36 35 60 45 41 42 50 48 64 60 56 62 70 68 78 78 72 70 73 69 59 53 45 33 34 26 23 23 23 25 29 31 34 37 44 38 48 43 44
68 76 65 41 42 36 58 58 47 46 44 48 59 51 54 60 69 78 80 76 74 74 70 63 47 39 27 22 20 25 23 21 20 20 26 26 31 33 41 34 42 36 43 42
71 71 82 35 42 50 45 39 43 50 48 42 42 49 61 71 76 78 82 85 84 62 50 33 23 19 16 17 19 18 16 14 14 18 22 26 36 40 37 35 38 44 43 42
67 74 45 37 38 41 44 45 47 46 45 45 50 56 62 72 78 81 90 89 69 44 21 10 13 17 16 14 18 18 21 22 25 28 31 37 40 37 39 41 39 44 45 48
56 41 42 40 40 50 51 50 48 46 47 50 55 58 68 76 87 98 97 72 44 15 9 14 17 18 16 17 21 26 30 31 31 32 36 33 37 46 44 46 48 49 51 55
62 54 48 45 49 57 60 61 59 56 55 56 62 68 76 87 99 98 76 38 14 15 18 16 16 18 18 23 30 33 32 28 28 32 33 35 41 50 57 54 54 60 68 71
69 49 55 54 54 56 59 65 67 67 69 68 74 92 98 100 90 57 33 21 20 21 17 14 16 18 20 25 33 37 36 33 33 40 43 44 56 61 55 68 73 76 75 77
53 52 56 57 56 62 66 71 74 73 78 83 97 100 92 73 39 19 16 21 25 20 18 22 25 26 26 32 37 39 42 42 46 54 55 64 72 79 84 66 82 84 83 80
54 56 59 59 64 66 69 75 76 80 86 99 98 88 62 25 18 22 25 26 25 23 25 29 30 27 29 35 45 52 53 53 53 57 70 80 86 92 92 92 92 88 84 86
57 59 65 69 72 73 78 82 89 97 99 96 77 34 25 24 27 26 25 27 29 29 30 36 36 30 36 46 57 57 58 57 62 77 84 90 91 92 95 96 94 91 88 80
70 73 73 76 75 78 88 93 99 99 88 56 34 22 26 29 27 24 23 29 39 34 33 36 32 32 42 60 63 62 59 57 80 89 91 92 93 97 95 88 95 95 90 85
73 76 87 99 98 100 99 100 97 62 39 21 23 28 29 26 25 27 30 31 32 31 31 32 32 39 56 63 56 53 58 78 90 88 94 97 95 95 96 96 91 86 84 82
50 62 80 90 90 94 95 89 83 30 18 23 27 28 30 28 28 26 26 28 29 27 26 32 42 52 50 49 55 70 84 88 96 96 96 96 96 98 95 91 90 92 93 86
33 50 75 89 97 99 95 82 21 21 25 28 31 31 28 25 25 26 30 30 31 36 28 37 39 55 61 53 65 84 92 94 96 95 99 97 92 93 95 95 95 94 90 91
65 79 86 92 94 72 37 19 24 26 30 33 33 30 26 25 27 32 35 34 32 39 44 49 53 52 61 67 82 93 94 96 100 99 100 97 95 87 91 91 92 92 91 96
77 84 84 69 34 14 21 27 29 30 32 34 34 31 30 29 33 37 42 46 31 40 52 62 62 69 72 85 97 97 96 96 100 100 100 100 100 99 98 95 96 87 91 95
77 76 58 26 14 20 27 32 34 35 36 35 34 34 36 36 37 39 43 48 44 45 59 69 78 82 95 95 96 95 98 99 100 100 100 100 99 96 92 92 90 87 83 86
73 67 50 26 23 28 39 38 39 41 39 38 37 37 40 44 45 53 48 41 50 63 85 82 68 94 98 93 95 99 100 100 100 100 98 95 93 93 92 89 88 91 90 86
78 72 61 39 32 37 40 42 47 46 43 40 40 43 46 52 52 50 55 59 62 64 84 79 90 98 98 97 98 94 90 95 98 99 95 95 93 92 93 92 91 89 92 89
70 79 74 55 40 45 50 51 49 42 42 46 47 48 51 54 62 52 51 54 60 75 81 73 92 96 93 90 92 96 99 100 100 98 97 98 96 95 97 97 95 91 95 96
74 82 84 74 63 59 58 53 47 49 50 48 51 50 49 46 46 56 56 58 64 68 75 77 79 87 95 96 100 100 100 100 100 96 100 97 96 96 96 94 92 89 89 90
66 82 85 74 65 59 51 52 54 49 52 55 54 48 47 51 54 53 52 58 68 75 80 84 87 86 99 100 100 99 100 100 100 100 97 96 96 96 94 94 94 91 93 88

GFSNGP_850_rhum_003.txt.gz
RH
41 38 34 38 42 44 56 53 51 32 37 31 32 34 33 34 42 45 49 49 49 50 54 58 58 58 48 43 48 56 61 66 65 61 55 51 43 38 38 39 45 50 50 53
37 33 33 34 34 36 39 42 49 47 44 32 29 28 41 45 44 47 50 49 50 53 55 56 56 46 50 58 62 64 62 52 47 46 40 25 16 14 19 29 38 41 57 64
43 44 44 49 42 41 39 34 34 43 34 31 33 38 43 44 47 52 50 52 54 54 52 50 54 54 56 60 58 48 40 33 27 16 5 5 7 9 13 18 20 28 53 47
60 52 68 39 36 34 41 40 38 37 37 39 40 49 47 46 48 52 55 58 56 53 59 59 58 56 55 50 39 27 12 7 6 6 8 9 11 14 17 22 27 42 38 40
71 74 59 46 47 42 41 45 42 41 47 54 49 46 61 50 52 57 60 60 57 60 64 65 64 58 46 32 14 4 5 9 10 10 10 12 14 16 20 25 28 24 32 39
92 82 78 54 42 38 39 56 47 46 48 54 47 62 62 65 62 65 66 67 70 68 83 80 64 43 23 8 7 10 11 12 12 14 16 18 20 22 24 26 25 29 25 29
79 82 71 52 42 38 53 55 46 49 48 50 64 57 59 70 70 72 75 72 67 80 80 64 40 15 9 12 13 13 15 16 16 18 20 20 22 24 30 35 36 36 34 42
80 82 84 43 44 50 53 53 52 50 49 49 55 61 66 68 68 69 69 75 86 90 66 38 15 14 15 14 15 17 19 18 19 20 21 21 27 29 34 40 45 40 48 50
76 73 48 47 48 50 50 50 51 49 49 48 56 62 61 59 65 75 82 90 95 82 44 15 13 15 12 14 18 19 20 21 21 22 23 24 30 32 40 42 46 57 60 62
60 51 51 53 57 54 57 58 59 59 57 54 54 58 65 71 76 83 88 97 87 57 12 12 14 12 14 17 20 22 24 24 25 28 28 29 33 39 43 48 62 70 78 85
74 59 51 50 52 55 61 62 62 64 66 64 63 61 66 77 89 91 99 97 56 14 14 14 12 14 16 20 23 24 27 29 29 30 32 33 34 38 46 53 80 90 92 93
87 60 62 58 55 57 59 62 66 71 71 69 70 71 78 94 98 95 63 36 16 16 14 13 15 16 18 22 25 28 30 31 36 43 43 46 50 49 47 59 86 94 94 94
64 56 54 58 61 65 70 74 76 76 77 78 80 88 91 99 95 69 32 17 20 16 15 16 20 19 20 24 30 34 40 43 46 52 52 56 65 80 90 67 73 92 94 90
56 58 61 62 66 67 68 73 77 82 84 93 100 100 95 80 40 16 18 21 18 17 17 21 26 23 24 28 32 39 45 50 60 60 62 73 84 94 96 99 99 88 77 92
64 63 65 69 70 68 70 76 81 85 89 96 99 94 63 28 17 22 23 22 21 21 21 27 29 24 29 33 41 47 60 67 63 66 77 90 93 95 98 97 96 94 84 84
65 67 65 58 58 70 85 92 90 92 91 91 84 43 22 27 30 27 23 23 24 23 25 29 28 28 32 39 49 61 59 57 70 84 93 94 94 98 98 99 97 95 94 92
67 55 39 39 58 73 84 88 91 95 93 64 35 28 28 28 25 22 21 22 26 28 29 29 29 29 33 41 48 53 61 58 76 87 92 98 100 99 96 100 98 98 87 80
40 40 48 62 76 86 88 92 97 79 58 27 23 24 24 24 25 24 25 28 27 27 26 29 29 31 35 41 51 58 67 78 88 93 96 99 99 98 95 87 88 95 87 81
32 36 51 74 81 91 99 95 94 43 21 22 22 24 27 28 28 28 29 31 30 32 30 32 32 35 40 46 63 80 84 90 93 92 92 100 93 92 98 98 95 97 98 98
30 33 46 64 75 87 85 63 19 20 22 23 26 29 31 30 31 32 33 35 33 36 38 37 39 44 53 61 74 94 94 96 97 98 96 96 97 97 94 99 99 97 96 92
30 37 47 65 75 66 33 15 20 24 26 29 32 33 34 32 33 37 39 40 35 40 42 42 45 54 66 88 97 99 92 93 98 100 100 100 100 98 98 98 93 90 89 93
36 44 55 67 64 36 16 20 26 30 33 36 39 38 38 38 42 42 41 43 42 42 44 57 62 62 97 96 94 94 99 100 99 100 100 99 100 99 96 93 91 93 91 91
38 47 58 62 58 34 23 25 31 38 42 46 45 40 44 47 45 47 47 44 45 47 81 58 55 92 99 95 98 100 97 89 87 91 95 96 97 98 97 97 99 98 94 95
46 56 64 66 61 47 37 31 41 47 53 52 45 49 48 46 47 46 50 46 45 48 54 51 56 94 100 97 84 79 82 90 92 93 94 99 97 96 93 92 94 90 92 95
51 63 79 80 70 65 50 49 55 58 55 49 52 46 46 47 51 46 42 45 47 47 53 59 64 68 71 75 81 86 89 93 100 100 97 98 96 96 95 95 96 96 96 98
55 66 79 84 85 76 66 66 63 55 54 49 43 45 45 41 40 44 46 47 48 54 62 63 66 74 83 81 86 89 95 100 100 100 100 97 96 96 94 94 95 95 96 95
55 63 76 85 83 75 69 61 57 52 47 49 50 45 43 46 49 50 49 48 54 62 66 68 73 78 83 91 91 93 96 97 97 100 100 98 98 98 96 96 97 97 95 97

GFSNGP_850_rhum_006.txt.gz
RH
42 39 39 45 49 56 57 50 46 39 44 33 35 34 32 31 34 47 53 51 50 52 58 59 56 54 43 47 50 50 49 44 36 27 13 3 3 3 4 4 4 5 5 7
36 35 36 36 35 37 44 48 52 47 43 33 31 32 41 43 48 50 53 51 53 57 58 56 51 47 54 56 54 50 41 26 10 3 3 4 4 4 5 5 6 6 6 7
38 48 44 45 44 44 38 36 34 36 31 35 37 48 52 50 49 50 51 51 55 57 59 50 56 60 62 61 55 38 18 4 4 6 5 6 7 8 10 11 11 12 13 13
56 51 60 38 40 39 40 39 37 39 42 46 52 51 45 47 49 50 50 57 64 60 55 61 71 72 67 56 35 11 4 6 6 6 8 10 11 12 13 15 16 16 17 18
69 70 56 46 44 42 41 52 50 51 48 50 49 50 47 45 49 50 57 64 62 62 67 80 79 75 59 34 11 6 6 6 8 10 12 13 14 14 16 19 20 23 26 26
90 80 69 47 42 40 37 54 52 52 52 55 54 74 66 56 55 58 65 69 68 69 80 83 76 62 36 12 8 8 7 9 11 14 16 17 18 19 21 23 26 28 30 31
81 81 72 53 47 41 54 50 60 55 53 56 66 62 58 59 66 74 75 72 71 78 85 85 73 41 14 10 9 9 12 13 15 18 20 21 22 23 24 28 33 36 40 40
83 81 80 48 47 52 55 57 51 49 50 50 49 51 55 58 66 66 67 73 79 85 88 89 46 14 11 10 12 14 15 16 17 20 22 23 25 26 28 31 39 47 61 73
72 72 54 47 50 50 50 52 53 54 53 52 54 54 57 66 73 75 78 84 90 85 88 71 19 15 12 14 16 16 16 17 19 20 23 25 32 32 34 42 55 68 85 93
62 57 65 53 52 53 56 58 58 59 58 58 59 58 63 68 72 81 89 92 86 93 56 14 16 13 15 16 17 18 18 19 20 24 29 33 33 37 45 54 75 92 99 100
78 66 57 59 59 60 62 62 62 62 64 68 66 62 63 73 82 86 89 90 82 41 15 17 15 14 16 18 20 20 21 21 23 30 36 38 36 43 56 67 96 97 95 96
83 65 62 61 57 55 60 66 69 70 70 72 72 71 73 81 90 93 89 65 41 17 19 16 15 15 17 20 23 23 22 24 31 40 42 48 50 46 46 63 91 96 95 93
63 62 58 56 58 61 64 65 66 72 75 77 78 84 88 89 90 91 69 24 19 19 16 16 16 16 20 21 22 23 28 32 37 47 55 54 59 76 91 66 82 89 96 94
56 56 62 61 61 64 72 79 83 85 88 97 99 99 91 90 80 42 20 22 20 18 16 18 20 20 22 22 24 28 33 40 52 55 55 65 82 95 98 97 98 88 72 95
60 62 65 67 69 73 74 78 96 99 97 97 100 99 93 64 27 19 22 21 19 18 20 24 24 23 25 27 30 35 45 53 58 69 75 86 89 88 94 98 99 89 93 88
63 65 68 62 49 48 51 59 82 89 94 90 90 81 45 19 20 21 22 22 23 24 24 26 27 28 29 31 34 42 50 59 75 76 83 85 86 96 97 98 97 94 100 99
70 69 54 34 36 44 62 77 87 88 93 96 79 37 20 21 22 24 26 26 26 27 28 31 32 31 32 33 39 51 56 60 77 78 82 85 97 100 98 99 99 96 86 87
40 30 33 36 45 62 70 83 92 91 90 74 25 19 22 25 28 28 28 27 26 28 33 34 32 33 34 38 45 54 68 78 84 89 87 93 99 97 97 92 95 95 96 92
30 33 36 41 55 68 74 85 90 87 58 20 22 23 25 28 31 30 30 29 34 39 38 35 35 35 36 42 57 73 78 88 89 92 98 100 92 94 95 96 96 96 99 98
40 41 37 41 55 73 81 80 78 40 21 23 24 27 29 29 31 31 33 39 45 40 39 37 37 37 41 51 66 93 95 98 100 100 100 96 97 95 94 96 100 96 96 97
47 43 38 45 58 70 69 52 23 20 24 27 29 30 33 34 36 37 44 46 39 40 40 37 35 37 49 63 97 99 97 98 99 99 100 98 96 98 97 96 95 94 96 98
52 53 42 43 54 64 61 35 19 21 24 28 31 37 42 43 41 47 47 42 43 41 38 37 42 47 66 98 96 93 94 96 89 85 87 91 99 100 95 95 96 94 94 95
59 62 54 49 57 60 58 37 25 22 25 33 40 47 51 46 50 48 46 44 43 38 44 44 43 48 91 100 94 85 78 76 78 84 92 96 98 98 98 99 99 98 94 95
64 67 57 56 69 66 60 55 43 38 39 43 52 56 50 51 47 43 46 42 39 41 44 43 43 55 97 81 68 70 75 83 87 91 92 93 97 99 97 97 95 94 95 94
77 70 51 56 73 76 71 65 60 51 51 59 60 53 52 47 51 48 43 40 43 44 43 44 55 62 63 64 70 75 80 87 95 100 99 100 95 96 98 98 97 97 97 98
72 53 58 71 81 81 78 79 70 67 67 59 54 47 46 46 43 40 42 45 46 45 47 53 59 64 70 72 75 80 88 92 93 94 100 98 95 96 99 100 98 97 98 96
64 55 62 72 80 84 82 77 71 62 57 49 48 47 45 42 42 46 48 47 46 48 57 61 64 68 73 78 81 85 90 92 94 100 100 99 99 100 100 100 100 100 100 95

GFSNGP_850_rhum_009.txt.gz
RH
46 46 52 54 58 57 52 47 48 40 50 34 33 36 31 32 34 39 48 55 56 58 60 63 66 58 49 55 58 62 60 44 26 8 4 5 5 5 6 6 7 7 7 7
38 40 36 35 37 60 57 52 51 50 46 38 34 36 42 46 46 47 54 56 55 59 66 69 58 54 61 67 68 63 46 23 7 5 5 6 6 7 7 8 8 9 9 9
38 47 42 41 46 42 37 39 39 36 30 39 50 56 50 47 45 46 51 53 54 64 69 60 60 71 75 73 68 48 20 8 6 6 7 8 8 9 10 10 11 11 11 12
51 50 53 34 43 40 40 44 37 49 49 49 55 50 45 44 44 44 48 53 62 70 63 63 74 78 78 74 52 22 9 8 7 8 9 10 11 12 12 13 13 14 14 17
64 61 48 49 44 48 47 59 52 52 51 55 52 50 48 46 47 51 51 56 67 66 64 69 78 79 76 62 22 11 8 8 9 10 11 12 13 14 15 16 16 17 21 23
87 76 64 46 42 41 37 74 59 56 61 60 59 73 71 57 53 52 58 67 68 65 69 79 81 78 56 34 15 9 8 9 12 13 14 15 16 17 19 21 21 24 26 31
75 73 66 50 45 43 56 50 61 54 55 54 65 61 51 48 52 64 69 70 71 74 81 84 83 69 40 27 10 9 11 12 13 15 17 17 19 22 22 23 28 30 34 32
81 77 70 51 50 57 58 59 53 53 52 50 49 49 50 56 67 75 78 80 80 83 88 83 76 64 38 11 11 12 13 14 16 18 19 21 24 24 23 25 30 35 40 47
68 68 57 53 51 50 50 51 53 52 53 54 55 56 61 61 69 80 81 80 83 88 85 81 60 33 13 12 14 15 16 17 18 19 20 22 25 26 27 34 49 56 79 93
66 65 61 53 53 52 55 56 57 58 59 59 62 63 60 63 74 80 82 85 89 84 85 59 22 14 15 17 18 17 18 19 20 21 22 25 29 31 40 45 56 82 97 100
75 67 66 60 57 57 59 61 63 63 64 65 69 69 68 70 79 86 91 93 86 72 41 18 17 15 16 18 20 20 21 21 22 22 26 30 29 33 43 50 88 97 95 97
80 64 62 64 60 61 63 64 68 68 68 71 73 75 76 77 78 84 87 87 65 37 18 18 16 16 18 22 23 23 23 23 26 30 34 36 34 32 35 60 93 96 96 96
64 61 58 58 61 58 59 61 62 65 70 76 78 79 83 83 86 84 87 75 27 20 20 18 18 20 23 24 24 25 26 28 32 37 38 39 41 59 84 83 96 67 97 96
60 59 65 64 65 64 65 64 58 64 76 82 87 96 98 91 86 85 61 22 23 22 20 20 22 22 24 25 28 29 31 35 40 40 41 48 69 90 94 98 100 95 73 95
62 61 62 64 64 64 49 39 38 46 66 85 98 98 98 90 80 38 23 25 22 21 21 22 22 23 28 31 32 34 38 41 41 46 56 81 83 82 87 99 100 96 94 93
63 65 63 64 45 34 35 38 42 60 80 92 92 96 90 60 23 23 23 22 22 21 21 23 28 34 36 35 36 39 39 39 43 59 75 79 79 91 100 98 98 100 100 99
62 65 61 36 34 37 41 49 64 78 86 91 94 87 55 21 21 22 22 23 23 24 27 35 40 39 36 36 38 38 37 40 50 71 77 84 94 98 96 98 99 99 92 88
48 34 34 37 38 39 49 61 73 79 84 88 87 52 21 20 20 22 24 24 26 29 38 44 40 36 36 36 36 36 42 57 79 85 87 95 100 97 98 95 94 100 94 95
37 42 43 43 40 41 49 62 74 86 87 86 52 19 20 22 25 28 31 32 31 38 44 41 38 37 36 34 38 44 59 83 87 89 96 100 96 98 98 96 99 98 99 98
43 47 49 47 42 40 48 67 78 80 80 51 21 22 22 26 32 36 37 36 37 47 43 40 40 38 34 37 42 72 94 98 98 93 98 100 93 95 97 96 100 99 97 96
42 48 55 57 52 44 43 59 66 59 39 21 22 24 28 33 38 42 42 41 46 44 41 40 35 31 36 43 88 100 96 94 89 88 84 82 84 90 96 96 96 94 95 99
37 41 54 62 60 55 52 58 62 44 23 22 26 31 37 41 48 50 48 50 46 43 41 35 33 37 44 94 96 90 82 78 74 75 78 81 90 97 95 95 97 97 97 98
45 39 48 63 66 61 60 60 60 46 28 27 32 40 48 53 57 52 51 47 44 41 36 34 37 41 48 94 78 68 67 68 72 79 85 89 94 96 100 100 100 100 97 97
54 54 54 66 71 61 58 64 63 51 40 40 45 53 57 61 56 51 47 45 42 37 37 39 41 43 76 67 63 64 65 71 81 87 88 92 98 100 99 98 96 95 100 95
60 59 65 74 65 54 71 81 69 62 60 60 60 64 64 57 51 48 46 41 37 37 39 40 43 50 58 59 62 66 72 80 86 100 100 100 98 98 96 96 95 98 100 98
62 72 74 68 60 69 82 80 75 76 74 71 69 60 51 47 46 43 39 37 39 42 44 44 48 58 64 68 70 72 80 88 91 92 100 99 97 99 98 97 95 94 94 94
69 78 74 61 65 74 80 84 83 78 70 61 51 47 46 45 42 39 40 41 45 46 46 48 56 62 67 72 73 77 82 87 91 100 100 100 100 99 97 94 94 94 95 94

GFSNGP_850_rhum_012.txt.gz
RH
48 53 55 56 57 56 53 48 53 46 51 38 34 35 35 35 38 42 47 53 58 64 69 71 70 65 55 62 73 77 66 45 28 15 8 6 7 7 7 8 9 9 10 10
42 42 38 44 53 60 54 54 44 50 50 40 40 40 48 47 46 47 50 56 60 66 69 72 70 58 68 77 76 69 57 40 19 10 7 7 8 8 9 10 11 11 12 12
50 45 41 38 44 67 58 52 55 61 47 40 56 55 48 45 41 43 44 50 58 64 72 73 62 70 78 77 70 63 58 35 13 8 8 8 9 10 11 12 13 13 13 12
53 49 46 32 44 40 45 45 38 50 50 52 56 51 47 46 43 43 49 54 60 68 74 67 68 78 79 70 65 53 36 24 8 8 9 11 12 13 14 14 15 15 15 16
58 56 45 49 51 52 49 60 52 60 61 56 54 50 50 48 47 47 50 56 66 75 70 66 75 79 77 73 46 39 24 11 9 11 12 13 14 15 16 18 18 17 19 21
85 75 58 45 46 41 44 70 59 59 64 64 58 68 67 52 54 55 57 65 72 71 68 75 81 84 75 60 48 21 11 10 11 14 14 15 17 18 20 22 22 19 20 24
73 70 63 46 46 41 56 55 66 58 56 59 67 56 55 58 63 68 73 74 72 73 77 83 84 76 73 37 17 14 11 12 14 15 17 18 20 22 24 25 24 22 21 22
81 73 68 51 51 54 57 60 51 51 52 53 53 54 59 64 68 72 76 78 80 80 82 83 79 69 31 20 14 12 13 14 16 18 20 22 24 24 25 25 25 24 26 34
68 68 58 57 53 51 50 51 54 53 54 55 56 60 60 60 66 75 82 84 83 84 88 84 64 45 18 15 13 14 14 17 20 23 25 25 25 26 27 26 29 35 67 93
67 65 61 58 55 53 53 54 56 58 60 60 62 66 66 64 69 79 85 88 87 89 86 65 40 20 16 15 14 16 19 22 25 27 27 27 27 28 29 33 49 81 100 100
75 73 66 61 57 57 59 61 62 63 64 65 66 71 72 71 74 82 88 91 92 83 64 46 21 17 16 17 19 22 24 27 29 29 29 29 29 33 37 51 89 99 97 97
76 66 65 64 60 57 60 63 65 66 65 67 72 75 78 80 82 84 87 81 82 70 56 20 17 17 19 22 24 27 29 32 32 31 31 32 34 34 46 70 96 94 96 97
65 61 59 60 61 60 60 64 63 56 51 61 73 83 85 90 90 82 83 79 78 44 20 19 18 20 24 26 28 32 34 34 32 33 34 38 39 56 76 68 72 70 94 98
64 62 70 67 66 65 63 57 43 40 43 58 81 94 99 97 93 84 82 79 32 20 21 21 22 24 27 32 38 38 35 34 34 35 35 40 58 85 83 89 91 83 81 100
65 61 60 64 62 60 47 36 36 39 38 42 59 93 100 97 88 86 73 22 20 21 22 24 25 27 36 42 40 36 35 35 35 37 44 65 76 75 83 98 100 98 100 98
71 68 66 66 48 34 34 37 42 42 44 54 62 80 89 92 86 46 20 22 22 23 25 25 25 35 42 40 37 37 35 34 35 42 59 71 73 88 98 99 100 100 100 100
67 75 64 35 34 38 40 42 44 49 56 66 77 89 89 80 36 22 24 24 26 26 25 28 36 43 40 39 38 36 32 33 40 58 64 73 84 98 100 100 100 100 95 94
56 33 36 38 39 40 41 43 47 52 60 71 79 88 85 46 22 24 24 26 26 27 31 38 44 42 40 39 35 30 33 41 60 68 72 80 100 100 92 96 99 100 100 93
36 38 39 40 43 44 42 39 42 54 69 80 85 84 53 24 23 24 26 28 30 34 38 45 45 41 39 34 31 32 40 59 68 74 88 96 85 97 88 86 100 100 100 96
43 42 46 50 52 50 48 44 43 53 68 78 80 64 27 24 26 28 31 34 39 45 48 47 42 40 36 31 33 46 67 81 84 83 74 96 78 76 85 89 100 99 99 100
42 45 47 51 56 57 57 56 51 50 66 69 66 40 25 26 29 34 40 45 47 51 49 44 41 36 32 34 63 88 77 72 71 72 72 73 77 83 90 93 94 94 100 100
37 38 40 44 52 58 64 64 60 57 60 56 37 26 26 31 39 45 50 54 54 50 44 42 37 34 38 84 78 65 63 63 66 70 73 78 85 90 90 93 96 99 100 100
48 49 47 45 49 58 66 68 63 62 61 51 34 31 36 42 49 52 55 58 50 44 42 38 35 38 44 78 54 56 59 61 67 72 78 84 87 90 96 99 100 100 95 99
55 56 56 57 57 60 70 67 64 69 64 50 41 43 49 56 60 63 58 49 46 43 39 39 41 43 51 48 53 57 60 64 72 78 82 84 90 97 99 96 96 99 100 98
54 60 62 61 65 72 69 65 72 79 68 60 61 64 70 74 66 52 46 44 42 38 38 40 44 46 46 48 54 61 66 70 72 86 98 93 91 94 95 99 100 100 100 98
65 67 64 68 74 72 66 73 80 76 76 78 87 88 73 53 48 46 44 40 38 41 44 43 43 46 54 60 63 66 69 73 78 83 89 93 96 99 100 100 99 95 96 96
69 67 70 77 75 71 75 81 85 88 86 78 63 50 47 47 46 42 36 36 40 41 42 45 50 57 62 66 68 72 76 81 87 96 100 100 100 98 100 100 98 97 96 95

GFSNGP_850_rhum_015.txt.gz
RH
49 50 52 56 57 53 49 43 44 45 49 40 41 44 46 43 46 47 49 54 60 65 71 74 74 70 60 67 75 70 66 58 55 38 17 8 8 9 10 11 13 16 17 18
45 51 53 58 59 50 46 52 49 48 49 41 41 42 47 48 45 45 47 54 60 66 72 76 75 66 67 75 75 68 57 48 34 34 12 8 9 10 12 15 18 20 20 18
58 45 42 50 50 62 50 56 43 52 39 48 58 58 54 52 50 52 52 54 58 67 77 79 73 66 75 77 73 65 47 31 23 18 9 10 11 13 17 20 22 22 20 19
56 46 54 42 44 51 52 49 49 44 46 52 58 52 50 47 44 45 49 52 60 72 81 78 68 73 77 78 69 56 47 27 14 10 10 12 14 18 22 24 24 22 22 20
62 57 45 50 52 54 50 55 47 64 68 62 54 52 56 54 50 49 50 54 64 75 80 72 70 77 82 72 66 56 29 17 11 11 13 15 20 24 26 25 25 24 24 22
82 63 47 39 47 42 46 56 61 60 66 65 56 61 61 53 53 52 53 59 70 79 74 71 78 83 73 68 58 37 18 12 12 14 17 21 25 27 27 26 26 25 24 24
72 64 58 47 48 42 54 47 65 59 61 62 62 56 55 53 54 57 64 70 76 74 73 79 83 76 69 60 43 20 12 13 16 18 22 27 29 29 28 28 27 25 24 30
77 70 56 50 49 52 56 64 57 54 53 52 54 55 55 58 60 66 70 74 76 78 81 84 80 71 60 42 23 14 14 17 19 22 27 31 31 30 29 28 28 28 30 40
63 63 62 58 56 56 57 53 54 51 52 52 57 61 62 61 64 73 82 84 84 84 85 86 74 55 41 23 15 15 17 20 22 26 33 34 31 30 29 29 33 36 54 82
61 64 64 64 58 52 51 52 54 53 56 58 59 63 64 65 70 79 85 88 88 87 88 74 60 44 20 17 17 18 20 22 28 36 36 32 30 30 31 33 40 66 92 98
79 74 66 62 57 56 56 56 58 60 61 63 65 69 72 71 70 78 88 89 89 90 76 58 38 20 18 18 20 22 23 32 38 37 33 31 31 33 35 42 73 97 96 97
74 66 65 62 61 61 58 61 63 62 64 64 65 69 74 78 80 83 84 86 82 74 65 37 20 19 20 22 22 27 37 40 37 34 32 32 31 28 38 52 86 91 99 96
65 64 60 60 62 61 58 60 60 53 45 46 54 67 78 82 87 90 85 82 75 75 36 20 19 21 22 23 29 39 40 37 35 34 32 29 30 43 56 61 67 76 100 100
62 60 74 68 67 61 54 54 51 42 41 44 54 69 91 96 92 90 83 80 72 26 21 20 21 22 22 29 39 40 38 36 34 31 27 34 52 72 71 76 89 96 86 100
67 60 58 60 61 60 59 44 37 40 43 46 46 68 98 98 96 86 84 70 23 22 21 21 21 23 29 38 41 39 37 34 30 28 37 59 70 63 70 94 99 100 94 94
72 65 64 58 61 54 36 38 43 44 43 48 50 65 84 93 92 87 61 22 22 21 22 22 25 29 38 43 41 38 35 31 31 38 54 64 61 69 84 99 99 96 96 98
72 79 70 61 37 36 38 40 40 42 45 49 57 68 82 91 86 54 21 21 22 23 25 28 30 37 44 43 40 37 32 30 35 54 58 63 66 84 100 99 95 99 96 90
56 53 52 33 36 37 38 40 41 43 49 61 71 77 84 85 71 26 22 22 25 27 31 35 40 46 45 42 39 34 30 36 53 61 66 69 92 95 76 91 91 96 95 90
41 36 36 35 37 41 42 42 42 46 54 66 72 79 85 80 42 24 24 25 30 32 36 40 48 48 43 40 35 30 34 47 55 58 67 82 68 76 74 81 96 98 100 98
40 37 37 40 46 49 50 50 51 50 50 55 69 76 78 57 28 25 26 29 35 40 44 51 50 44 41 36 31 34 43 58 61 62 63 73 69 70 79 86 100 100 92 98
41 40 43 48 53 57 59 60 61 59 56 56 64 71 71 39 28 29 32 36 44 49 55 52 45 42 37 32 36 46 54 55 56 61 64 68 70 74 83 92 94 93 93 100
42 43 42 44 48 54 59 63 66 66 62 59 59 59 46 32 32 36 41 49 54 59 51 45 42 38 33 36 39 45 48 52 58 62 67 71 76 84 89 94 95 94 100 96
42 47 49 48 49 53 59 66 70 68 64 63 58 46 36 36 40 47 55 62 60 48 45 42 38 33 34 40 42 46 49 56 62 67 71 73 78 86 94 96 97 98 93 94
54 55 56 56 58 61 65 70 69 68 70 65 55 47 46 52 62 69 68 54 47 45 42 36 32 35 39 41 44 50 56 60 66 71 73 74 82 93 96 93 93 94 96 96
61 60 63 66 64 68 73 72 70 74 74 67 62 64 71 82 78 58 47 46 45 37 30 30 33 38 42 46 53 59 64 68 72 78 88 88 87 91 92 93 96 98 100 99
62 66 70 69 70 75 75 71 71 74 75 76 83 90 82 59 48 48 47 39 32 32 35 37 41 47 53 59 62 65 71 74 77 79 86 88 90 93 94 95 93 92 94 92
64 70 71 72 76 78 77 76 78 85 90 87 73 53 48 49 48 40 32 32 35 37 40 44 51 55 59 64 68 71 75 77 81 90 95 95 91 92 92 93 92 92 92 93

GFSNGP_850_rhum_018.txt.gz
RH
41 43 38 42 48 45 47 42 44 35 35 28 23 31 36 41 42 45 51 64 72 77 78 74 72 71 64 64 71 70 63 53 46 42 37 18 9 10 12 16 22 24 25 24
43 46 43 44 39 41 44 42 38 33 33 25 27 34 36 40 44 45 49 60 70 80 80 76 74 72 64 71 74 70 60 52 48 37 24 10 11 13 17 24 26 27 27 27
50 41 45 51 43 42 36 33 32 39 30 31 37 35 38 42 44 46 51 59 69 80 82 78 77 71 69 75 74 66 61 54 39 26 11 12 14 18 25 28 29 30 33 31
50 42 83 37 37 32 37 33 30 31 32 32 33 44 51 50 49 54 53 55 66 76 79 82 77 69 74 76 72 66 58 44 28 12 12 14 19 25 29 31 33 37 41 34
52 47 38 34 42 40 45 40 36 36 36 44 50 51 59 61 54 51 52 56 62 71 81 82 73 73 76 76 66 59 54 30 13 12 15 18 23 28 32 32 34 39 41 50
68 61 52 33 40 36 34 38 38 36 43 48 50 46 47 63 55 53 53 56 63 75 82 76 72 76 80 69 57 57 34 15 13 15 19 22 28 33 33 34 40 42 47 51
83 90 37 39 41 42 41 41 48 46 49 51 45 50 62 57 54 54 58 62 72 79 76 73 77 80 72 61 58 42 19 13 16 19 22 29 35 34 36 39 40 47 50 53
76 63 59 45 45 41 48 58 57 56 56 57 60 56 54 55 55 60 62 71 76 75 74 78 81 76 63 53 43 23 14 16 19 22 31 37 35 33 37 45 47 48 52 64
42 43 56 59 55 55 57 57 58 56 55 48 52 54 56 58 59 63 68 73 76 78 80 82 83 64 51 47 26 15 16 19 23 34 38 36 37 37 45 49 52 58 65 72
52 57 58 61 63 61 57 51 50 48 48 48 52 56 56 58 58 63 71 79 82 84 84 86 73 52 49 36 16 17 20 24 37 39 35 36 36 42 44 53 62 70 77 77
64 64 61 62 60 54 53 51 51 53 54 56 57 62 64 65 64 67 76 82 86 87 88 74 55 48 32 17 19 21 27 38 39 38 38 38 38 45 51 56 68 92 91 92
44 48 47 52 64 58 56 57 56 54 59 58 58 61 64 70 73 76 82 88 88 88 71 63 47 24 18 20 22 28 38 40 38 36 40 35 43 53 67 82 94 95 94 99
47 57 60 62 63 60 56 58 57 55 49 43 44 51 60 70 79 84 89 89 86 74 71 61 21 20 22 22 28 37 40 40 38 39 43 54 60 70 73 70 82 90 95 96
59 59 76 70 69 62 56 58 55 44 38 38 40 47 59 77 86 91 90 83 79 77 43 21 21 22 23 26 34 41 41 39 36 38 48 65 74 76 76 79 80 79 84 92
72 62 65 63 64 61 55 51 44 36 35 36 40 48 63 78 83 85 84 82 78 30 21 22 22 24 27 32 42 44 41 38 34 34 54 64 80 81 84 84 84 82 82 83
68 63 65 62 60 58 55 42 35 37 39 41 43 45 57 71 82 85 83 81 30 22 22 23 24 27 32 41 46 43 40 36 31 32 64 80 86 85 86 86 83 84 86 86
69 82 71 66 60 58 38 37 40 42 43 46 52 56 60 74 86 87 81 32 24 24 24 26 28 32 39 48 46 42 38 33 32 53 84 87 90 89 88 86 88 86 87 92
60 58 56 49 45 36 39 40 41 42 46 51 54 60 71 82 86 81 42 25 25 25 27 30 35 40 49 49 43 39 35 36 54 83 92 91 90 92 92 88 91 91 93 97
62 55 53 35 36 36 37 40 41 42 44 50 58 68 80 88 87 67 29 26 26 28 33 37 41 50 52 44 40 36 35 53 90 91 90 90 89 88 89 91 94 97 99 100
62 40 36 35 39 41 42 45 48 50 51 53 62 73 81 83 77 46 27 27 30 34 36 42 52 54 44 41 37 35 67 91 90 84 84 87 85 87 92 97 100 100 100 100
38 38 41 45 48 51 53 54 57 59 59 60 63 70 73 74 58 33 29 31 38 42 47 57 55 44 42 37 41 89 80 85 76 78 79 83 88 93 96 100 100 100 100 100
42 45 49 51 52 52 54 58 63 66 66 63 61 61 63 61 42 33 35 40 47 55 62 51 43 42 34 32 70 61 46 43 47 57 70 77 80 89 98 100 100 100 100 100
46 44 43 45 46 49 58 64 70 70 68 66 63 60 52 41 37 40 49 58 66 60 46 44 40 31 31 39 42 39 42 48 55 61 65 70 78 84 93 100 100 100 100 100
46 48 49 51 55 61 64 70 71 70 69 67 63 55 48 47 54 64 73 67 49 46 43 32 30 32 34 37 42 47 51 55 60 66 70 72 80 88 98 98 100 100 100 100
52 57 61 63 64 66 72 73 72 71 71 68 64 62 67 75 84 68 49 47 45 34 27 28 31 35 38 43 49 54 57 61 67 78 95 87 84 88 98 100 100 100 100 92
68 67 69 70 70 72 75 74 73 72 72 73 77 87 86 65 49 48 46 35 28 29 30 31 34 41 47 52 55 59 65 71 78 82 84 89 93 96 98 94 91 90 90 85
62 68 70 72 74 77 78 78 78 80 86 90 82 63 50 49 48 39 30 30 31 31 31 35 41 47 53 57 61 68 75 78 82 87 91 93 90 90 90 88 88 88 85 84

GFSNGP_850_rhum_021.txt.gz
RH
31 34 40 47 52 53 54 45 44 33 31 24 23 26 28 32 35 40 46 52 56 63 63 64 62 59 55 58 63 67 66 62 58 52 44 29 13 10 11 16 23 29 34 39
42 38 36 37 37 41 42 40 36 32 31 23 21 23 29 32 34 39 45 51 55 63 64 65 63 59 56 60 68 69 68 64 57 46 32 14 11 12 16 23 30 37 41 42
48 38 42 50 37 36 36 34 33 39 31 25 28 28 29 32 35 37 41 49 57 65 69 68 64 61 59 63 71 70 66 59 49 36 19 11 12 16 24 32 38 41 42 42
61 43 74 36 30 30 33 30 30 32 28 25 28 29 33 36 37 40 45 50 60 68 74 71 66 63 57 69 73 67 59 50 39 26 12 12 16 24 31 38 42 42 41 42
58 50 36 32 33 33 36 36 28 28 26 28 38 47 52 54 48 51 54 62 71 76 76 71 70 66 70 74 71 60 54 42 29 14 13 16 21 28 36 40 39 39 41 44
59 58 59 34 34 30 29 41 25 27 29 35 46 45 47 63 65 60 61 67 72 76 74 74 67 70 73 75 64 55 48 40 18 13 17 21 28 36 38 38 39 42 46 45
90 74 56 35 34 34 39 44 35 32 32 42 42 45 59 63 64 59 56 59 67 75 74 67 70 73 76 69 57 48 47 29 14 17 21 31 37 38 35 39 45 46 44 44
94 94 84 37 40 38 47 46 41 40 42 49 62 65 67 61 56 57 56 67 75 72 69 70 74 78 71 56 49 53 38 15 17 20 32 37 37 38 42 47 46 43 46 52
54 57 48 48 48 51 48 48 49 50 54 58 62 66 60 60 60 62 65 69 72 70 70 75 80 79 57 55 58 39 16 18 20 30 36 38 39 46 48 46 46 48 56 66
41 46 48 49 57 56 52 53 53 55 56 55 61 65 65 62 62 62 66 71 73 70 76 81 83 74 58 60 42 16 18 20 29 36 39 41 49 48 47 46 54 64 72 85
48 54 54 55 54 55 56 57 57 56 55 58 58 65 58 64 64 67 70 75 79 76 80 78 82 65 64 35 17 18 20 27 37 41 45 51 49 47 49 56 69 83 90 94
40 39 39 45 56 60 60 59 53 49 56 58 50 49 59 66 70 71 72 77 83 82 80 79 69 57 28 18 18 19 25 37 43 45 50 49 47 49 52 64 71 76 84 89
40 45 49 54 60 60 62 62 58 55 49 48 52 50 61 64 70 74 78 83 86 85 79 70 64 24 18 18 20 25 36 43 45 46 52 53 57 59 63 58 69 72 76 80
57 56 58 62 64 66 61 57 56 51 46 40 38 41 46 58 66 80 85 86 85 80 73 66 24 19 19 20 25 35 44 45 48 53 47 52 58 66 72 72 73 74 74 77
62 60 60 62 70 73 61 56 50 41 38 37 38 39 48 63 75 78 78 84 81 76 64 22 20 20 22 27 34 43 47 47 48 42 42 59 67 71 74 76 77 77 77 77
71 66 67 71 73 65 58 54 42 39 39 38 38 40 42 50 62 69 79 79 79 64 22 20 21 24 28 34 41 48 48 45 46 48 50 65 74 76 78 79 81 83 83 83
71 91 81 77 68 63 56 47 39 37 36 35 37 41 44 54 69 81 81 80 76 27 21 22 26 30 35 39 48 50 44 42 46 56 72 78 80 81 81 84 84 83 86 87
59 55 63 61 61 58 43 38 38 34 35 39 43 46 52 64 76 80 82 80 38 24 24 27 31 35 38 48 52 45 40 41 54 69 80 82 81 84 82 82 84 86 90 92
62 65 67 60 54 37 37 35 34 37 40 42 47 56 66 72 80 83 80 61 27 28 36 32 35 40 49 55 46 40 38 48 78 82 80 77 76 77 77 80 87 91 95 96
67 61 57 42 38 33 32 37 40 43 46 50 55 59 66 74 80 84 79 43 31 38 34 38 43 54 57 45 41 37 46 82 83 79 74 75 73 75 81 86 92 97 98 98
56 41 37 34 36 40 43 46 48 51 54 56 58 60 64 69 75 75 52 34 40 35 40 47 59 57 43 42 32 31 65 76 70 67 68 72 77 81 86 91 100 100 100 100
39 36 38 41 44 47 51 53 55 58 59 61 61 61 64 68 69 52 38 39 39 44 56 65 51 43 39 27 27 45 60 52 53 62 69 74 80 82 89 96 100 100 100 100
39 41 43 46 48 49 53 57 59 61 64 65 65 64 64 59 47 40 44 45 56 68 61 45 43 30 26 29 34 42 45 51 57 64 72 73 79 91 100 100 100 100 100 100
42 41 44 46 48 52 56 59 64 68 69 68 66 61 54 48 47 52 62 73 68 45 44 34 25 28 31 34 40 47 52 56 60 66 72 83 96 99 100 100 100 100 100 100
47 49 51 53 56 59 64 69 72 72 70 68 65 60 59 63 72 80 63 46 45 36 25 26 28 31 35 42 48 52 54 59 67 86 87 88 87 92 96 100 100 97 100 98
57 58 59 61 62 67 72 74 73 72 70 68 69 73 82 82 58 47 46 38 28 27 28 29 30 34 40 46 51 55 60 68 77 82 88 89 91 93 93 87 85 86 86 90
58 59 63 68 72 76 77 76 76 75 76 80 86 80 58 48 48 41 30 28 29 30 30 30 31 34 44 52 56 63 73 79 83 88 89 88 89 90 91 89 88 85 87 85

GFSNGP_850_rhum_024.txt.gz
RH
71 66 62 68 65 65 67 57 54 41 36 36 40 42 39 33 38 44 47 51 54 64 66 65 64 60 57 57 58 61 64 65 64 62 54 45 27 13 11 14 17 23 28 30
47 62 65 65 58 60 57 54 52 49 41 26 26 30 34 34 37 44 47 52 56 63 64 63 62 59 56 56 59 64 67 67 64 57 49 33 15 12 14 17 24 29 31 33
58 42 42 54 46 54 52 50 50 56 39 29 33 36 35 33 37 42 46 53 56 62 63 64 62 59 56 57 63 68 68 65 59 53 40 18 12 15 18 26 30 30 30 31
79 50 75 40 32 33 38 38 40 38 35 30 35 39 38 34 35 39 44 51 56 63 65 65 64 61 59 59 66 69 66 59 55 46 23 13 14 18 27 32 31 30 28 29
71 61 47 39 35 36 43 44 34 36 36 49 48 45 54 46 43 45 46 53 60 67 70 68 65 63 61 61 70 68 60 56 45 27 14 14 18 28 32 32 30 27 28 28
83 77 70 43 35 31 32 55 40 36 38 52 47 66 71 57 54 56 59 63 68 73 73 70 66 66 66 71 71 62 55 50 34 15 15 18 29 33 34 34 29 28 29 34
88 83 76 38 34 33 52 53 44 36 42 51 64 59 62 64 65 65 68 70 71 72 70 70 69 67 70 72 65 54 53 40 16 15 18 29 35 37 36 31 30 31 32 35
94 96 92 38 39 45 53 44 41 45 49 66 66 68 69 69 67 63 61 68 70 68 68 68 68 70 74 67 56 57 46 17 15 18 28 37 39 37 30 32 34 36 40 40
84 80 50 50 51 47 48 45 51 54 55 55 66 67 64 65 62 62 64 67 68 67 68 69 72 76 74 60 58 50 17 15 18 27 38 40 38 34 35 36 42 44 51 64
52 52 52 50 50 50 49 51 53 54 55 55 60 61 62 61 61 62 65 66 67 67 69 75 80 80 64 58 52 18 15 18 26 38 41 39 35 34 37 42 49 57 72 78
55 56 55 53 52 53 54 54 55 56 54 54 53 58 53 56 58 60 64 69 69 70 75 81 80 72 61 54 20 15 18 24 36 41 42 39 34 36 42 46 58 72 75 78
55 46 46 54 55 55 56 56 56 54 59 58 48 56 58 65 66 65 67 72 75 74 75 75 74 64 57 21 16 18 23 31 40 44 42 37 36 36 38 43 56 74 78 80
47 45 44 54 56 57 58 58 56 51 49 51 60 58 59 65 71 71 72 76 79 80 78 76 69 65 19 17 18 23 27 34 43 46 42 40 40 44 41 32 56 68 77 80
48 51 62 60 61 62 60 63 56 54 52 47 46 50 48 50 64 71 75 78 82 83 79 72 65 22 18 19 23 25 28 40 48 46 42 42 44 53 61 68 65 61 69 82
54 53 55 61 63 65 62 60 54 49 43 39 40 38 42 48 60 69 73 79 84 80 74 68 24 19 20 23 25 26 35 49 47 44 46 50 50 55 64 66 76 80 79 80
61 61 63 66 69 67 62 55 41 42 40 38 35 37 40 45 54 63 70 79 77 75 72 28 21 23 24 25 27 33 48 50 43 48 54 47 52 60 67 79 79 82 85 83
67 79 74 77 72 71 59 48 37 36 38 35 36 39 44 51 58 66 74 76 77 75 37 24 24 24 26 29 34 48 53 42 41 42 45 50 60 73 79 77 78 81 82 84
58 58 66 66 70 63 53 43 38 37 34 38 41 46 48 53 60 67 72 76 78 48 27 25 25 27 30 36 49 54 43 41 36 44 52 63 70 75 62 70 73 80 85 86
62 61 70 72 63 52 41 40 36 34 38 41 44 48 53 60 63 68 76 78 57 32 28 27 30 32 37 53 55 43 40 29 37 57 61 55 56 61 63 73 80 89 91 95
72 72 68 63 50 37 37 36 36 37 41 44 47 52 57 65 76 82 82 72 48 36 33 32 35 42 59 54 43 36 25 32 46 49 44 49 54 64 72 75 88 89 93 99
70 64 51 40 39 36 34 38 38 40 46 50 52 56 61 68 72 74 73 56 43 37 36 40 52 64 47 44 29 25 26 31 36 40 47 56 64 68 75 78 84 90 100 100
50 40 36 34 34 41 45 46 48 49 52 55 58 61 63 64 67 66 54 43 39 39 48 66 56 45 38 25 24 25 28 35 42 49 56 63 71 79 83 88 94 100 100 100
37 35 37 40 41 44 51 52 52 55 57 61 64 64 63 62 57 48 43 48 52 67 64 46 41 27 24 23 25 29 36 42 48 55 63 70 77 86 99 100 100 100 99 100
41 43 44 45 45 45 46 54 58 63 66 66 65 63 60 54 50 50 56 71 70 46 44 29 23 23 24 26 29 35 42 50 56 64 75 88 88 91 93 93 96 100 95 83
40 43 44 45 46 52 58 65 69 69 67 66 65 62 59 60 67 78 66 47 45 33 23 23 24 24 26 28 34 44 51 58 69 84 88 86 86 87 89 94 97 94 93 85
44 45 50 55 57 62 67 70 69 69 69 68 67 68 75 82 64 47 46 38 26 24 25 26 26 27 28 34 45 55 63 72 81 84 85 85 89 92 94 93 92 88 84 84
56 56 57 59 66 71 73 73 72 72 72 74 79 84 68 49 48 42 30 25 26 28 29 29 28 28 36 48 58 66 74 78 83 85 87 91 91 91 91 91 90 86 87 81

GFSNGP_850_rhum_027.txt.gz
RH
92 81 72 74 74 76 83 77 65 51 50 50 48 46 45 48 50 54 57 61 63 66 67 68 66 63 61 59 56 55 59 62 65 66 60 53 40 19 12 14 20 27 28 24
92 65 66 68 65 71 70 66 58 57 50 35 42 41 43 50 51 56 59 63 65 65 66 67 66 63 60 58 56 58 62 66 66 60 57 46 22 12 14 21 28 28 25 21
84 68 65 72 69 67 65 57 56 62 48 38 44 44 44 49 50 53 55 56 58 63 64 66 65 62 59 57 56 60 66 68 61 58 49 25 13 14 23 30 30 26 22 23
83 58 73 46 38 52 64 54 54 49 40 37 51 58 42 40 44 48 49 53 56 61 65 65 64 61 58 56 57 65 68 62 58 53 34 14 14 24 32 32 29 24 24 26
76 76 58 42 38 40 47 48 44 51 46 54 54 47 60 44 41 44 48 52 56 61 64 64 63 60 58 58 63 67 64 58 55 41 15 15 25 33 34 32 25 25 26 24
89 83 74 45 38 34 36 56 47 42 54 55 51 60 74 62 46 48 52 55 60 65 65 65 63 62 61 60 68 66 58 55 44 16 15 26 35 36 34 30 27 27 26 29
87 91 76 46 37 37 46 47 53 48 50 53 56 54 68 63 57 57 59 62 67 68 68 67 66 63 63 69 69 59 56 47 17 16 26 36 38 37 32 28 28 29 30 30
88 95 91 40 37 39 48 47 57 61 57 69 74 73 72 67 69 68 70 73 73 73 71 68 67 67 69 71 61 57 52 20 16 25 36 40 40 36 29 31 32 29 31 42
83 74 55 51 49 50 49 50 63 59 63 55 69 71 68 70 70 68 66 66 67 65 68 66 66 68 74 66 58 55 23 15 23 33 40 42 40 34 31 32 31 31 50 67
72 58 54 52 49 50 48 48 55 54 57 58 66 66 65 61 61 61 61 63 64 65 66 67 71 75 68 61 56 26 16 22 28 36 40 44 40 33 33 31 30 55 73 77
59 60 55 53 50 54 54 54 56 58 56 56 53 57 53 58 60 62 62 64 64 66 70 76 79 75 64 59 26 16 20 24 30 37 45 45 36 34 34 29 47 70 78 83
66 50 46 50 53 55 55 56 56 53 57 54 46 49 54 58 59 61 63 65 67 70 77 80 78 66 58 27 17 19 22 25 31 42 48 41 36 31 21 28 40 58 78 86
46 44 46 50 57 55 55 56 54 50 49 50 53 46 48 56 62 66 68 70 70 72 74 76 68 62 26 18 19 22 24 27 38 49 45 37 35 28 33 35 43 42 61 86
45 48 64 59 62 57 56 57 54 54 52 50 53 55 52 55 67 68 72 75 77 77 76 71 65 39 19 19 21 24 27 37 49 49 38 38 33 38 45 48 47 42 48 66
53 47 52 58 61 62 59 59 58 60 60 60 53 47 48 54 63 69 74 79 81 79 74 69 46 20 20 22 24 28 33 48 52 40 37 32 38 42 46 55 60 56 51 55
58 56 62 63 65 65 62 59 51 54 48 46 43 44 48 52 59 66 72 78 78 74 71 48 22 22 23 25 29 33 46 54 42 37 26 32 40 43 52 62 57 58 61 70
66 79 71 71 69 70 61 50 41 42 41 35 34 38 43 49 56 64 71 73 73 70 50 26 23 24 26 31 34 46 56 43 36 22 28 40 46 47 56 55 59 64 67 77
52 56 62 62 67 62 54 46 40 38 34 34 38 42 46 52 55 65 71 75 74 64 33 26 27 30 34 36 47 58 43 35 21 26 36 42 45 50 51 56 61 69 77 75
59 61 66 69 65 54 46 44 39 34 36 38 41 47 54 60 64 69 75 77 68 44 33 32 36 36 38 54 58 42 31 20 23 29 37 40 43 48 54 61 72 78 81 81
72 73 74 67 56 44 41 38 36 38 42 44 48 54 62 67 71 75 76 70 54 42 38 38 38 43 61 54 41 24 21 23 27 34 40 46 50 54 60 67 78 84 86 90
79 78 66 55 45 40 36 37 36 40 52 54 53 58 60 67 75 74 70 61 48 43 44 42 54 64 43 36 21 21 23 26 34 41 45 50 55 60 68 79 84 89 92 99
71 62 51 45 40 42 45 45 43 46 52 54 56 58 61 63 65 64 55 46 44 45 54 67 53 41 26 21 22 23 27 33 38 44 49 55 63 74 80 86 91 88 89 89
53 44 41 41 40 46 54 53 54 53 52 56 58 61 62 61 56 49 45 51 59 71 58 44 33 22 22 23 24 26 30 37 45 52 58 66 74 84 89 90 88 88 85 89
43 42 44 45 45 48 49 59 57 59 58 61 63 62 59 54 52 54 64 74 62 45 39 24 22 23 24 25 25 28 38 48 54 62 69 77 82 83 85 86 84 86 89 83
45 46 46 46 46 47 50 59 61 65 64 64 63 60 60 62 72 76 58 46 42 29 23 23 24 25 25 25 29 40 49 58 66 74 77 77 79 83 84 83 84 86 88 87
44 44 48 49 46 53 58 65 62 66 66 66 66 69 77 77 58 48 45 35 25 24 24 25 26 25 26 30 41 51 59 69 73 74 78 81 80 78 77 79 86 89 86 83
48 48 51 55 61 65 67 68 67 68 71 73 77 80 64 50 47 41 31 24 24 25 27 27 26 26 31 43 52 59 67 73 78 80 81 78 74 72 74 81 89 88 85 81

GFSNGP_850_rhum_030.txt.gz
RH
97 94 95 78 90 83 78 68 78 61 80 62 48 51 57 59 65 70 75 76 71 71 71 68 66 65 61 56 52 51 54 57 61 66 62 57 43 22 14 14 24 28 27 23
99 84 94 93 82 78 82 85 92 69 59 42 51 51 59 60 64 68 73 74 72 69 69 69 68 66 62 57 54 54 55 60 65 63 58 47 26 14 14 25 29 28 24 22
100 77 90 99 94 88 96 84 80 74 47 47 46 49 62 60 59 62 68 67 66 65 66 68 68 66 62 59 56 55 59 64 65 58 52 33 16 15 27 31 30 26 23 24
98 67 74 48 41 57 60 58 53 54 41 43 50 57 50 54 54 58 60 65 66 65 67 68 68 65 62 58 56 56 62 66 58 54 43 18 15 28 34 32 29 25 25 25
97 86 59 44 41 51 64 59 57 56 54 62 59 52 60 50 52 51 54 59 61 62 64 68 67 64 60 57 56 60 65 61 57 50 21 15 28 36 36 32 27 26 27 25
95 83 73 47 39 36 38 58 48 46 60 63 57 60 66 57 52 53 56 56 58 62 66 67 65 62 58 57 58 65 65 58 53 26 15 28 37 39 38 31 28 29 24 21
93 94 76 53 40 39 48 47 51 51 55 55 52 56 64 66 60 56 56 58 62 65 66 65 62 59 58 59 64 66 58 56 31 15 26 37 40 41 37 31 29 25 19 19
92 94 78 46 37 36 44 59 65 66 61 64 73 72 70 67 63 63 61 64 65 66 65 62 60 61 61 67 68 59 57 36 16 24 36 40 42 42 35 31 27 20 20 21
82 76 59 52 49 52 51 56 65 67 66 58 76 74 71 71 69 68 67 68 67 67 65 63 63 65 70 70 62 59 43 16 22 31 38 43 45 40 32 29 20 20 28 40
73 60 56 51 51 51 49 51 58 61 64 62 69 73 73 73 73 72 73 73 72 69 67 66 65 70 72 66 60 49 17 20 26 33 40 46 46 36 32 23 21 29 41 57
73 57 55 52 50 53 53 55 58 65 62 63 65 73 70 69 68 66 65 64 64 64 65 67 70 73 66 62 49 17 18 24 28 35 44 48 42 35 28 22 28 49 59 76
72 50 49 51 49 56 56 61 59 58 66 63 54 53 55 57 57 57 59 62 64 66 70 74 76 71 62 49 19 18 22 26 30 39 49 47 37 30 21 24 25 28 33 63
50 45 49 51 58 58 56 60 60 56 54 53 54 47 46 50 55 56 58 62 65 72 78 79 74 64 53 20 18 22 25 27 34 47 50 40 34 26 28 21 24 26 34 44
45 50 67 63 64 60 56 59 54 52 50 45 45 46 44 49 58 60 63 67 71 74 74 75 66 56 22 20 22 25 27 31 44 52 42 36 27 30 31 33 33 33 42 50
53 48 50 58 61 62 58 57 54 54 53 54 52 46 49 55 64 68 72 73 75 75 75 68 61 28 21 22 25 28 31 42 53 45 36 26 31 30 30 33 36 42 45 47
58 57 61 61 64 64 59 57 52 61 57 55 50 54 56 58 64 70 74 77 74 75 71 64 32 23 23 26 29 31 39 54 46 35 22 25 27 29 32 38 45 48 50 59
67 81 73 72 67 66 59 53 48 49 45 43 45 49 53 61 66 71 76 78 74 72 64 34 24 24 26 30 31 38 57 46 34 22 24 27 30 32 40 48 52 55 58 64
51 51 57 56 65 64 60 51 43 40 38 38 39 43 47 50 53 66 71 71 70 63 38 28 28 29 32 33 43 58 45 32 20 21 23 26 31 40 46 52 56 64 66 68
59 58 63 64 64 60 52 46 40 35 33 36 40 47 53 58 62 66 70 72 70 51 35 32 34 34 37 53 59 43 27 20 20 22 26 31 37 44 51 58 67 72 76 79
67 67 68 68 63 50 44 40 35 35 40 44 48 52 59 64 67 70 73 68 50 41 39 38 38 44 62 52 39 23 20 21 22 25 30 39 47 53 60 66 74 77 79 82
75 76 71 63 53 46 38 35 35 40 49 50 48 55 60 68 72 72 69 59 50 42 42 43 58 64 44 33 21 21 21 22 24 29 37 47 54 60 68 73 74 79 82 82
79 73 62 53 45 45 42 40 42 46 54 58 60 60 61 67 71 66 55 48 45 44 55 67 52 39 25 21 21 22 22 24 28 36 45 55 64 71 73 76 80 81 80 81
72 60 52 45 41 46 52 49 48 48 53 56 58 61 63 65 62 53 48 48 57 70 56 43 31 22 20 21 23 23 24 28 36 47 57 65 70 76 79 81 79 77 75 79
58 48 43 47 48 49 49 57 56 57 56 61 63 63 59 55 52 52 60 72 59 45 36 24 22 22 23 24 24 24 30 39 49 58 64 71 76 76 73 72 71 74 82 84
49 46 44 46 47 48 51 59 59 62 62 62 60 57 57 61 68 73 60 47 40 29 23 22 23 24 24 24 25 31 42 52 59 64 71 75 75 72 71 70 71 82 91 92
46 46 47 47 44 49 54 61 58 63 62 61 62 65 72 74 60 48 44 34 26 24 23 24 25 25 24 25 31 42 52 61 64 69 75 78 75 73 74 72 75 90 91 86
50 50 53 56 59 61 63 63 60 64 66 67 69 76 67 52 46 40 31 26 24 25 26 26 26 25 25 31 42 52 61 67 73 76 79 79 79 84 84 78 85 94 96 92

GFSNGP_850_rhum_036.txt.gz
RH
94 85 87 96 100 98 98 86 90 59 55 44 47 46 56 70 97 100 93 88 82 77 73 71 70 67 63 59 53 48 48 50 54 57 61 62 61 55 42 28 19 24 29 28
96 83 96 99 98 100 95 92 79 62 59 40 48 57 60 74 96 99 96 88 80 72 68 67 65 61 56 51 47 47 49 53 56 60 63 62 57 45 29 20 25 31 32 30
92 91 100 100 99 98 95 75 70 79 56 42 55 56 65 75 90 93 93 85 76 69 67 65 60 54 50 47 46 48 51 55 58 62 62 58 48 32 21 26 32 34 34 31
98 99 96 76 79 85 92 70 64 57 57 64 64 66 65 64 81 86 91 84 75 69 66 61 56 53 50 49 48 50 52 55 60 62 59 52 38 24 25 33 36 38 36 31
100 98 86 60 89 90 97 90 76 72 59 58 67 69 69 68 72 75 80 73 68 68 65 62 59 57 55 52 51 51 53 57 61 60 54 42 25 24 33 37 40 40 35 30
94 99 97 58 52 73 72 87 79 75 75 76 68 70 66 66 67 70 72 70 68 70 67 64 62 62 59 55 52 52 55 60 60 53 43 29 23 32 37 40 42 39 34 22
99 97 81 56 55 65 76 51 60 77 76 82 79 76 81 71 68 66 65 66 70 71 69 69 67 65 60 57 54 55 57 59 54 48 34 22 31 36 39 42 42 37 27 17
89 96 80 54 49 54 51 56 59 58 63 69 65 66 77 72 68 68 69 74 72 70 73 72 70 65 60 57 54 55 58 55 51 38 22 30 34 37 42 44 40 30 19 15
84 82 61 58 54 57 58 62 67 71 66 63 64 82 85 81 78 74 71 72 73 71 73 71 67 62 59 55 55 58 58 54 40 22 27 31 34 40 44 43 34 21 17 16
80 64 63 57 55 58 59 68 73 76 71 65 71 78 78 79 78 75 75 74 75 74 72 66 60 58 57 57 60 60 56 43 22 24 28 31 37 43 45 38 23 20 21 26
80 72 64 56 56 59 60 67 74 76 70 67 68 74 75 76 75 75 75 75 73 70 65 59 55 57 60 64 61 57 44 21 23 26 28 33 42 46 42 26 24 27 30 36
76 59 56 55 60 65 63 66 71 66 72 71 68 70 71 72 72 72 71 70 66 62 59 58 60 65 65 61 57 38 19 22 25 26 30 38 47 45 28 22 21 22 28 34
63 53 53 59 68 66 64 66 70 67 68 68 70 68 68 68 68 64 64 62 63 63 64 65 68 69 62 54 33 19 21 24 25 27 36 49 43 26 18 16 19 23 28 32
55 54 65 61 65 68 65 70 70 70 70 69 70 70 69 69 68 67 66 66 65 65 67 69 68 66 53 34 20 21 22 24 27 38 51 43 25 21 23 25 25 22 25 35
60 55 53 59 60 66 66 64 68 70 69 67 63 56 56 59 60 61 63 65 68 71 73 72 65 55 35 22 21 22 25 28 40 53 43 24 20 22 24 26 28 34 37 40
65 59 62 60 66 67 66 62 56 61 57 55 52 53 54 54 58 63 67 71 69 74 72 65 59 43 24 22 24 27 31 43 55 41 22 20 21 23 25 28 37 42 47 55
66 78 75 75 68 68 66 55 48 49 49 49 50 53 54 57 63 68 72 73 72 72 66 63 49 27 25 26 28 33 49 56 36 20 20 21 23 25 31 40 47 51 55 60
57 53 58 59 64 63 60 51 47 47 48 49 51 56 56 59 62 69 70 70 72 68 62 43 29 27 28 31 37 56 53 31 20 19 21 22 25 32 41 48 54 58 60 62
59 57 61 63 62 58 53 50 47 47 50 53 53 56 60 62 64 67 70 70 68 62 44 33 31 33 35 42 61 46 27 20 20 22 23 26 30 39 48 55 60 63 66 62
63 65 64 66 65 56 52 52 50 51 51 49 51 57 61 64 66 66 67 65 57 48 38 36 38 39 53 61 39 23 20 21 22 23 26 31 40 49 55 62 66 65 62 60
68 70 70 68 66 60 54 52 49 51 56 51 43 48 54 62 64 62 64 62 52 44 44 42 45 64 51 33 21 20 21 22 23 26 31 42 50 55 62 67 66 63 62 59
73 74 75 70 64 63 55 49 39 36 39 45 48 50 54 61 65 66 62 56 51 46 45 57 63 42 27 21 21 22 23 24 27 32 43 53 60 65 68 69 65 66 67 68
79 77 73 67 58 50 49 41 37 36 39 47 50 54 56 60 63 59 54 50 48 53 67 50 37 24 22 22 23 23 23 25 33 45 54 60 66 70 73 72 71 77 72 79
79 76 67 57 47 42 41 47 46 46 50 57 59 60 56 57 58 54 51 51 66 58 43 31 24 22 23 24 23 22 24 34 46 54 59 66 71 74 74 76 75 76 76 88
77 68 57 48 41 40 43 54 53 57 58 60 62 62 59 54 52 55 65 64 47 38 29 24 23 24 24 23 21 25 34 46 54 57 65 69 70 73 77 78 81 77 82 95
68 56 50 51 48 44 47 53 46 54 54 55 57 55 55 61 67 66 51 43 35 28 24 24 25 25 23 21 23 31 44 54 58 63 66 69 72 76 78 82 83 76 86 90
58 59 62 52 50 47 46 48 43 50 54 52 51 59 69 66 54 47 40 34 28 25 25 26 26 24 22 22 27 40 51 58 65 66 65 68 73 78 82 84 85 77 87 91

GFSNGP_850_rhum_039.txt.gz
RH
78 76 82 96 97 96 98 88 94 59 67 54 43 57 52 51 79 95 98 94 94 94 97 99 99 95 86 78 66 54 48 47 49 53 57 60 60 57 50 42 31 24 29 31
96 82 82 99 95 100 97 88 94 80 76 54 44 56 62 65 79 89 98 92 89 92 91 91 90 83 73 64 57 51 48 49 53 56 59 60 58 52 41 31 26 30 33 34
95 78 84 94 97 99 96 88 80 94 69 55 54 50 56 69 78 92 97 89 85 88 86 84 81 76 67 60 53 48 49 52 56 59 60 59 53 44 34 27 30 34 37 38
96 93 93 65 83 87 96 84 78 69 59 54 60 62 66 68 78 98 93 87 81 80 77 74 70 65 60 52 48 48 51 55 58 60 60 55 47 37 28 30 34 38 39 38
100 98 78 59 64 88 95 82 80 70 63 57 62 68 69 74 80 86 89 82 77 72 69 66 62 57 52 47 47 50 53 56 58 58 56 49 39 32 29 34 38 40 39 36
99 99 97 65 62 72 78 86 74 69 68 73 76 81 78 83 82 87 86 76 72 70 67 62 56 51 47 46 49 52 54 56 58 56 50 43 34 28 34 37 39 40 39 29
96 99 86 61 63 73 75 73 63 74 73 78 85 83 84 85 87 85 80 75 73 69 64 59 53 50 49 50 50 52 54 57 57 53 47 42 27 32 35 38 41 41 35 20
89 96 92 56 54 57 51 58 60 62 76 79 79 77 77 81 86 88 84 83 75 69 65 59 55 53 53 51 51 53 56 58 56 54 41 26 30 32 37 41 43 37 22 15
78 77 60 61 59 54 62 68 66 66 61 62 77 83 72 77 78 81 81 80 77 71 66 61 58 57 56 54 54 55 57 58 54 41 25 28 30 34 40 44 38 23 17 15
81 64 75 58 55 61 63 69 74 77 73 66 61 72 80 88 85 85 84 82 79 74 68 62 58 56 58 56 54 58 59 55 42 24 26 28 31 38 45 40 24 18 17 19
82 72 66 61 62 63 70 79 74 75 71 66 63 77 78 80 83 83 82 81 78 74 69 62 56 56 55 56 59 60 55 41 22 24 26 30 38 46 42 25 20 20 22 24
76 60 60 58 60 66 69 74 72 66 71 73 69 74 76 80 80 79 78 78 74 69 63 56 54 57 59 60 57 56 38 21 23 26 29 37 47 44 25 18 18 20 22 27
65 56 56 66 66 67 69 71 70 68 71 73 76 75 76 76 76 76 75 71 66 60 58 56 60 66 62 58 47 30 20 23 26 29 37 48 45 23 16 16 18 19 23 30
58 56 66 67 66 65 70 78 67 68 72 71 73 73 72 72 71 68 64 61 59 60 62 66 67 66 57 44 26 21 24 26 29 36 50 42 21 18 19 20 20 19 23 34
60 58 59 59 68 66 74 71 73 72 71 70 68 68 66 64 62 61 62 64 65 66 67 68 68 57 38 24 23 24 25 28 39 53 39 20 18 20 21 23 26 31 34 36
67 66 68 68 75 73 73 77 69 73 71 70 67 66 65 64 64 62 64 66 66 69 69 63 53 38 26 24 25 26 30 42 55 34 19 19 20 21 23 27 33 38 45 53
70 86 80 76 75 71 72 73 62 66 63 60 59 59 58 59 63 67 70 71 72 68 60 55 45 28 25 26 28 32 49 54 28 18 19 20 21 25 30 36 43 48 54 56
62 61 63 61 66 71 71 69 57 54 53 54 54 56 57 59 65 72 72 71 68 62 56 44 31 27 28 31 38 57 46 25 18 19 21 22 25 30 36 44 52 57 58 54
60 58 63 67 68 66 62 58 52 51 52 53 55 57 58 61 65 66 68 69 66 60 48 35 31 33 36 45 59 38 22 19 20 22 22 24 26 36 44 52 59 62 60 58
63 67 68 69 69 58 55 54 51 51 53 53 55 59 63 65 65 65 67 66 57 49 39 36 39 40 56 55 33 21 20 21 22 22 23 27 37 44 53 62 66 64 62 66
66 68 69 67 64 58 50 48 47 49 54 51 47 54 56 63 64 61 62 56 52 43 42 42 45 63 44 28 21 21 22 22 22 22 28 38 45 53 61 66 69 68 70 69
70 71 72 67 60 57 54 53 48 44 45 50 52 51 54 61 62 62 61 52 49 46 45 53 60 39 25 21 22 23 22 20 21 29 40 48 56 62 66 71 72 73 72 72
76 76 74 68 61 59 62 55 44 36 39 44 46 50 52 56 60 57 51 52 48 48 63 51 35 24 22 23 23 22 19 20 28 40 48 56 63 67 72 76 77 78 76 71
82 80 73 69 62 55 52 51 43 46 42 47 52 55 53 56 58 56 50 48 58 62 44 32 25 23 24 24 22 18 19 26 38 47 56 62 65 70 75 78 78 80 73 75
84 79 72 64 54 47 42 43 47 52 52 56 60 62 60 57 49 50 54 64 50 40 31 25 23 24 24 22 19 19 24 36 46 51 59 64 66 70 75 80 81 81 73 79
82 74 64 54 42 41 41 46 46 53 51 55 60 60 55 53 55 64 57 45 37 30 25 24 25 24 23 20 19 21 32 44 52 60 64 66 68 72 75 78 78 79 72 77
76 64 55 49 46 47 44 46 43 50 52 51 50 54 59 65 61 49 42 36 30 26 25 26 25 24 22 20 20 27 42 53 61 64 65 68 71 72 75 75 76 76 68 75

GFSNGP_850_rhum_042.txt.gz
RH
76 65 61 72 83 94 99 94 95 59 52 41 37 39 36 36 44 65 83 87 88 87 88 84 88 96 95 92 88 87 74 53 46 47 51 55 56 56 54 48 41 32 28 30
95 60 64 91 80 94 96 96 97 92 80 46 42 42 41 48 57 75 86 90 86 84 80 74 92 97 92 87 77 64 50 46 47 51 55 57 56 54 48 41 34 29 31 34
91 63 67 82 84 96 94 88 80 97 64 47 48 53 50 56 61 64 88 87 83 78 73 86 94 93 85 75 61 49 48 48 52 55 57 56 54 48 42 36 31 31 34 36
97 77 77 60 67 80 93 86 75 65 57 52 49 50 62 88 80 82 92 82 79 76 82 89 89 86 81 61 51 48 49 52 55 56 57 54 49 42 37 32 31 34 37 37
96 86 56 56 56 68 93 81 66 72 61 55 54 63 93 97 92 87 83 78 82 90 90 82 82 69 56 49 48 49 52 54 56 57 56 51 45 38 34 31 34 37 38 38
90 91 75 55 55 67 69 96 60 68 64 60 64 64 76 99 97 90 80 76 79 78 74 70 61 56 53 48 49 51 54 56 56 55 52 46 40 42 31 34 36 38 39 36
90 95 66 46 50 70 75 88 66 74 73 71 67 80 94 100 95 90 80 78 76 72 69 65 58 53 49 48 50 52 55 56 56 52 48 55 33 30 32 35 37 40 38 25
96 100 87 50 50 56 50 59 66 76 73 83 84 92 96 97 93 89 83 75 70 66 62 59 57 49 47 48 51 53 55 57 55 50 42 34 29 30 32 36 41 40 26 16
59 58 45 56 56 60 64 65 67 73 74 84 84 87 91 92 91 87 81 83 85 71 67 51 46 46 49 51 52 54 56 55 50 46 35 27 29 31 36 42 41 24 16 17
67 49 55 56 62 60 65 76 81 79 77 86 86 83 84 87 88 87 82 76 68 63 54 50 48 50 53 52 54 55 55 51 48 35 26 28 29 33 42 42 24 18 32 44
62 52 50 56 68 67 67 74 75 77 76 74 74 81 88 90 86 85 81 75 68 61 56 53 50 51 54 54 54 55 54 50 34 25 26 28 32 43 42 24 18 19 23 22
51 52 54 57 70 68 71 73 73 72 73 77 76 82 82 83 83 83 81 76 68 62 58 53 52 54 53 54 56 58 52 30 24 26 27 31 44 42 22 18 18 19 18 22
54 60 62 69 72 70 69 69 71 71 77 79 81 81 80 80 80 81 78 73 66 61 56 54 54 56 56 56 52 40 24 22 24 26 32 48 38 20 17 19 18 16 19 23
58 62 65 67 73 74 67 75 81 70 76 77 78 78 78 77 78 77 72 66 60 57 56 56 60 62 58 50 34 23 22 23 26 37 50 33 19 18 18 18 16 15 18 31
62 62 62 63 69 77 71 76 73 71 73 74 76 76 76 75 73 67 62 59 57 58 60 64 65 59 45 30 22 22 24 29 44 50 30 18 18 19 19 19 20 26 34 40
73 69 68 68 78 84 69 74 79 82 78 73 73 71 69 67 62 59 58 60 63 65 66 65 57 44 29 23 24 26 33 51 48 26 18 19 20 19 19 20 28 40 51 57
73 86 84 83 86 86 81 82 75 68 68 67 65 63 62 63 63 63 64 64 67 67 61 53 44 28 24 26 30 37 54 44 23 18 19 20 19 19 22 33 43 48 51 52
66 76 73 65 71 80 83 78 70 68 66 64 63 63 62 61 62 65 67 68 66 58 51 42 30 27 29 33 43 56 36 22 19 20 20 19 19 24 36 43 49 54 54 52
62 58 65 66 73 75 76 74 68 62 58 56 56 57 57 61 65 68 70 66 60 55 44 33 31 34 37 50 54 31 20 20 21 21 19 18 25 37 44 50 54 58 60 60
62 61 68 70 70 69 73 68 58 54 54 53 52 56 62 65 66 67 67 63 56 47 37 35 38 41 58 46 28 21 20 22 21 18 18 26 36 43 49 55 59 62 64 66
67 69 72 72 70 68 64 55 49 49 52 53 54 57 61 64 64 64 64 56 49 40 40 42 45 61 40 26 21 21 22 21 18 19 27 36 42 49 55 59 63 68 69 70
74 76 77 75 71 66 60 54 50 49 52 55 57 56 58 62 63 62 57 48 46 44 44 51 58 38 26 22 22 23 21 18 19 27 37 44 51 56 60 63 67 72 73 75
79 80 77 73 65 60 57 54 52 49 53 56 53 54 56 57 59 57 50 50 47 46 58 51 35 26 22 23 23 21 18 19 25 35 43 51 58 61 63 67 73 77 78 77
84 86 79 71 64 59 60 62 57 56 54 52 48 52 51 53 58 55 49 48 48 62 46 34 27 23 24 24 22 19 18 22 32 42 49 56 60 64 67 72 76 79 80 76
85 83 77 70 65 62 58 55 52 55 53 53 55 56 55 54 46 47 48 56 58 43 34 27 24 24 24 23 21 19 20 27 39 47 53 60 64 67 70 74 77 79 77 75
88 84 78 71 63 59 54 52 49 50 53 55 58 60 58 53 49 51 61 50 40 34 27 24 25 25 24 22 20 19 23 35 43 52 60 64 67 70 71 73 75 75 75 68
90 83 77 71 61 50 44 46 45 49 55 54 52 58 52 52 60 56 46 38 33 28 25 26 26 26 23 20 20 22 32 44 54 60 63 66 68 69 71 74 77 75 69 64

GFSNGP_850_rhum_045.txt.gz
RH
68 58 56 62 68 68 96 96 97 68 70 56 53 48 40 38 36 34 49 72 78 77 77 82 82 75 69 66 65 80 81 77 75 73 56 49 50 52 52 52 49 45 38 30
92 62 57 68 54 55 73 95 93 95 93 62 48 40 48 45 39 57 64 84 86 82 84 76 71 67 63 65 70 77 80 76 59 50 48 51 53 54 52 48 45 41 32 29
78 55 51 76 69 75 92 90 93 90 58 45 48 61 79 76 80 71 74 89 83 82 72 69 73 68 64 72 81 77 70 58 56 50 52 53 54 52 48 47 43 34 30 32
77 56 75 42 48 60 74 80 69 72 62 56 54 55 86 94 92 82 85 82 79 74 69 72 72 66 68 76 71 64 55 57 52 53 54 54 53 49 47 44 35 30 33 35
78 65 49 40 49 57 80 86 67 70 59 54 55 86 92 100 86 84 78 76 73 69 71 71 75 76 67 58 54 61 56 57 54 54 55 53 50 46 54 48 30 32 34 36
74 84 73 49 49 58 65 97 58 77 74 65 59 94 96 96 79 77 77 78 75 77 81 79 80 76 77 66 75 80 69 54 54 54 55 51 47 86 45 30 32 33 35 38
84 85 55 36 44 67 65 81 61 80 79 70 68 81 98 99 78 73 82 91 91 89 95 96 90 83 73 61 52 52 54 54 55 54 50 67 82 35 29 30 32 34 39 32
98 98 81 42 47 60 52 64 62 85 77 80 81 90 95 86 78 71 66 63 58 55 53 51 50 50 50 51 52 54 55 56 56 69 94 53 35 28 29 30 35 40 34 22
63 55 36 46 49 51 58 58 61 70 85 88 88 96 94 86 87 78 68 62 59 59 56 52 51 59 59 56 55 55 61 74 76 61 45 35 27 28 29 34 41 32 22 28
53 41 43 44 49 61 71 68 74 76 77 97 86 91 87 84 80 83 84 90 87 82 80 76 67 54 52 53 58 69 61 54 51 47 34 26 26 28 36 43 29 19 23 26
51 44 44 54 62 68 74 74 73 77 81 84 88 87 89 93 80 75 76 68 59 58 55 49 48 51 53 54 54 55 56 54 48 32 24 25 27 38 43 29 18 18 18 17
48 49 50 53 69 73 73 75 74 76 78 80 84 89 86 78 77 74 67 61 58 54 49 51 52 54 53 53 54 57 56 46 29 24 25 30 41 43 28 18 18 18 17 19
48 58 61 67 68 74 74 73 75 75 77 77 77 77 77 74 74 73 68 63 58 53 59 52 53 54 52 54 55 54 43 25 23 25 30 44 42 22 18 21 22 25 27 22
60 63 63 70 68 72 71 72 76 76 75 74 75 75 75 76 74 70 66 61 57 57 57 55 53 54 55 56 47 31 22 23 25 33 46 39 20 18 19 20 20 22 34 42
61 63 64 65 68 74 77 72 74 74 77 76 77 78 77 74 71 66 62 58 56 56 54 54 57 58 51 40 27 22 23 27 38 48 32 19 19 20 19 19 19 29 36 39
72 76 70 68 72 78 78 72 76 77 78 78 77 76 74 71 67 63 58 56 57 56 57 61 60 51 37 25 23 24 29 44 47 26 19 20 20 19 18 19 29 37 43 54
78 90 86 79 82 74 80 76 81 82 80 76 74 72 70 66 62 58 56 56 61 64 63 60 49 33 24 24 27 34 50 41 24 19 20 20 18 17 20 29 35 39 49 58
71 70 67 69 77 82 85 90 75 73 72 72 70 67 63 60 60 60 62 64 65 62 51 42 31 26 26 31 41 52 35 23 20 21 20 18 17 20 29 36 44 55 58 57
69 78 90 72 80 84 85 77 70 68 67 65 63 62 62 62 62 63 65 64 58 51 43 33 28 30 36 47 51 32 22 20 22 21 18 16 20 30 38 46 52 56 61 63
71 67 71 73 79 78 82 72 66 64 63 62 62 61 60 62 64 65 64 58 52 47 40 32 35 39 53 47 30 23 21 22 21 18 16 20 29 37 44 53 59 61 64 66
70 71 74 76 78 78 79 70 64 60 58 59 56 56 58 63 65 64 62 56 51 41 36 39 42 57 43 29 23 22 23 21 19 18 21 29 36 44 52 56 59 62 67 68
75 79 82 81 79 80 79 69 60 53 52 54 54 55 58 62 64 63 59 49 45 40 42 44 58 41 29 23 22 23 22 19 18 20 27 36 44 50 55 60 63 68 71 72
79 82 85 84 80 78 75 63 55 49 47 50 52 54 57 56 57 56 51 46 44 44 46 58 40 30 24 23 24 23 20 18 19 25 34 42 51 58 62 64 68 72 73 73
83 84 84 82 78 73 65 59 55 53 51 55 57 54 53 52 55 54 47 47 45 50 57 40 30 24 24 24 24 22 18 18 23 32 40 49 58 62 65 69 70 72 73 74
86 84 83 80 74 67 58 54 54 54 56 59 58 58 57 53 48 49 47 46 54 53 39 31 25 24 25 25 24 19 18 21 29 40 49 56 61 64 69 71 69 71 72 73
91 88 85 79 70 63 57 55 52 55 54 53 57 58 55 54 50 47 46 56 48 38 32 26 25 26 27 25 20 18 20 28 40 48 54 58 62 66 68 68 72 77 73 66
95 91 86 78 71 63 59 55 51 50 48 50 52 56 56 52 47 48 55 45 37 32 27 26 27 28 26 20 18 19 26 39 48 52 56 60 64 65 69 75 77 72 63 59

GFSNGP_850_rhum_048.txt.gz
RH
76 66 60 67 73 76 88 84 95 67 69 63 70 65 60 61 70 62 50 55 73 70 71 77 94 86 83 78 75 73 71 75 74 70 67 63 63 63 68 56 49 45 48 44
92 65 62 77 67 66 66 70 95 94 95 74 58 46 54 65 67 81 73 73 74 78 79 88 85 78 75 73 70 68 70 64 60 59 62 67 66 56 50 52 51 50 47 36
86 63 60 76 65 63 83 85 90 97 78 63 67 57 81 88 89 87 80 74 79 87 86 78 72 71 70 63 58 60 58 56 59 63 58 52 53 54 50 49 51 49 39 30
95 72 89 48 54 62 73 77 76 80 67 61 61 82 97 96 93 85 82 83 91 86 80 78 71 68 60 56 58 56 59 54 53 53 60 55 49 49 50 54 54 38 30 30
85 66 58 52 55 57 70 84 76 79 80 70 75 85 93 86 79 82 79 80 79 74 70 64 59 58 58 62 61 60 52 57 66 70 58 48 48 54 56 61 44 36 31 32
95 91 81 49 54 54 70 98 68 85 83 76 74 92 98 82 78 74 73 74 71 66 64 63 68 68 72 70 76 75 79 80 76 76 70 64 52 72 73 55 30 30 31 36
95 93 70 41 61 69 92 79 64 84 88 76 90 94 93 84 92 94 86 77 73 74 74 82 79 83 78 81 81 87 90 90 93 72 47 63 93 81 51 28 28 30 36 36
92 96 92 44 51 66 61 58 66 76 81 82 89 90 80 70 81 84 92 100 98 99 100 99 99 98 99 100 99 94 72 52 47 55 92 97 57 30 27 27 30 38 36 23
78 72 45 45 48 51 55 60 61 66 75 87 94 92 84 70 64 63 62 62 65 67 67 73 85 80 65 54 51 50 58 80 91 97 58 39 28 25 26 31 40 33 20 20
68 52 52 52 52 60 63 68 70 69 76 98 94 96 94 93 76 72 59 56 52 51 51 50 51 54 64 76 78 75 76 74 61 49 37 26 25 27 32 41 31 18 18 18
63 55 51 57 60 66 66 68 70 71 79 99 86 87 81 91 88 91 89 86 88 88 87 82 74 63 56 60 67 71 60 54 51 36 25 23 26 34 42 28 19 19 19 16
65 54 54 64 66 68 69 69 70 74 81 89 89 86 88 88 80 70 59 64 73 70 52 51 52 54 57 58 55 57 59 51 34 23 22 24 35 42 26 20 20 19 17 13
57 56 60 64 65 69 67 69 71 76 80 83 90 89 88 79 69 65 65 67 58 49 49 52 55 55 53 54 56 58 55 34 22 21 25 38 41 22 19 20 20 20 18 28
55 59 65 65 69 66 66 70 70 73 76 77 78 78 80 73 67 66 75 61 50 57 60 55 54 54 54 57 59 49 30 21 22 28 44 37 21 19 20 18 15 16 29 39
59 60 60 63 66 69 77 77 74 74 74 74 75 75 75 72 69 66 60 58 66 62 55 54 54 55 56 55 44 28 20 23 34 46 31 20 20 20 18 17 19 27 32 35
66 65 69 69 71 73 73 79 73 75 75 75 75 74 74 70 67 60 62 61 58 56 53 54 58 59 52 38 24 22 27 41 45 26 20 20 20 18 16 18 25 32 38 46
75 83 82 79 77 81 76 73 73 77 76 75 74 73 73 67 62 57 56 57 55 55 56 61 63 49 34 23 24 31 47 40 24 20 21 20 18 16 19 27 33 38 45 51
75 74 72 74 76 74 79 79 80 78 75 75 73 72 67 64 60 56 54 55 58 62 61 56 43 30 24 28 37 50 34 24 21 22 21 18 16 20 28 34 41 47 50 52
79 71 74 76 81 86 85 91 86 77 74 73 71 65 64 62 59 58 59 63 64 60 48 39 29 27 33 42 50 31 23 21 22 21 18 17 22 29 35 41 48 54 59 62
74 70 92 84 89 85 92 87 77 74 73 70 67 64 60 60 62 63 64 62 55 46 42 32 30 36 46 47 30 24 22 23 22 19 17 20 26 32 41 51 58 60 63 67
75 72 75 80 86 89 86 75 70 69 67 65 63 62 62 62 62 62 61 53 48 42 34 34 38 48 44 30 24 22 23 23 20 18 19 24 31 41 50 57 61 65 67 71
79 77 79 81 84 86 84 72 67 63 61 61 61 58 56 59 63 62 57 47 45 40 37 40 50 44 31 25 23 24 24 21 18 18 23 32 40 49 56 60 63 66 69 70
86 85 84 83 82 82 81 73 69 61 57 58 55 54 55 55 58 55 51 47 42 40 42 50 45 32 26 23 24 25 23 17 18 21 30 38 48 54 59 60 62 66 66 68
89 87 87 86 84 82 78 72 66 59 55 55 54 53 52 52 56 56 48 44 42 42 49 47 34 27 24 25 26 24 18 17 20 27 38 48 53 56 58 58 59 64 70 71
92 90 88 85 82 80 77 70 61 58 56 57 60 60 58 53 43 47 45 45 44 48 48 35 28 25 26 27 26 19 17 18 25 35 44 49 52 54 54 58 68 76 70 65
95 93 91 88 83 78 73 66 59 58 55 58 59 59 58 54 49 47 44 45 48 48 36 30 26 26 28 27 20 17 18 24 33 42 47 51 51 52 54 66 73 72 63 56
97 96 93 88 84 78 70 62 58 57 57 55 50 55 55 51 48 47 45 48 47 37 31 27 27 28 28 21 16 17 22 31 39 44 47 50 51 54 62 69 67 59 54 52

GFSNGP_850_rhum_051.txt.gz
RH
80 76 74 76 79 76 84 71 90 61 62 54 53 66 67 68 63 65 70 75 79 73 68 73 63 82 79 77 78 83 90 91 86 91 88 90 86 78 74 73 54 57 64 76
93 72 75 83 72 73 73 70 67 66 74 63 64 65 62 88 90 88 88 84 84 80 75 85 86 85 89 87 86 90 88 82 83 79 81 76 65 66 63 58 65 71 67 71
94 66 69 85 73 73 72 75 67 91 76 70 74 73 92 97 96 90 86 95 83 81 82 82 83 79 78 76 78 81 77 71 69 67 64 54 63 76 59 62 65 54 51 38
98 82 88 54 51 59 70 72 77 76 74 73 75 91 96 79 83 82 94 94 88 79 74 74 76 77 75 81 74 70 61 57 54 54 68 86 73 66 68 71 78 59 35 50
89 89 65 55 61 60 74 79 73 78 69 78 78 90 98 79 76 77 83 82 84 85 85 80 73 67 68 66 60 58 61 62 79 96 69 68 65 66 53 54 66 64 38 31
95 94 88 58 54 58 72 94 73 75 83 82 86 93 98 97 85 74 76 74 72 71 70 68 64 68 65 67 70 81 78 94 77 80 77 61 62 92 95 67 54 38 30 32
83 96 76 53 58 70 85 74 66 77 92 85 94 95 92 100 97 79 73 71 68 65 66 67 69 66 71 86 97 97 96 98 99 100 100 100 98 91 82 44 28 29 34 34
88 97 92 45 70 70 60 57 64 74 81 89 88 77 80 94 100 98 92 95 96 90 86 94 96 93 99 100 100 100 99 100 100 97 93 88 87 43 29 28 30 36 33 23
80 74 48 43 51 56 60 63 66 68 80 84 89 76 72 80 88 97 99 100 100 98 99 100 99 100 100 100 100 99 92 56 66 98 90 39 30 26 26 32 38 29 20 19
74 59 58 50 57 59 61 64 66 67 78 92 91 82 68 67 72 77 90 97 95 90 96 99 100 100 98 86 56 56 84 97 89 45 36 27 24 25 36 38 24 19 19 18
68 61 60 61 62 62 61 65 68 67 74 98 97 93 72 64 63 62 64 68 77 80 83 82 80 88 90 92 97 97 89 54 45 36 25 24 29 39 37 23 20 20 17 14
75 56 59 61 61 60 63 64 68 74 85 99 94 91 95 96 87 70 63 60 63 69 65 65 77 93 88 76 68 60 53 46 32 24 25 33 43 32 22 20 20 17 14 13
57 54 56 59 61 60 61 63 67 76 83 94 92 89 93 80 82 83 84 85 83 79 78 78 62 57 52 50 51 54 49 29 24 27 36 44 30 21 20 20 18 16 17 27
56 58 65 63 60 61 63 64 68 73 81 86 93 91 87 92 68 72 76 74 59 53 53 51 51 49 50 53 54 42 26 24 27 38 43 27 21 20 20 17 15 16 24 29
61 61 58 59 65 65 69 71 72 74 78 78 81 85 90 75 85 78 69 55 51 56 52 51 52 53 54 50 38 24 22 27 39 40 25 21 21 20 18 16 18 24 27 34
68 66 68 68 69 71 76 74 71 73 74 74 75 75 75 79 70 73 57 54 58 56 53 52 56 56 48 37 25 22 28 42 36 24 21 21 20 18 16 19 24 30 38 45
74 78 79 77 75 74 72 76 74 74 74 75 74 73 72 68 64 60 61 69 59 55 53 56 61 52 39 25 24 32 44 32 24 21 22 20 18 17 19 23 29 36 45 52
83 79 76 76 76 78 80 74 74 75 75 76 79 75 70 66 63 67 66 57 54 54 56 58 53 38 25 26 36 44 30 24 22 22 21 19 17 18 23 31 40 46 49 53
84 81 75 76 79 79 77 81 78 79 76 85 75 73 69 62 60 59 57 55 56 60 58 47 34 26 29 38 44 30 24 22 23 22 20 16 18 24 32 40 46 53 56 57
80 78 86 86 82 86 91 90 91 77 78 75 74 71 66 61 59 58 56 58 62 58 49 36 28 32 38 45 31 24 23 24 23 20 16 17 23 30 40 48 52 53 57 62
82 86 97 87 89 87 89 92 84 75 73 74 73 71 65 61 59 59 62 62 54 44 37 31 34 39 46 32 25 23 24 24 21 15 16 21 29 38 45 49 53 59 63 64
88 85 84 84 85 88 92 89 79 73 73 71 68 65 62 61 62 63 61 53 46 41 33 35 40 48 33 26 23 24 25 22 15 16 20 28 36 41 46 50 57 60 61 62
88 86 86 86 85 87 88 82 74 70 68 66 63 61 60 59 60 59 55 50 44 39 37 40 49 36 28 24 25 26 24 16 15 18 27 34 39 44 48 52 57 57 59 58
91 88 88 88 86 85 84 84 87 76 64 62 62 61 57 54 59 58 51 45 42 39 41 48 40 30 25 25 26 26 17 15 16 24 33 37 43 46 50 53 57 59 62 61
95 93 91 88 86 84 81 80 80 75 64 62 61 59 58 56 50 51 50 43 41 42 45 46 32 26 25 27 27 20 15 15 20 28 35 40 44 46 49 54 58 56 55 54
95 95 92 89 86 83 81 77 72 68 64 62 60 60 61 59 56 51 47 43 43 44 49 35 28 26 27 28 23 15 15 18 27 35 40 44 44 47 50 57 60 54 51 50
98 96 97 93 88 85 81 78 72 66 63 59 54 60 60 57 54 50 45 44 44 50 38 31 26 27 28 26 16 15 18 27 34 39 42 44 45 48 56 57 51 45 45 46

GFSNGP_850_rhum_054.txt.gz
RH
82 76 74 73 76 80 87 72 87 64 68 52 44 45 56 69 83 86 88 88 89 81 79 85 86 70 68 76 84 93 98 94 98 98 97 93 90 98 96 84 78 77 79 59
89 74 80 89 80 79 76 71 70 67 68 45 44 68 74 92 91 90 83 84 92 89 90 91 88 84 82 82 87 97 96 96 95 92 90 90 91 90 84 72 66 65 77 93
92 71 72 90 80 77 73 72 64 78 59 51 70 73 91 85 84 82 85 94 96 85 89 86 82 80 84 88 90 89 86 83 88 85 88 89 87 78 79 81 87 91 96 82
97 83 93 56 59 62 68 62 63 62 68 68 72 91 85 87 78 76 88 81 80 77 76 76 76 77 83 88 89 93 87 87 78 82 84 78 77 86 94 91 96 86 88 92
86 99 71 56 63 67 77 72 70 73 70 69 80 94 95 95 80 76 77 87 80 72 74 78 82 86 86 91 93 95 80 68 61 71 73 84 99 99 95 97 98 96 98 64
94 97 85 59 55 62 68 93 71 73 74 87 86 94 94 93 88 75 73 76 84 84 75 74 74 72 75 75 71 66 62 62 83 99 100 100 97 99 98 100 100 92 41 36
91 87 82 55 51 68 83 70 62 68 79 82 92 90 83 98 91 80 76 72 70 69 71 73 74 76 69 76 88 100 100 100 100 100 97 99 100 100 100 84 38 38 37 35
90 96 93 48 74 72 61 60 64 74 81 87 86 81 87 97 99 95 89 89 82 72 74 82 76 76 99 100 99 99 100 100 98 100 100 100 100 64 36 39 40 39 34 24
79 75 50 47 49 51 60 65 66 72 79 85 82 78 83 95 98 96 99 98 98 98 99 99 99 100 99 100 99 99 99 100 100 100 92 50 36 33 33 36 38 29 20 20
73 62 63 51 48 52 58 63 66 69 78 88 82 78 75 89 93 92 91 95 98 98 98 100 100 100 99 99 100 100 100 99 92 47 36 33 31 32 38 37 24 20 20 18
78 62 54 60 60 59 61 64 65 68 78 90 86 80 76 81 89 88 87 88 92 96 98 98 99 98 90 83 86 96 98 64 42 36 32 30 33 40 34 23 20 19 18 16
82 57 56 56 57 59 60 61 64 71 83 99 94 85 72 77 77 80 86 89 91 94 97 98 94 94 96 96 98 93 52 43 35 28 28 32 40 32 22 20 20 18 16 21
64 58 58 59 57 57 56 59 62 71 87 96 98 94 76 80 73 68 67 75 80 79 83 90 94 92 88 83 66 53 51 37 25 24 31 41 26 21 21 21 20 20 23 29
68 63 64 58 56 58 59 60 65 74 90 96 94 95 92 92 88 73 75 66 72 74 77 86 83 67 56 52 52 50 34 24 25 38 39 24 21 21 20 19 17 18 23 27
69 68 65 63 62 64 64 66 71 75 83 96 96 91 94 95 91 90 89 74 74 78 80 69 55 52 52 54 50 32 24 28 42 34 23 21 21 20 19 18 18 21 27 35
77 70 67 67 68 68 69 71 74 76 81 87 90 90 88 89 94 87 82 85 73 64 56 54 52 55 54 43 30 24 32 43 31 23 22 22 20 19 17 17 22 29 35 40
89 82 76 74 73 73 72 74 74 72 74 76 79 83 84 88 93 81 67 57 66 59 54 52 56 53 39 28 26 33 44 30 23 22 22 21 19 16 17 24 29 35 41 48
89 82 86 82 78 76 75 72 75 74 73 74 74 78 84 92 84 69 61 56 56 54 52 54 54 42 29 27 36 44 30 24 22 22 22 19 15 18 24 29 35 40 45 52
90 87 84 84 79 78 77 77 76 75 78 75 82 87 89 86 70 61 64 60 54 53 54 55 44 30 27 36 45 31 25 22 23 23 19 14 18 23 29 35 42 50 51 52
86 83 84 83 77 78 80 78 82 85 83 87 90 80 72 65 63 72 65 55 54 56 60 50 33 28 35 44 33 26 23 23 23 20 14 16 21 28 35 41 46 49 51 54
92 95 100 99 87 83 85 93 95 88 86 86 77 73 67 64 65 61 57 55 56 59 52 36 29 34 43 37 27 23 24 24 22 14 15 19 27 33 38 42 46 47 50 52
92 90 94 93 93 96 94 100 100 79 77 75 74 71 65 62 60 58 57 59 62 53 41 32 34 42 42 29 24 24 25 24 14 14 17 24 29 35 39 43 44 46 50 52
92 90 91 93 92 93 94 96 92 81 73 74 72 69 66 64 61 59 61 62 55 43 35 34 40 46 32 26 24 25 25 18 14 15 20 27 31 36 39 42 44 48 50 48
93 90 89 88 87 87 88 91 93 91 87 75 72 68 64 62 61 61 60 55 47 41 36 39 46 38 29 24 25 26 23 14 14 17 25 30 34 37 40 41 44 49 51 49
95 93 91 90 88 86 85 84 84 92 93 72 68 65 62 61 58 58 58 52 46 40 38 42 47 33 26 25 26 26 16 14 15 22 29 33 36 39 41 42 47 48 48 44
98 97 94 90 87 85 83 82 81 86 88 77 66 64 63 62 60 58 56 50 45 40 42 47 39 29 25 26 27 22 13 14 19 26 32 36 38 40 42 46 49 47 45 42
89 93 96 96 93 88 84 82 80 78 81 78 80 64 64 61 59 58 56 48 43 42 45 46 33 27 26 27 26 15 13 17 25 30 34 36 39 41 45 47 45 42 42 43

GFSNGP_850_rhum_057.txt.gz
RH
75 74 74 76 76 88 84 79 85 70 72 55 46 46 43 72 83 83 85 80 86 92 85 85 87 82 79 65 73 85 98 100 100 100 100 100 100 100 100 100 100 98 88 66
88 73 80 88 80 77 83 77 78 71 72 48 44 44 65 86 82 82 78 82 97 93 86 90 88 87 84 79 81 84 98 100 100 100 100 100 99 99 95 93 83 69 71 74
94 74 75 87 83 81 75 74 66 79 58 45 56 69 82 83 83 76 79 80 84 87 85 86 84 81 81 85 86 88 92 95 92 91 92 85 83 79 73 72 75 83 84 84
95 85 94 59 55 64 70 62 63 54 51 52 66 79 86 89 83 76 74 85 86 80 79 79 81 81 86 92 92 92 87 85 83 82 89 90 82 84 84 93 92 95 100 100
94 96 75 58 72 73 74 71 62 58 55 67 78 90 94 99 87 76 75 86 81 79 80 82 88 91 92 95 100 100 92 96 98 96 93 93 94 96 100 100 100 100 100 99
94 94 88 54 61 63 64 83 62 68 69 78 84 96 95 99 86 76 74 80 86 84 84 88 88 91 92 96 96 98 96 79 80 86 96 100 100 100 99 100 100 97 90 44
83 85 75 58 50 68 74 68 60 65 72 81 87 88 95 94 86 79 76 75 78 77 76 77 78 82 72 70 70 70 75 80 93 100 100 100 99 100 100 99 83 37 39 37
97 97 91 48 70 73 59 60 64 67 75 79 83 83 94 92 92 88 88 82 75 73 76 80 78 75 92 97 96 97 99 99 100 100 100 100 99 90 42 35 36 38 37 28
77 76 51 47 56 44 51 60 64 67 72 79 82 83 90 91 94 96 95 95 90 81 92 85 95 100 99 100 100 100 100 100 99 100 96 53 33 30 31 37 39 31 23 22
75 62 61 52 54 56 60 60 62 64 69 82 81 80 85 89 91 94 92 93 94 95 98 99 100 100 98 100 100 100 99 100 90 43 32 32 32 37 42 36 25 21 21 20
70 69 56 54 54 56 58 61 62 64 68 83 84 82 80 86 86 90 92 89 93 94 99 99 100 100 100 99 99 99 86 48 38 33 32 30 33 39 34 24 21 20 19 18
84 62 65 61 58 60 59 58 60 63 70 84 88 85 82 88 83 83 86 92 97 98 99 99 99 94 90 92 97 79 48 40 32 28 28 34 40 30 22 21 20 19 17 17
66 60 66 64 63 59 60 58 60 63 71 80 92 93 84 85 85 85 84 86 96 98 99 95 92 94 93 97 81 52 47 34 27 28 36 41 27 22 21 21 20 19 21 24
66 71 72 65 63 62 62 60 61 66 74 88 94 97 89 80 83 78 85 83 84 85 90 94 93 83 76 64 53 50 38 26 26 33 41 27 22 21 21 20 19 20 23 27
80 81 78 73 69 67 66 65 65 71 78 90 98 97 98 83 94 79 82 77 79 77 85 88 80 66 56 53 53 47 27 24 33 40 26 22 22 21 20 18 17 21 26 32
66 69 80 75 72 70 70 70 70 72 78 85 92 97 96 95 98 92 89 69 78 77 81 79 62 55 56 57 49 30 24 34 39 25 22 22 21 20 17 18 22 26 32 36
89 73 73 82 78 75 73 74 73 74 75 80 88 94 93 96 100 100 92 80 80 96 80 64 55 56 58 48 30 24 34 40 26 22 22 22 20 16 17 21 26 33 40 45
98 93 90 84 86 87 82 78 76 74 73 74 79 84 88 92 95 98 93 92 95 91 64 54 54 59 50 31 25 36 42 27 23 23 23 21 15 16 20 26 33 39 43 47
95 92 89 87 82 87 88 83 75 74 78 74 74 80 85 87 96 97 90 73 86 58 62 53 57 54 35 26 35 43 29 23 23 23 22 15 15 19 26 33 38 39 42 46
94 93 98 91 87 84 83 80 76 84 82 84 80 83 89 95 97 88 95 87 62 62 55 56 57 40 27 34 43 32 25 23 24 24 16 14 17 24 30 34 37 41 43 45
97 99 100 100 94 86 85 83 84 87 92 91 91 94 94 94 86 70 64 59 59 56 55 59 48 31 31 41 37 27 23 24 24 19 14 15 21 26 32 35 38 41 43 43
99 96 99 100 99 95 94 96 98 98 92 94 95 89 78 69 64 64 68 66 58 55 58 54 36 30 38 42 30 24 23 24 24 14 14 17 23 28 34 37 40 42 44 45
99 97 96 100 97 94 96 100 100 94 77 80 77 74 70 66 67 70 67 58 56 58 58 43 32 36 43 36 27 24 24 25 19 13 14 19 26 32 37 39 41 42 44 46
99 94 89 89 91 94 88 96 100 97 87 76 75 72 70 66 64 62 60 58 59 60 48 37 34 40 44 32 26 24 26 25 15 14 16 22 28 34 38 39 41 43 46 48
94 97 94 90 88 86 86 85 86 94 99 96 89 74 69 66 64 61 59 60 61 55 43 36 38 45 40 30 25 25 26 22 14 14 20 28 33 37 39 40 41 44 45 44
84 89 96 96 92 87 85 84 83 82 86 96 96 82 70 66 62 61 61 61 57 49 42 38 39 45 36 28 25 26 26 16 13 16 25 31 35 38 40 42 44 46 43 41
71 90 90 94 97 94 90 85 83 82 83 89 95 93 82 66 63 63 61 59 56 49 43 40 44 45 32 26 26 27 23 14 15 22 29 34 37 39 41 44 43 42 48 55

GFSNGP_850_rhum_060.txt.gz
RH
71 71 74 78 82 86 83 80 85 69 76 58 51 48 46 46 80 80 77 78 91 94 94 91 87 83 81 78 74 73 70 64 98 99 100 100 100 100 100 100 100 100 99 91
87 71 81 89 80 83 84 78 81 73 77 49 46 44 48 78 82 81 76 80 86 88 86 82 75 77 81 78 83 83 80 94 96 100 100 100 100 100 100 100 93 90 87 88
91 80 81 88 84 81 82 80 73 88 61 45 49 53 76 83 84 79 75 80 85 84 82 80 80 81 84 90 90 89 92 96 99 100 100 98 98 97 96 96 98 94 81 74
92 84 92 53 56 65 71 63 69 61 51 47 49 73 84 88 88 81 75 81 84 82 82 81 83 84 90 92 92 90 89 90 90 89 90 87 85 85 71 66 70 80 90 98
90 90 73 64 71 74 70 68 62 61 53 50 66 81 96 97 88 81 76 82 82 80 84 86 90 92 92 97 98 97 89 88 90 94 95 95 94 92 98 100 100 100 100 99
95 87 89 52 62 62 60 94 57 61 59 71 82 91 91 92 86 79 75 81 84 85 86 86 84 87 88 94 99 99 99 99 99 99 98 100 100 99 99 100 100 100 99 89
85 91 72 55 57 59 90 74 57 67 69 78 87 84 87 87 84 81 78 76 79 79 80 76 80 78 75 78 75 76 85 96 100 100 99 100 99 99 99 99 95 59 36 37
94 99 93 48 70 73 60 56 59 64 67 80 84 84 84 88 88 90 88 81 76 79 78 80 74 81 88 82 94 97 99 99 99 100 99 99 100 98 58 34 37 38 35 28
80 76 52 47 55 47 48 55 59 64 64 76 83 84 88 94 95 95 93 91 81 80 84 81 97 98 94 99 100 99 99 99 99 99 92 45 34 34 35 39 37 28 23 22
74 60 64 52 51 55 56 61 62 61 62 71 82 82 86 92 91 91 96 93 92 92 99 100 97 98 98 99 100 100 99 99 72 36 33 33 33 38 38 30 23 22 22 20
74 70 59 61 58 60 61 61 61 59 60 70 85 82 84 89 88 87 90 93 94 92 94 95 98 99 100 100 100 99 74 40 33 31 31 34 38 36 28 23 22 20 19 19
86 61 68 64 62 64 63 60 58 58 63 72 86 83 83 91 85 84 87 97 98 97 98 99 100 99 99 97 97 56 41 32 29 28 31 39 37 25 22 21 20 19 18 17
66 63 68 64 64 68 67 64 60 60 66 70 82 87 87 88 87 86 90 97 98 98 97 92 90 87 90 91 65 48 38 28 26 29 38 37 25 22 22 21 20 19 20 22
84 77 74 72 72 71 68 65 62 62 68 78 83 93 97 87 90 89 86 93 98 98 90 90 91 92 91 72 53 47 34 26 27 37 38 25 22 22 21 20 18 18 22 27
85 72 76 81 75 74 72 69 68 67 70 80 90 96 99 95 89 93 88 88 92 97 94 96 90 79 68 58 54 46 29 26 33 40 27 22 22 21 20 15 16 20 25 33
75 72 67 63 75 77 74 72 71 71 72 80 89 95 99 99 95 96 89 89 85 85 92 90 78 66 57 56 54 39 25 27 39 30 23 22 21 20 14 16 20 25 30 35
97 87 83 79 80 86 82 80 76 75 74 77 83 92 97 100 98 99 92 92 82 77 81 82 68 57 57 58 47 29 24 37 34 24 22 22 21 14 16 19 25 30 34 38
99 100 96 93 90 89 80 84 86 81 75 75 80 87 94 96 97 99 99 94 79 95 97 79 60 56 60 56 36 24 32 38 26 22 22 22 15 14 17 24 29 32 36 40
100 100 95 93 94 91 87 82 89 85 75 74 76 79 86 92 95 100 100 94 95 98 99 72 56 56 60 47 27 28 40 29 23 22 23 18 14 15 21 26 29 33 37 38
100 99 100 100 98 92 91 89 87 80 75 77 78 76 82 90 94 99 100 100 100 98 98 59 54 58 58 37 27 38 34 25 22 23 23 14 14 17 22 27 31 34 37 38
100 100 100 100 97 88 84 82 80 78 84 90 83 85 86 88 96 100 100 99 100 99 60 60 55 59 50 28 33 40 28 23 23 24 19 13 14 19 24 30 34 36 37 39
100 100 100 100 99 99 96 95 92 93 93 96 95 92 95 99 99 100 99 97 96 65 59 56 56 57 36 30 40 34 26 23 24 24 15 13 15 21 26 31 34 36 37 40
99 98 99 100 100 100 100 100 100 100 94 96 98 97 93 91 88 88 79 73 62 59 58 55 58 48 30 35 41 30 25 24 25 23 14 14 16 23 29 33 35 37 38 41
98 99 96 92 90 97 94 96 100 100 88 77 81 78 76 72 69 67 67 68 67 60 56 57 57 38 32 41 39 29 24 25 26 20 13 13 19 27 33 35 36 38 39 44
88 87 92 93 89 87 86 85 88 93 99 99 83 75 73 71 68 67 70 69 63 58 57 59 49 35 35 43 37 28 24 25 26 17 13 16 24 30 33 34 35 38 42 44
47 73 89 94 94 94 89 86 84 84 83 88 99 99 97 89 74 65 63 61 59 58 60 58 44 36 38 45 36 28 25 26 25 14 14 20 26 31 33 35 37 41 43 44
32 39 48 77 95 97 97 94 88 85 84 83 85 95 100 98 88 67 84 62 60 61 61 52 43 38 42 45 34 26 26 27 21 13 17 23 28 33 34 36 39 40 48 66

GFSNGP_850_rhum_063.txt.gz
RH
67 73 74 77 85 80 81 78 79 64 72 54 49 51 49 47 67 80 78 76 82 88 86 83 83 81 74 78 84 84 83 88 90 96 98 98 99 99 99 100 100 100 100 100
85 72 80 88 78 83 74 74 74 72 72 48 47 45 48 73 80 81 78 76 83 85 83 81 84 80 82 86 82 86 90 88 92 98 99 100 99 99 100 100 100 100 99 90
88 79 83 92 84 81 82 79 70 86 64 48 48 51 78 82 83 81 77 77 83 83 84 84 84 88 88 88 88 84 88 90 95 98 98 98 99 100 98 99 100 96 93 85
92 82 94 52 57 66 70 67 72 66 55 50 48 61 78 84 87 83 77 80 82 82 83 84 87 88 87 92 92 87 86 88 89 92 92 99 100 99 100 99 99 100 100 98
87 95 69 73 72 76 73 73 62 61 53 52 53 80 89 92 86 80 77 80 82 82 86 88 90 86 83 87 96 96 94 92 94 97 96 98 100 97 96 96 96 97 99 99
97 90 79 51 64 62 63 96 58 57 61 64 79 91 87 90 84 78 77 80 84 86 86 83 88 85 82 84 92 98 99 98 99 99 99 100 99 100 99 99 99 99 99 99
94 96 74 52 53 57 90 83 56 64 68 73 88 83 88 87 83 82 78 76 80 80 80 80 79 76 77 77 77 88 95 99 98 99 99 100 100 100 100 100 96 67 37 35
92 98 88 49 60 76 63 55 54 60 67 77 84 87 87 89 86 88 83 78 78 79 79 77 85 86 81 89 94 95 98 98 99 100 100 100 100 84 40 36 36 34 28 25
72 71 51 50 52 48 49 52 63 67 67 72 82 85 89 90 90 90 85 82 80 78 78 91 92 91 91 99 100 99 100 99 99 98 75 40 33 34 37 34 27 23 22 22
74 60 65 50 57 56 57 61 63 66 65 69 79 83 87 90 88 84 85 81 84 87 98 91 93 96 95 98 99 97 96 98 60 32 31 33 37 37 30 23 22 21 20 20
79 70 60 61 63 64 71 62 61 61 63 68 80 82 83 85 84 82 84 88 88 91 91 90 89 90 97 98 98 98 62 33 30 29 31 35 36 28 23 22 20 20 19 20
87 63 64 61 59 60 62 65 65 62 62 68 81 80 83 86 82 79 86 89 86 85 89 93 98 99 99 99 92 47 32 28 27 29 36 37 27 23 21 20 19 18 16 15
70 74 73 69 69 71 67 68 68 64 64 69 77 83 85 88 82 81 88 97 94 95 92 94 98 89 89 85 53 41 30 25 26 33 40 30 23 22 22 21 20 17 17 20
76 77 74 79 78 77 75 72 68 65 66 70 80 84 87 92 91 84 82 92 98 97 87 85 88 88 89 69 50 42 29 26 28 39 34 24 22 21 21 18 15 17 20 24
84 86 80 75 71 76 76 74 71 70 70 73 84 89 90 98 96 88 86 88 98 89 88 90 90 90 84 62 52 41 28 25 33 39 25 22 21 21 17 13 15 20 25 30
76 72 75 78 78 74 75 80 74 72 72 73 80 91 96 100 97 97 94 93 92 93 90 96 91 88 72 59 54 40 26 27 39 31 23 21 21 19 12 14 19 24 28 32
92 95 93 86 88 80 77 79 83 79 78 75 75 87 98 100 100 100 100 94 94 93 93 93 85 74 63 58 53 37 25 30 38 26 22 22 22 13 13 16 21 24 29 33
97 99 98 100 97 89 84 83 82 85 86 82 76 83 91 99 99 99 100 99 95 98 99 97 81 65 58 59 50 31 25 35 34 24 22 22 17 12 14 18 23 25 30 34
100 100 99 98 100 99 90 90 88 82 86 86 76 77 83 92 99 100 100 100 100 98 98 99 84 58 57 60 45 27 27 38 28 22 22 22 13 12 15 20 25 28 31 34
100 100 100 100 100 99 94 94 95 95 92 83 74 77 81 88 94 100 100 99 99 99 100 100 97 58 56 57 41 27 34 36 25 22 22 20 12 12 16 21 26 30 32 34
99 99 100 100 100 96 86 85 85 84 79 76 76 78 79 83 89 97 100 100 100 99 100 100 98 54 57 55 37 28 38 32 23 22 22 18 12 12 16 22 27 31 32 33
99 99 100 100 100 100 100 95 88 84 85 89 94 91 86 90 94 98 99 100 100 99 100 99 62 54 57 52 32 31 38 29 23 22 23 16 12 13 17 23 28 31 32 34
100 100 98 99 100 100 100 100 100 100 100 100 99 99 96 97 99 99 99 99 99 100 100 73 58 55 57 48 31 35 37 27 22 23 24 15 12 13 19 26 30 32 34 36
79 92 99 96 92 93 99 99 100 100 92 87 96 99 97 97 98 98 99 100 100 100 73 59 57 56 58 43 32 38 35 26 23 24 24 14 12 15 22 27 30 32 34 37
40 66 84 88 91 96 92 86 86 93 99 100 95 80 76 75 74 73 74 74 72 66 60 58 56 56 57 38 33 39 34 26 24 25 22 13 12 18 24 29 31 32 36 40
26 30 39 68 91 96 97 95 90 86 86 86 94 100 95 90 82 71 68 69 70 70 64 58 56 59 53 36 36 41 34 26 24 25 20 12 14 20 25 30 32 33 37 39
29 29 27 29 36 61 89 98 99 95 90 85 84 86 95 100 100 100 86 68 67 66 60 58 58 59 50 37 39 42 34 26 25 25 17 12 16 23 27 30 32 34 39 57

GFSNGP_850_rhum_066.txt.gz
RH
61 62 63 68 75 69 82 67 77 45 43 33 33 36 42 47 66 74 73 72 74 83 84 78 77 77 76 79 80 83 83 84 86 95 94 96 98 99 98 98 99 100 100 100
79 65 68 78 67 68 65 57 56 53 53 34 36 40 44 65 76 75 73 74 74 83 82 77 81 82 83 86 83 83 88 85 92 97 100 100 98 99 100 99 99 99 98 97
80 68 70 76 68 66 66 59 55 66 46 37 40 41 53 72 78 76 73 73 77 82 83 81 86 87 90 92 86 87 87 86 90 93 95 98 99 99 99 98 99 99 100 97
72 65 74 50 49 54 58 54 55 50 46 44 44 48 66 76 79 81 77 75 78 82 84 87 90 92 96 96 91 87 85 85 86 87 91 96 98 97 98 99 100 98 98 99
74 69 55 69 64 60 64 74 49 49 46 47 52 75 82 84 83 80 76 78 82 83 88 88 88 89 94 96 96 94 90 90 91 94 96 98 95 97 99 97 98 98 98 98
83 81 64 58 64 61 54 96 58 51 52 61 73 74 69 85 83 77 78 85 83 85 85 84 82 81 87 94 99 94 87 89 92 92 92 89 92 96 100 100 100 99 99 99
67 71 52 40 44 53 82 84 59 58 61 67 70 71 84 84 82 80 83 81 83 84 82 79 77 77 82 84 86 90 91 90 93 96 97 99 99 99 100 100 97 71 37 30
71 73 73 44 65 67 62 58 55 62 65 71 81 86 87 85 84 86 81 79 83 83 79 79 83 78 80 87 95 99 99 98 98 99 99 100 96 69 46 37 31 26 26 27
52 52 45 48 53 52 54 58 62 68 70 73 82 88 87 88 90 88 88 84 83 79 78 92 85 92 91 95 99 99 98 99 100 99 75 39 36 36 34 28 24 24 23 22
60 49 49 47 53 62 58 63 64 64 62 65 81 86 87 89 88 85 89 86 79 80 92 89 88 94 97 100 100 100 99 96 59 32 32 36 36 30 24 22 21 20 20 20
60 53 52 60 64 66 62 72 71 67 63 64 75 84 85 88 86 82 82 81 86 92 87 88 89 91 93 95 99 98 69 32 30 30 34 35 29 22 22 20 19 18 17 16
51 46 56 52 64 63 64 61 63 68 66 63 71 80 84 86 81 77 79 84 89 88 86 86 85 86 91 94 97 59 29 27 27 32 35 30 23 21 19 19 16 13 12 15
57 74 72 70 67 70 74 74 70 70 66 64 72 80 82 84 83 78 79 80 82 81 82 84 90 92 85 86 55 35 26 24 27 34 36 24 21 20 20 18 14 14 17 20
76 76 75 77 77 76 77 76 74 69 65 66 71 78 83 86 89 82 77 76 82 83 84 86 89 83 82 61 43 34 27 25 29 37 30 22 20 20 20 16 14 16 19 24
78 80 81 80 76 72 70 77 75 72 70 71 74 80 83 85 90 88 84 86 84 86 86 83 86 84 82 58 47 36 26 24 30 37 25 21 20 20 15 12 14 18 21 24
83 81 78 78 79 76 76 76 80 78 73 72 74 78 84 87 90 96 90 90 91 84 85 86 87 86 80 64 51 41 29 25 32 34 24 20 20 19 12 12 16 20 23 25
84 88 92 86 90 87 81 79 78 76 81 78 76 76 85 94 96 100 98 92 94 92 87 87 89 87 84 68 55 46 29 25 35 32 23 20 20 16 11 13 18 21 24 26
92 94 96 98 98 99 89 86 84 81 79 84 85 80 80 89 94 99 99 99 98 100 100 97 93 87 82 68 57 49 31 26 36 30 22 20 21 13 11 14 18 22 24 27
98 99 99 99 100 100 99 98 91 90 90 87 84 85 79 81 90 98 100 100 100 100 98 100 100 97 75 63 57 48 28 27 36 28 21 21 21 12 11 13 17 22 25 28
99 100 100 100 100 100 99 92 91 95 97 92 88 89 80 82 88 95 100 99 98 99 100 100 100 99 86 57 58 47 28 30 37 26 21 21 20 11 11 13 17 21 25 27
99 99 100 100 100 100 100 89 85 90 95 96 91 82 78 82 86 94 99 99 98 100 100 100 100 99 74 55 58 46 28 33 36 26 21 21 20 12 11 13 16 22 27 29
99 99 99 100 100 100 100 100 96 85 80 80 80 82 80 82 85 90 94 100 99 100 100 99 100 100 95 61 57 45 29 36 35 25 21 22 20 12 11 13 18 24 27 29
92 98 99 99 99 99 99 99 100 100 99 99 98 99 99 97 98 98 97 98 99 99 99 99 100 100 90 56 55 44 30 37 34 25 22 22 21 12 11 14 19 25 28 29
42 63 77 88 96 99 100 99 99 99 99 100 100 100 99 99 99 99 100 100 100 99 99 100 99 99 88 66 54 43 32 37 33 25 22 23 21 12 11 15 21 25 28 30
27 30 34 48 76 90 94 98 90 86 94 99 99 100 99 99 99 99 100 100 100 100 99 99 99 96 61 55 55 43 34 38 33 25 23 24 20 12 13 19 22 26 29 30
22 22 24 27 31 44 84 92 94 93 88 86 88 96 99 97 97 85 82 86 94 99 100 89 64 58 57 56 56 41 35 39 34 26 24 24 19 12 16 20 23 27 29 30
22 23 26 27 28 28 34 55 80 93 98 93 88 86 87 95 99 99 93 78 77 70 70 67 60 59 58 57 55 40 37 40 35 26 25 25 18 14 18 21 25 28 30 32

GFSNGP_850_rhum_069.txt.gz
RH
52 52 54 64 68 61 88 65 76 38 34 30 30 29 31 42 53 62 65 66 67 73 76 76 76 72 74 79 79 79 82 84 86 86 89 90 92 96 95 97 93 96 99 99
80 54 56 70 58 59 60 53 47 43 43 28 27 35 39 46 62 68 67 69 68 78 77 76 80 78 83 85 82 83 85 81 86 95 95 96 95 97 92 95 98 98 99 98
72 60 60 72 60 57 57 50 46 58 41 35 37 37 42 54 68 70 69 69 69 77 83 84 88 83 86 85 80 83 82 82 89 95 94 92 94 95 94 96 98 95 92 91
60 58 74 52 43 47 52 48 45 43 39 37 40 43 51 64 69 70 70 71 71 81 86 84 95 85 85 85 85 85 88 88 89 92 92 90 93 94 90 91 92 92 96 98
67 56 46 61 57 54 59 64 44 46 40 43 50 69 68 72 74 71 75 71 74 83 89 86 94 83 82 89 90 90 92 92 94 96 91 89 88 89 92 93 98 100 100 100
70 75 60 62 60 52 50 86 51 46 48 54 67 68 69 76 79 78 74 77 84 84 85 86 84 82 85 90 93 94 94 95 91 88 87 87 92 98 94 95 95 97 94 65
60 63 49 42 45 48 82 86 56 52 53 56 59 67 79 76 81 77 79 84 83 86 83 80 79 80 86 93 93 92 94 91 89 87 88 89 92 99 98 100 87 41 31 34
58 63 67 54 59 55 62 54 55 58 60 63 74 78 81 82 82 84 89 95 83 80 81 78 78 81 84 91 93 94 94 94 94 94 93 94 92 78 48 33 27 24 22 21
47 50 44 41 48 46 51 55 61 66 65 70 78 81 85 85 88 91 94 96 81 82 83 84 82 82 89 97 98 100 99 93 96 96 66 38 36 34 27 24 24 21 19 20
54 40 39 41 44 60 58 63 62 64 64 64 76 86 86 87 89 91 94 98 95 97 84 91 92 94 98 100 100 99 100 96 68 34 33 35 33 27 22 21 20 20 20 22
48 42 45 47 49 63 62 61 67 72 70 65 73 84 83 86 88 89 93 98 86 92 95 87 92 99 100 100 99 100 90 43 31 32 34 32 25 23 20 18 18 18 15 14
46 42 42 49 60 68 68 65 68 68 68 66 65 80 85 85 87 87 92 91 86 95 87 86 94 98 97 98 98 79 34 28 28 32 34 28 22 19 18 18 14 11 12 14
42 63 62 67 70 66 66 69 72 70 71 69 73 82 84 84 86 80 85 89 86 83 84 87 90 90 91 91 79 37 26 25 27 33 32 23 22 21 18 15 10 10 13 15
69 72 66 66 66 76 72 70 73 74 70 68 75 80 87 84 86 83 77 79 84 82 85 86 88 90 88 83 51 30 26 25 27 33 31 22 19 19 18 13 11 12 15 18
74 73 75 74 74 78 77 74 73 77 76 73 71 75 81 84 84 87 81 79 83 84 84 86 92 90 84 70 42 31 24 23 25 32 30 21 19 19 16 11 11 14 16 17
81 82 78 75 76 86 83 78 82 79 78 78 76 76 80 84 87 86 90 82 81 81 83 85 87 85 78 67 47 36 27 24 25 33 29 21 18 19 15 10 11 13 16 18
84 86 88 89 87 86 90 93 93 85 81 74 80 77 77 84 89 86 89 93 87 84 81 84 84 85 82 73 54 45 34 25 25 34 30 21 19 19 13 10 10 13 16 18
86 89 91 97 98 99 100 100 99 99 92 87 82 83 82 80 82 85 90 96 100 92 90 87 92 87 87 81 68 54 45 30 25 32 32 22 20 20 14 10 10 13 16 18
98 99 99 97 99 99 99 99 99 100 98 96 94 85 84 86 82 83 94 100 100 99 94 95 99 100 93 87 80 64 53 40 25 30 33 23 20 20 15 10 10 12 16 19
97 98 100 100 100 100 99 99 98 90 89 95 100 99 93 88 86 83 90 96 97 98 100 100 100 100 100 99 88 70 58 47 28 30 34 24 20 20 17 11 10 12 16 19
98 99 99 99 99 100 100 99 99 89 85 95 99 100 96 92 87 85 90 93 94 100 100 100 100 99 100 100 98 72 58 52 29 31 35 24 21 21 18 12 10 11 15 19
97 98 99 99 98 99 99 99 100 100 91 82 82 86 86 86 85 84 87 90 94 100 100 100 100 100 100 100 99 73 57 54 31 32 35 26 22 22 20 13 10 11 15 19
60 65 74 87 97 99 99 99 99 99 100 100 99 94 92 90 89 90 91 92 96 99 100 100 100 100 100 99 100 86 85 58 33 33 36 27 22 22 21 15 10 11 16 21
34 33 36 45 72 87 93 97 99 99 99 99 99 99 99 99 99 99 99 99 99 99 99 99 99 99 99 99 100 98 96 57 35 35 37 28 23 23 23 15 11 12 17 22
27 24 23 24 28 36 58 90 94 97 92 99 99 99 99 99 99 99 99 99 99 99 99 99 99 99 99 98 99 98 96 60 36 36 36 29 24 24 23 16 12 14 18 22
24 23 23 25 26 27 28 42 69 90 94 92 92 94 97 99 99 99 100 100 100 100 100 100 98 98 99 99 100 95 59 52 37 37 37 30 25 24 24 16 13 16 21 24
20 19 21 25 29 32 32 29 28 38 67 88 95 94 88 87 91 100 99 98 98 99 100 100 99 99 99 99 97 58 55 52 38 39 39 32 26 25 25 17 14 16 21 24

GFSNGP_850_rhum_072.txt.gz
RH
54 53 55 76 72 73 87 74 80 55 42 37 38 39 32 42 47 58 64 65 67 69 74 76 74 72 71 74 76 76 79 83 84 84 85 87 91 92 96 96 97 98 99 98
87 52 55 69 62 64 71 65 58 48 48 29 29 29 39 43 56 64 65 66 65 73 74 74 76 76 77 78 76 78 81 82 86 92 92 94 93 95 91 90 92 90 87 92
85 58 62 81 67 64 64 57 55 66 50 36 41 40 41 49 61 67 68 67 68 71 77 78 78 79 81 80 76 78 82 85 90 90 88 87 84 91 91 90 87 85 86 92
80 61 88 58 45 50 57 52 51 48 42 40 39 43 46 50 59 68 69 68 68 74 79 82 84 85 84 83 81 82 84 86 84 90 92 89 89 90 88 88 86 85 89 92
83 69 51 68 58 55 62 64 49 50 44 41 51 58 62 60 67 69 69 71 71 76 82 85 88 84 80 84 84 87 87 88 90 92 89 89 92 92 90 85 85 84 88 90
82 87 74 72 56 46 46 88 49 46 48 55 66 87 89 74 72 72 74 71 72 77 82 85 85 82 82 86 89 91 92 92 88 88 90 91 91 91 90 89 86 87 58 31
74 78 61 62 57 49 88 91 54 54 54 56 71 74 74 73 77 76 74 76 79 82 87 86 82 80 81 85 93 93 94 87 85 89 91 91 97 98 95 73 35 28 25 26
62 72 78 53 54 64 69 55 58 61 63 65 69 75 76 78 80 78 77 80 82 85 83 81 78 77 82 90 91 92 89 87 89 92 92 93 82 60 36 28 23 22 21 20
56 62 46 52 47 47 50 56 62 62 64 62 71 75 75 80 82 82 83 84 83 82 82 81 78 80 82 89 92 92 96 97 94 95 77 46 34 28 24 23 22 19 19 17
60 47 49 44 50 56 56 57 63 63 63 63 69 75 78 83 85 87 90 89 84 84 86 85 85 80 87 96 98 98 98 100 90 45 34 35 31 26 22 20 18 16 16 13
55 47 46 45 47 66 63 62 64 64 67 69 67 73 76 79 83 87 86 87 90 96 89 92 85 88 97 99 99 98 99 82 35 31 34 32 24 20 18 17 16 12 10 10
62 51 50 62 65 64 64 67 65 63 63 68 68 72 76 77 83 86 82 84 86 92 91 86 87 98 99 98 98 99 87 35 28 30 32 28 21 18 18 16 12 8 8 11
54 54 53 62 62 65 65 68 71 72 71 70 71 73 77 77 81 86 83 77 78 83 79 82 88 99 100 100 99 90 43 26 27 30 30 23 19 19 18 14 10 8 11 12
58 60 60 62 74 75 72 70 66 68 74 72 72 78 80 77 81 86 84 78 77 75 77 80 85 88 89 95 91 60 28 26 26 28 30 23 20 17 16 13 8 8 11 12
63 63 67 70 72 72 71 73 74 72 76 77 75 76 82 81 78 81 87 82 79 77 80 82 83 86 88 89 78 42 26 24 24 28 32 26 19 17 17 14 9 9 11 13
72 73 73 74 75 78 80 81 80 81 81 77 79 77 80 86 85 85 87 90 82 78 78 82 79 81 88 84 74 43 29 25 24 26 32 28 20 17 17 14 9 9 11 14
78 81 83 85 87 86 86 87 88 89 87 83 81 78 81 81 88 88 88 90 91 86 82 82 80 82 86 83 75 48 35 27 23 24 29 31 22 18 18 16 10 10 11 13
85 85 87 89 91 91 89 95 100 100 98 95 94 90 83 82 81 83 84 89 93 94 90 87 84 85 89 87 80 65 47 37 28 23 24 31 26 19 18 18 11 10 10 12
92 91 93 90 93 93 90 91 94 99 99 98 97 93 90 87 85 86 86 90 93 95 95 97 92 93 100 100 91 81 63 50 41 28 24 30 31 21 19 19 13 10 10 11
91 90 92 95 99 99 99 99 99 99 98 88 86 90 98 98 95 91 89 86 83 89 98 100 99 96 100 100 100 98 86 66 54 43 27 27 33 25 19 19 17 11 10 10
94 96 97 99 99 99 99 99 99 99 100 91 84 94 99 99 100 99 94 89 86 92 99 100 100 100 100 100 100 100 99 90 65 54 37 27 32 29 21 20 19 14 11 10
98 91 85 95 98 99 99 99 98 99 99 100 93 84 90 93 95 94 93 92 90 95 98 100 100 99 100 100 100 100 100 99 78 57 54 29 31 32 23 21 21 17 11 10
50 46 46 48 65 80 94 100 99 99 99 99 99 100 99 95 88 90 90 94 94 92 94 97 100 100 100 99 100 100 100 100 91 74 95 36 32 34 25 21 22 20 12 11
36 32 27 24 28 42 46 73 92 99 99 98 98 99 99 99 99 99 99 99 99 100 99 100 99 99 99 99 99 99 99 100 97 97 96 39 33 36 27 22 23 22 13 12
33 25 22 22 24 26 27 32 52 78 89 94 98 98 98 98 99 99 99 99 99 99 99 99 99 99 98 98 99 99 99 99 100 99 94 39 35 37 29 24 24 23 14 13
28 21 19 21 25 28 28 30 30 34 46 68 90 96 93 95 98 98 99 99 99 99 99 99 99 100 98 98 99 100 100 100 99 99 74 38 37 37 30 25 24 24 16 15
23 18 17 18 22 28 30 31 32 33 33 32 43 69 91 94 92 89 91 98 98 99 99 99 99 100 100 100 100 100 100 100 99 97 86 40 38 38 32 26 25 25 19 16

GFSNGP_850_rhum_075.txt.gz
RH
59 59 70 78 74 78 78 68 74 55 48 49 43 43 37 36 44 58 64 65 67 69 69 71 71 70 69 73 76 76 76 78 80 82 84 86 86 85 83 86 86 89 89 95
85 56 59 70 70 76 68 62 64 60 53 35 37 35 36 40 47 59 64 64 66 68 70 72 71 71 73 78 79 79 79 79 83 90 92 93 94 97 92 89 87 85 84 90
87 62 65 81 74 74 75 67 61 67 51 38 38 39 46 49 54 59 64 65 66 66 70 73 73 75 78 81 81 80 81 82 84 87 91 94 93 89 86 81 76 80 86 87
86 68 91 54 49 57 65 61 61 51 45 41 44 46 46 50 55 63 67 67 67 68 70 76 77 80 80 83 82 82 83 84 83 88 91 90 86 83 79 78 84 91 90 86
85 85 62 65 60 62 66 66 55 55 47 46 54 53 58 53 53 59 64 67 68 69 71 77 82 86 85 86 86 85 85 83 85 92 89 85 82 82 79 84 87 88 88 87
84 90 85 72 53 48 50 83 59 51 51 54 66 82 82 68 63 67 69 70 71 70 73 81 86 88 86 82 85 87 88 88 90 86 82 82 84 80 82 87 88 72 33 22
80 89 68 63 59 51 88 80 56 51 55 65 76 71 70 73 72 73 73 72 72 74 78 83 87 86 84 86 89 91 91 90 83 84 84 84 86 89 90 64 28 24 22 19
63 69 83 52 53 64 66 60 60 61 63 63 63 70 72 73 75 75 73 74 76 78 82 83 83 81 82 83 87 90 90 82 83 85 86 87 85 56 35 27 23 18 16 15
62 65 49 53 53 55 62 60 62 61 61 63 68 71 70 72 78 77 77 78 80 80 83 83 82 81 81 85 89 90 84 83 84 89 86 67 44 30 26 23 20 16 16 14
57 50 51 52 49 51 52 54 63 62 61 62 62 67 70 76 82 81 82 82 82 83 84 82 80 80 82 88 93 89 89 87 90 86 51 36 32 27 22 19 17 16 13 12
63 53 49 46 55 58 61 65 68 70 68 69 69 69 69 71 78 81 84 83 83 82 82 82 86 84 84 93 92 92 97 98 86 42 34 32 28 23 20 18 16 14 11 11
73 53 62 71 68 64 60 60 62 62 64 68 69 69 71 71 75 80 85 82 82 85 88 84 85 84 92 99 96 93 94 92 49 31 33 33 25 20 18 16 14 9 8 11
55 52 57 66 68 66 63 64 66 67 71 72 71 73 73 75 76 80 86 81 79 80 83 81 82 88 95 98 98 100 89 64 30 29 32 29 23 19 18 16 13 8 9 11
50 56 63 69 67 68 70 70 68 67 67 73 74 74 77 79 79 81 84 82 79 79 80 75 78 87 99 99 100 95 87 50 29 28 31 30 24 22 19 18 13 9 9 10
55 57 55 65 75 76 74 72 71 74 74 75 78 77 78 81 81 80 84 87 84 79 78 75 73 76 85 94 95 90 72 35 28 28 32 32 26 20 17 17 14 8 8 10
72 69 70 73 75 78 78 78 78 80 83 82 81 80 81 84 85 86 88 88 88 82 77 74 71 70 74 78 82 84 64 32 27 26 28 32 30 22 18 17 16 9 8 10
75 78 78 81 84 85 85 85 86 86 88 89 88 85 82 81 83 85 88 89 90 90 87 80 74 76 76 79 82 81 65 35 27 26 26 28 32 25 19 17 17 12 8 9
78 81 83 85 85 86 85 87 90 96 99 99 100 95 92 90 82 82 84 87 89 92 91 90 85 82 81 81 86 84 76 47 32 26 24 25 29 31 22 18 17 16 10 9
86 85 85 86 88 90 91 88 88 88 91 94 97 94 91 90 86 86 88 89 88 88 84 92 93 91 89 86 99 99 87 67 45 38 30 26 26 32 28 20 18 18 14 10
87 87 91 94 95 97 99 99 99 99 98 98 96 89 85 87 92 93 96 92 85 87 91 94 98 99 97 94 99 100 100 90 64 51 44 35 26 27 32 26 20 18 18 12
96 95 95 96 97 98 98 99 98 98 98 100 99 95 86 94 99 100 100 99 92 95 93 95 99 99 99 100 100 100 100 100 99 89 56 50 38 27 31 31 22 19 20 16
99 70 56 60 67 80 93 98 98 98 98 98 99 99 97 90 94 98 98 98 98 97 97 97 100 100 100 100 100 100 100 100 100 99 98 86 54 33 30 32 27 21 21 20
65 37 34 29 28 41 52 60 81 96 98 98 98 98 99 99 99 96 91 93 92 92 92 96 99 100 100 100 100 100 100 100 100 99 99 98 82 93 62 33 32 23 21 22
42 36 26 21 21 24 23 26 38 72 87 97 98 98 98 98 99 99 98 98 98 99 99 99 99 99 99 99 100 99 99 99 99 99 99 99 97 98 63 63 34 26 22 23
39 30 21 17 19 22 25 27 29 31 42 66 88 96 97 98 98 98 98 98 98 98 98 98 99 99 99 98 98 98 98 99 99 99 99 98 99 98 90 36 35 28 23 23
38 25 19 17 17 20 24 27 30 32 31 29 39 60 82 94 92 93 97 98 98 98 98 98 98 98 98 98 98 98 98 98 99 99 99 99 99 98 77 42 36 30 25 24
39 26 18 16 17 20 26 29 31 33 35 35 34 37 49 68 85 89 90 90 95 98 98 98 98 98 98 98 99 100 100 99 99 99 99 99 98 97 86 48 38 30 26 26

GFSNGP_850_rhum_078.txt.gz
RH
62 72 71 74 78 82 77 64 76 55 58 50 48 52 51 52 59 64 66 68 68 72 70 69 68 68 68 67 68 72 76 77 79 81 81 80 78 78 78 79 79 80 81 81
84 58 62 71 75 78 70 60 62 63 60 40 40 40 42 44 51 61 60 62 65 66 68 68 68 69 68 69 73 76 78 79 81 84 86 89 88 88 91 91 86 83 84 84
88 65 68 81 75 82 76 67 60 67 51 40 43 41 39 36 39 46 52 60 64 64 66 68 69 70 71 73 77 78 79 80 82 85 89 91 93 91 88 86 83 81 81 80
88 72 95 50 53 60 69 66 62 53 49 43 41 38 36 35 36 42 50 61 64 66 68 70 72 73 74 77 78 80 80 82 85 86 90 90 88 86 82 80 82 81 76 74
87 88 63 61 60 69 73 70 62 61 52 54 53 51 54 52 53 54 60 64 66 67 68 70 72 75 79 81 82 82 84 86 84 87 92 90 85 82 83 84 82 76 79 80
89 90 86 62 56 51 58 87 60 56 56 65 67 73 67 52 53 55 59 65 66 68 70 72 75 81 84 85 86 85 85 88 87 91 91 87 84 83 83 84 80 62 25 20
82 90 75 56 60 54 84 71 56 54 49 60 74 60 59 66 67 66 66 68 70 71 71 72 78 84 85 86 84 86 91 92 90 87 87 86 86 84 83 73 29 21 20 17
78 73 80 58 53 69 65 62 60 58 59 62 61 63 65 69 71 70 70 71 73 72 73 77 83 86 86 86 86 88 92 93 85 85 86 88 88 87 44 26 22 19 17 15
66 66 47 52 53 51 59 60 63 61 63 63 64 66 67 69 71 72 73 73 75 76 79 82 84 83 84 84 85 89 94 88 84 84 87 89 76 37 24 20 18 16 14 13
59 51 53 52 52 55 55 59 63 62 61 61 63 65 65 68 72 75 76 76 79 79 81 82 84 83 83 84 85 92 93 84 86 86 88 70 37 26 22 19 16 14 13 11
66 57 50 50 53 54 57 60 65 69 71 69 69 69 70 69 72 76 77 80 82 79 81 81 82 82 81 82 88 94 89 84 88 87 60 34 28 24 21 19 17 14 12 10
73 55 55 61 54 65 63 64 62 61 62 66 69 68 70 72 74 75 77 82 84 81 83 84 85 84 85 84 93 94 96 92 90 77 36 32 28 22 18 17 16 13 8 8
53 52 57 64 69 66 64 64 62 64 63 64 70 72 72 74 77 77 80 84 84 77 80 85 87 85 81 86 95 96 96 93 89 47 31 30 27 21 19 17 16 12 8 10
51 54 71 70 67 67 66 67 68 67 66 66 70 74 74 77 80 79 78 82 86 80 80 80 84 82 84 90 92 98 97 97 83 34 29 31 30 24 20 18 18 14 9 9
59 61 56 60 68 71 74 74 72 69 69 71 74 79 80 79 81 80 81 84 89 85 81 80 77 76 86 99 99 100 95 92 72 33 29 31 32 28 24 22 19 17 10 8
64 70 68 72 76 78 78 77 78 77 76 77 78 80 81 82 84 85 86 86 86 85 85 80 74 74 79 92 98 99 94 89 62 32 28 28 31 31 26 21 18 16 13 9
72 79 78 79 83 85 84 85 85 85 85 84 83 84 84 82 82 83 85 86 86 87 87 88 83 77 76 79 90 90 88 87 60 33 27 26 28 31 31 25 19 17 17 11
78 79 81 82 84 86 86 86 89 90 91 94 99 99 95 90 86 85 87 88 88 87 84 86 91 89 82 84 83 84 87 88 77 40 27 26 26 27 33 31 22 18 18 16
87 86 87 86 86 87 87 90 94 93 88 88 89 93 95 93 89 87 93 94 87 84 80 89 91 96 94 87 89 87 99 99 90 76 43 30 28 26 27 31 28 21 19 18
88 86 84 84 88 89 93 97 98 99 99 98 98 92 89 91 86 85 89 89 89 90 91 93 97 96 97 99 96 93 94 100 100 91 67 42 34 29 26 26 31 28 21 18
95 93 91 90 87 88 94 96 96 96 96 97 98 97 97 96 90 92 97 100 94 99 100 98 97 97 97 99 100 100 100 100 100 100 96 77 54 41 35 28 29 31 25 20
98 83 75 49 32 43 58 60 66 85 97 97 98 99 98 98 99 96 97 98 99 100 100 100 99 100 100 100 100 100 100 100 100 100 99 99 98 96 72 39 29 32 37 26
97 60 41 30 22 22 25 24 28 44 72 89 96 97 98 98 98 96 97 98 95 96 96 94 97 100 100 100 100 100 100 100 100 99 99 100 99 98 98 95 42 74 74 40
48 41 30 22 19 21 23 25 26 27 33 52 76 91 96 97 99 98 98 98 98 99 98 98 99 100 100 100 100 100 100 99 99 99 99 99 99 99 99 97 94 97 81 94
50 39 28 20 19 20 21 24 27 30 32 31 32 56 78 90 93 95 98 98 98 98 98 98 98 98 99 98 98 98 98 98 98 98 98 98 99 99 98 98 97 97 92 39
57 43 30 22 17 17 20 24 28 30 32 32 35 36 39 56 72 83 88 92 97 98 98 98 98 98 98 98 98 98 98 98 98 97 97 98 98 98 98 98 98 98 78 42
99 61 33 21 18 18 19 23 28 31 34 35 35 38 37 37 40 44 54 73 83 86 94 98 98 98 98 98 97 98 97 97 97 98 98 98 98 98 98 99 98 97 82 42

GFSNGP_850_rhum_081.txt.gz
RH
66 73 73 79 84 94 90 79 81 62 63 44 52 60 59 62 68 71 70 68 67 68 69 72 69 66 65 66 66 65 67 72 75 77 78 81 83 83 82 81 79 79 79 80
82 63 67 73 76 88 88 81 75 65 65 46 41 47 52 53 66 70 67 66 66 68 70 69 68 67 68 68 68 69 73 76 77 79 82 86 90 90 91 90 91 90 87 85
78 68 68 74 75 83 76 69 66 70 53 42 47 45 49 52 58 60 59 56 60 62 64 65 67 69 70 70 71 74 77 78 78 80 84 92 97 97 95 93 88 86 84 82
91 72 83 47 56 62 69 67 67 55 49 46 45 42 40 43 45 46 45 48 53 58 63 67 69 72 73 73 74 76 78 78 79 82 86 92 98 95 90 86 82 81 82 79
89 90 66 56 61 71 75 68 64 61 53 51 53 48 45 38 37 38 37 44 50 59 65 68 70 72 74 76 77 78 80 79 82 84 89 94 91 88 84 83 83 81 80 82
91 90 81 57 60 53 56 81 61 60 60 62 65 69 67 46 48 49 50 56 62 66 68 70 71 73 76 78 81 81 82 82 85 84 90 92 89 84 84 86 82 84 57 26
84 92 76 56 62 57 81 68 58 56 53 58 73 57 49 49 51 53 56 59 64 68 68 70 72 74 78 83 84 84 84 85 87 88 89 88 85 86 86 85 68 25 18 15
81 81 81 56 56 68 63 64 62 58 54 52 57 60 62 65 67 68 66 66 68 70 72 73 74 77 82 86 87 85 85 88 89 87 85 88 87 87 86 54 25 22 18 14
66 65 45 51 54 51 61 62 64 62 64 62 62 63 66 67 69 69 70 71 72 73 73 75 78 82 86 87 88 86 87 90 92 88 88 88 88 85 44 29 26 18 15 12
60 51 53 49 53 62 61 61 63 61 61 61 66 65 64 65 65 68 71 73 74 75 77 78 81 85 87 88 87 86 87 93 91 87 89 92 91 52 27 21 17 15 13 11
67 58 52 50 52 54 55 59 64 64 66 67 70 70 72 71 69 70 74 75 76 78 79 80 83 85 85 84 85 86 93 97 89 88 91 90 58 28 22 22 19 16 12 10
73 54 53 52 51 59 60 65 68 66 63 64 67 68 67 66 71 73 74 77 79 81 81 82 84 86 86 86 85 87 94 95 86 88 90 70 37 27 22 21 17 14 11 8
54 50 58 60 64 68 64 63 64 63 62 62 65 69 72 73 73 77 76 77 80 82 84 82 82 84 88 90 88 90 96 91 86 89 84 44 32 28 23 18 16 14 12 8
52 59 67 64 66 69 69 66 66 68 68 67 67 69 73 74 76 78 78 79 83 86 84 79 81 83 85 85 87 94 97 99 90 89 76 36 32 30 23 19 18 17 14 9
56 61 57 58 69 70 70 72 73 73 71 72 74 76 77 80 80 82 85 85 85 86 87 84 80 79 82 84 86 95 96 100 95 92 66 32 31 32 28 24 20 19 17 12
64 69 67 68 75 78 79 79 77 76 76 76 77 79 81 83 83 84 87 89 88 87 88 86 84 82 82 82 89 98 99 100 94 94 65 31 29 31 31 27 23 21 18 16
74 80 78 76 77 80 82 84 85 85 84 83 80 79 82 83 83 85 85 87 89 89 89 89 90 90 84 82 82 90 100 100 99 96 80 42 30 28 28 30 28 23 19 18
80 79 81 83 87 88 89 89 89 90 89 88 86 86 93 98 94 91 88 90 85 84 86 90 93 94 93 85 80 86 92 96 98 94 86 57 31 26 26 28 30 30 24 19
88 87 86 86 86 86 87 87 87 88 89 90 87 85 85 91 96 93 89 87 86 85 76 87 92 95 94 95 91 86 85 97 99 94 94 82 51 31 28 26 26 29 30 25
88 86 85 85 88 89 91 93 92 92 93 93 94 93 92 89 88 89 88 85 86 90 92 95 97 93 96 98 100 98 93 98 99 100 100 98 86 58 32 27 26 26 29 31
100 92 76 59 52 52 52 56 60 68 88 96 97 97 96 95 96 97 95 90 96 98 100 100 100 99 97 100 100 99 99 100 100 99 99 100 100 95 67 38 32 29 27 30
99 98 95 81 35 23 26 26 25 30 47 70 92 100 99 98 98 99 99 99 96 99 99 100 100 100 100 100 100 100 100 100 100 100 100 100 100 100 99 70 85 84 38 29
99 84 50 32 23 20 20 20 22 24 30 40 51 67 82 94 98 95 96 99 98 98 98 98 99 100 100 100 100 100 100 100 100 100 100 100 99 99 99 99 99 99 95 46
54 48 36 28 20 20 19 21 24 28 32 33 31 31 39 49 67 95 99 98 99 98 98 98 98 99 100 100 100 100 100 100 99 99 99 99 99 99 99 99 99 99 99 98
52 49 44 30 25 19 17 18 22 28 32 34 34 35 38 39 49 55 77 84 91 98 98 98 98 98 98 98 98 99 98 98 98 98 98 98 98 99 98 99 99 98 98 98
87 76 64 40 28 21 18 17 19 24 27 28 32 35 36 38 39 41 43 51 65 80 85 94 98 98 98 98 98 98 98 98 98 98 97 97 97 97 97 98 98 98 97 98
98 99 92 55 32 21 18 19 21 23 27 28 29 36 36 37 40 42 42 42 42 45 58 75 84 96 98 97 97 97 97 97 97 97 97 97 97 97 97 97 98 98 98 98

GFSNGP_850_rhum_084.txt.gz
RH
68 69 84 86 91 91 88 75 81 70 72 56 47 47 58 66 72 74 75 72 69 68 68 70 70 66 63 63 63 64 63 63 65 69 72 75 77 79 79 78 77 75 74 74
82 73 72 78 84 91 85 75 85 75 74 52 43 48 57 64 74 75 72 70 70 69 68 69 70 67 65 64 64 65 65 68 70 71 75 80 84 86 86 85 84 83 83 85
74 70 66 69 73 86 84 82 80 88 62 51 46 50 52 57 70 68 65 64 64 64 64 66 69 67 66 68 68 68 69 71 74 74 74 80 90 95 94 92 95 92 88 85
93 71 76 45 58 64 74 72 74 68 53 47 44 41 38 45 51 56 57 58 59 59 62 66 69 70 71 70 71 71 73 75 76 76 78 85 99 100 100 98 93 90 87 84
90 88 65 57 65 70 75 64 66 68 60 49 50 50 46 40 43 43 46 50 52 53 56 64 68 70 72 73 74 75 78 78 78 80 83 90 99 100 99 96 92 89 89 88
91 89 75 52 64 57 57 80 57 65 63 58 63 70 63 45 41 39 39 41 42 49 57 65 69 72 73 74 75 77 81 81 83 84 87 93 99 98 97 98 96 95 90 83
79 88 78 56 56 60 82 67 62 59 62 58 74 58 53 56 50 49 51 54 58 63 66 68 71 72 73 75 76 82 85 85 86 88 90 95 96 92 96 99 96 88 46 20
81 91 86 47 60 69 60 66 66 62 59 54 59 61 64 64 63 65 65 63 63 66 68 70 71 73 74 76 82 87 89 87 90 92 94 94 94 93 97 94 77 28 20 16
74 75 49 45 58 54 58 64 66 65 64 57 63 65 66 68 68 68 69 68 69 70 71 72 74 75 78 82 87 89 88 89 92 96 96 94 92 92 92 73 26 23 19 14
63 52 54 49 51 56 64 63 64 64 64 63 64 66 68 68 67 67 69 70 72 73 72 74 75 77 81 87 90 91 91 91 93 97 97 96 94 94 84 33 26 20 15 13
69 60 53 48 53 58 59 61 64 64 65 71 74 76 73 78 80 74 70 72 74 74 76 78 78 79 82 86 88 88 90 91 96 100 96 92 92 87 44 31 24 18 15 14
71 55 54 53 53 59 60 63 68 70 66 65 66 67 68 68 68 70 73 74 75 77 83 82 79 81 83 85 87 87 87 89 96 100 92 91 91 70 32 26 21 19 17 13
55 53 57 61 62 65 68 67 66 65 64 64 66 68 70 72 75 76 77 78 77 78 82 85 84 82 82 84 86 88 89 90 98 99 90 90 85 48 26 23 21 17 15 12
55 56 65 65 68 72 71 71 70 68 69 69 70 70 70 73 76 79 83 85 83 83 86 88 87 84 83 86 90 97 94 97 100 97 89 90 74 37 29 25 22 18 16 14
66 65 65 62 71 74 75 74 74 75 74 73 73 72 73 75 78 82 86 88 88 86 87 91 88 84 83 83 86 91 93 99 100 96 92 91 64 35 32 29 23 20 19 16
66 71 72 70 76 79 79 79 79 77 77 78 78 78 75 72 74 79 83 86 90 90 91 95 94 90 89 85 86 85 87 93 100 100 98 97 70 36 33 32 28 24 20 18
77 79 79 79 81 83 83 84 84 84 85 84 83 84 84 81 77 78 82 85 86 87 91 91 91 94 93 92 88 89 86 94 98 100 99 96 83 41 30 31 31 29 24 24
82 81 82 82 83 86 88 88 88 87 86 86 87 87 87 87 86 89 93 92 88 87 88 89 92 93 93 93 93 88 88 92 100 99 99 95 92 70 41 32 30 30 30 32
91 87 87 86 85 84 82 84 86 88 87 87 85 86 89 91 88 85 93 95 91 87 85 92 94 91 92 93 96 98 92 91 98 99 97 96 97 93 73 43 30 28 28 31
98 96 88 85 86 88 89 89 87 80 81 88 91 93 94 94 93 90 87 92 92 92 93 92 94 97 96 96 100 100 100 100 100 96 100 100 99 96 90 78 50 32 28 27
99 93 71 50 38 35 34 32 29 26 33 45 56 72 93 98 98 98 97 97 98 97 100 100 100 100 100 100 100 100 100 100 100 99 99 100 100 100 100 100 97 72 43 31
99 99 98 96 64 23 22 22 21 23 25 29 35 43 51 66 81 94 100 100 99 98 97 98 99 100 100 100 100 100 100 100 100 100 100 100 100 100 100 100 100 100 99 64
99 98 72 35 26 20 20 19 19 21 24 28 28 27 29 37 57 64 77 90 95 97 98 97 97 98 99 100 100 100 100 100 100 100 100 100 100 100 100 99 99 100 100 99
59 54 45 39 29 27 21 18 17 19 24 28 30 31 30 28 33 55 60 70 79 82 92 97 97 97 99 98 98 99 99 100 100 100 100 99 99 99 99 99 99 99 99 99
75 56 56 54 46 36 28 22 19 18 22 28 32 34 38 41 38 35 37 38 41 42 52 72 84 97 98 97 98 98 98 98 98 98 98 98 98 98 98 98 98 98 98 98
87 96 98 96 77 50 36 25 20 18 18 21 26 32 35 38 38 38 39 41 41 41 41 42 51 70 82 95 97 97 97 97 97 97 97 97 97 97 97 97 97 97 97 97
84 94 96 94 78 52 40 23 18 19 21 23 23 29 33 36 37 40 42 42 42 42 43 43 43 44 49 69 89 98 97 97 97 97 97 97 97 97 97 97 97 97 97 97

GFSNGP_850_rhum_087.txt.gz
RH
73 69 83 84 89 91 88 77 80 66 69 49 50 50 45 49 72 74 72 69 67 67 69 70 69 66 66 62 62 62 60 58 61 62 63 64 67 68 72 76 74 72 70 70
82 78 75 80 84 88 86 80 79 79 78 54 45 46 48 54 73 73 70 68 69 72 73 69 68 69 67 64 62 64 63 62 64 67 69 70 72 76 79 81 82 81 80 78
79 73 68 66 70 87 86 83 73 83 59 52 50 50 44 48 65 67 63 64 67 67 66 65 67 69 68 66 66 66 66 68 70 72 75 74 73 80 86 88 90 90 89 89
90 70 75 43 59 65 79 76 80 75 66 55 52 45 40 38 43 57 61 63 64 64 66 67 68 71 72 70 70 71 71 72 74 75 75 76 80 94 99 99 98 97 92 88
83 84 60 60 65 68 68 60 64 73 68 61 49 51 45 38 36 43 53 58 62 61 62 65 66 70 71 71 72 73 74 75 78 81 79 80 88 99 100 100 99 97 90 87
87 86 69 50 65 58 58 74 57 66 67 67 61 69 63 45 42 43 46 47 50 54 56 59 63 70 71 72 73 74 75 77 80 80 80 84 92 100 100 100 100 98 92 93
74 77 73 57 56 62 74 66 67 65 63 64 68 57 54 58 54 48 46 47 48 44 48 56 63 70 73 74 73 76 78 81 84 83 84 92 97 100 100 100 100 100 96 82
83 83 83 46 62 68 60 65 68 68 59 60 65 63 65 64 61 60 58 58 57 59 64 67 71 73 74 74 76 79 82 86 88 89 90 94 99 100 100 100 100 98 67 27
74 73 51 44 60 56 60 66 66 66 63 56 63 66 68 69 69 68 68 68 68 68 68 70 72 73 74 76 78 81 86 88 88 89 93 97 100 100 100 100 100 69 26 21
64 53 55 51 50 51 64 66 64 66 67 67 66 71 73 73 74 71 68 69 70 71 72 72 73 74 77 79 82 87 90 90 90 92 96 98 99 100 100 96 77 28 24 18
71 60 53 49 51 58 66 64 65 65 71 75 78 78 77 75 80 83 82 74 72 73 74 75 77 78 78 81 84 88 92 92 93 94 98 100 100 98 94 86 37 28 22 19
68 58 59 56 62 60 64 67 71 72 69 67 67 68 71 72 73 72 73 74 75 75 76 78 86 80 78 81 86 89 92 91 91 93 98 100 100 98 94 60 37 28 21 16
58 56 57 59 67 67 71 73 69 67 66 66 66 67 68 69 72 75 79 81 82 81 81 82 83 83 88 82 84 87 90 92 93 94 100 100 96 94 85 41 30 23 19 16
62 66 63 67 71 74 74 73 72 69 70 71 71 71 70 70 72 74 78 82 85 85 84 85 87 87 87 87 84 85 91 97 97 93 98 100 93 91 82 38 24 20 18 16
67 72 70 68 76 78 78 77 76 77 76 74 74 73 74 71 68 67 71 76 82 87 89 88 88 95 91 87 86 88 87 98 96 95 98 100 93 93 79 41 28 26 24 19
80 77 76 76 79 82 82 82 82 82 83 83 83 82 80 78 75 73 73 74 78 82 88 92 89 96 97 92 90 87 88 86 94 99 100 99 91 93 79 41 34 31 26 20
86 83 83 83 83 83 82 82 85 85 85 86 85 84 84 84 83 84 84 85 87 87 88 89 91 96 96 99 97 94 89 93 91 95 100 100 94 93 86 49 34 32 29 25
91 88 85 84 86 87 88 87 88 86 83 84 86 86 86 86 85 84 82 87 97 96 92 89 93 93 96 98 98 98 97 94 96 95 100 99 99 96 95 76 41 31 30 31
98 95 93 92 91 88 87 87 86 86 85 83 84 85 89 92 92 91 89 88 89 94 93 93 92 95 95 98 100 100 100 100 99 100 99 100 99 99 96 94 85 51 33 29
100 100 99 95 91 86 78 72 56 40 32 32 35 43 58 84 94 96 96 98 99 100 100 98 98 99 100 100 100 100 100 100 100 100 99 99 100 99 99 99 99 96 80 54
99 99 97 64 36 29 24 22 18 18 20 22 23 25 31 44 58 73 87 95 100 99 98 98 100 99 100 100 100 100 100 100 100 100 100 100 100 100 100 100 100 100 99 98
98 98 99 98 79 40 20 19 17 17 18 21 23 25 25 26 27 37 65 81 82 88 92 95 97 98 99 99 99 100 100 100 100 100 100 100 100 100 100 100 100 100 100 100
98 97 78 47 30 25 24 19 16 15 16 19 22 25 27 31 32 32 30 37 37 43 54 69 85 94 97 97 98 99 99 99 99 99 99 99 99 99 99 99 99 99 99 99
98 97 86 78 78 63 35 26 22 20 18 18 22 25 25 27 34 34 36 36 35 35 34 36 41 58 78 93 96 97 97 98 98 98 99 99 99 99 99 100 100 99 99 99
99 98 92 82 80 71 51 40 33 25 21 20 22 25 28 29 30 30 31 33 36 36 37 38 38 40 43 58 74 92 96 97 97 97 98 98 98 98 98 98 98 98 98 97
92 80 86 100 98 85 63 52 46 27 19 19 21 24 25 29 32 33 35 38 40 40 42 42 42 41 41 41 42 53 80 96 97 97 97 97 97 97 97 97 97 97 97 97
84 82 84 94 96 83 62 62 41 19 22 25 26 26 28 32 34 36 40 44 45 45 45 46 47 47 46 45 46 46 46 55 83 98 97 97 97 97 97 97 97 97 97 97

GFSNGP_850_rhum_090.txt.gz
RH
67 64 66 72 75 74 86 67 77 47 53 34 29 33 34 44 58 65 74 80 79 75 70 64 64 64 64 64 62 59 59 59 58 58 59 59 59 61 65 67 69 70 69 71
75 64 66 71 69 69 67 62 58 56 53 39 37 37 38 38 58 65 70 77 77 71 65 62 64 64 62 62 61 61 60 62 61 63 64 64 68 66 70 74 77 80 80 76
77 64 58 58 52 67 68 66 58 71 48 40 40 40 40 40 53 63 64 71 73 64 63 64 63 63 66 67 64 64 64 65 66 67 69 70 70 72 74 81 86 84 84 85
64 58 53 44 49 54 58 58 60 56 53 45 44 45 45 42 43 52 65 67 68 63 64 65 65 67 70 71 68 66 67 68 69 71 72 72 73 73 81 91 98 98 94 92
63 56 48 60 59 56 56 56 52 55 50 51 54 53 50 47 42 46 59 65 63 62 63 64 64 66 69 72 70 70 71 72 72 74 75 76 75 79 93 100 99 100 99 93
69 68 52 54 54 55 51 67 56 57 52 53 57 59 41 48 46 42 45 58 61 62 63 63 65 66 68 71 71 70 72 73 75 76 78 79 81 87 100 99 100 100 100 97
61 64 49 44 53 60 66 66 60 66 60 60 55 52 60 61 58 53 53 50 49 48 50 57 62 65 69 72 72 73 75 76 77 79 82 84 89 96 100 99 99 100 100 100
63 64 66 45 60 63 54 61 69 71 61 63 66 66 69 66 64 62 59 57 55 54 53 52 58 65 70 73 76 77 78 79 80 84 87 88 90 98 100 100 100 100 100 97
50 46 43 45 56 58 60 64 68 71 60 59 65 67 69 70 70 69 68 67 66 66 66 67 69 72 75 76 77 77 78 80 84 89 90 91 93 100 100 100 100 100 100 72
54 47 46 50 53 52 58 70 66 69 67 70 72 73 75 77 78 76 72 68 68 68 69 69 70 71 73 74 76 78 80 83 88 90 90 92 96 99 100 100 100 100 91 36
52 49 49 55 60 60 68 71 67 70 73 77 80 80 78 76 74 79 82 81 76 72 72 73 73 74 74 75 76 80 84 88 91 93 94 96 99 100 99 100 100 99 58 25
52 54 56 52 63 63 68 70 74 74 71 69 70 70 71 72 73 73 73 73 73 76 80 76 77 81 85 79 80 82 86 89 91 93 93 97 100 100 100 100 100 85 33 31
61 64 64 62 68 70 73 73 72 68 67 67 69 70 70 70 70 72 75 77 81 82 82 81 80 82 85 86 89 84 86 88 92 94 95 97 100 100 100 98 92 45 36 27
64 69 66 73 76 75 76 75 73 70 71 72 72 71 72 72 71 68 66 69 75 82 86 86 85 85 88 90 90 89 90 89 92 94 95 98 100 100 100 96 86 43 30 20
71 76 79 74 79 81 80 78 77 77 78 77 77 75 75 74 72 71 70 66 66 70 80 89 90 89 95 98 93 90 92 94 97 100 100 100 100 100 100 96 89 49 30 25
83 84 83 84 83 84 84 83 82 82 82 81 82 82 82 81 80 80 80 79 78 75 79 85 90 98 96 99 99 95 92 89 94 100 99 99 100 100 100 99 94 63 33 26
92 87 89 91 90 89 87 84 82 83 85 85 82 80 80 82 83 84 86 86 86 87 91 90 88 95 98 99 98 100 98 98 98 99 100 99 99 100 100 98 95 75 38 29
100 98 90 89 90 90 92 92 92 86 82 82 82 82 82 82 84 84 84 84 84 88 93 96 94 91 96 99 100 100 100 100 100 98 100 100 100 99 99 98 95 91 56 34
100 100 99 98 98 96 92 89 89 83 76 59 48 48 53 64 83 91 93 93 93 94 94 98 98 98 97 100 100 100 99 100 100 100 100 100 100 99 99 99 99 97 93 65
99 99 99 99 99 99 81 61 41 29 24 22 22 25 29 32 37 46 70 96 100 99 98 97 96 98 100 99 100 100 100 100 100 100 100 100 100 100 100 100 99 99 99 98
98 98 98 89 53 41 31 22 20 19 18 18 19 19 21 23 24 26 35 53 79 80 86 94 96 95 96 98 100 100 100 100 100 100 100 100 100 100 100 99 100 99 99 99
98 98 98 98 98 93 65 22 18 17 16 18 20 22 24 26 26 27 32 34 31 30 32 40 58 76 88 94 95 97 98 99 99 100 99 100 100 99 99 100 99 99 99 99
98 98 96 56 42 42 58 48 28 26 22 20 19 20 22 25 25 26 29 31 29 30 30 32 30 31 36 49 73 91 96 96 97 98 99 99 99 99 99 99 99 99 99 99
98 98 98 96 69 59 56 43 37 36 32 26 21 20 22 23 24 26 26 28 32 35 35 35 34 33 34 34 38 49 68 89 96 97 98 99 98 98 98 98 98 98 98 98
98 98 98 97 83 84 77 60 51 47 41 25 20 19 22 23 26 28 30 32 34 36 36 37 36 37 38 38 38 38 39 48 70 92 97 97 97 97 97 97 98 97 97 97
85 92 88 79 91 99 90 63 60 56 28 20 22 25 26 28 29 32 33 36 38 40 42 42 42 41 42 44 44 44 44 44 45 49 76 95 97 97 96 97 97 97 97 97
43 67 83 83 85 96 94 72 63 54 28 28 32 34 34 34 34 35 37 40 42 44 46 49 50 51 52 52 53 52 52 52 51 51 49 55 73 93 98 97 97 97 97 96

GFSNGP_850_rhum_093.txt.gz
RH
56 55 56 70 68 61 91 61 71 44 43 29 26 29 29 32 42 49 56 63 64 63 65 70 75 75 64 56 56 58 59 57 55 55 55 55 55 56 57 57 60 62 63 66
70 57 57 65 58 60 59 55 51 49 49 34 33 33 32 31 40 48 56 64 65 66 66 69 72 69 63 61 61 60 58 57 57 58 57 58 60 60 62 64 65 68 72 72
74 56 52 66 58 59 58 54 53 65 48 37 37 33 37 36 40 45 52 60 66 67 67 67 70 72 65 62 61 60 60 59 60 61 62 62 63 65 66 66 68 72 77 78
52 49 57 44 40 45 52 46 48 50 46 42 40 40 43 42 40 40 49 56 62 67 68 70 72 67 65 64 64 64 63 63 64 64 65 66 69 69 69 69 73 79 88 88
57 45 46 57 54 49 53 54 48 50 46 44 47 48 49 47 47 46 43 54 58 64 69 74 68 64 65 65 66 66 65 65 67 70 70 72 72 75 73 74 79 97 99 100
56 61 47 50 47 48 45 63 51 53 49 49 51 57 49 61 56 53 47 63 62 67 72 75 69 66 66 66 66 66 68 69 70 72 73 74 76 77 79 85 91 98 98 100
51 56 43 40 48 52 69 84 58 61 53 50 48 55 64 65 66 56 51 57 68 73 76 75 76 68 69 70 67 70 72 72 74 75 76 77 80 82 83 87 98 100 100 99
52 58 58 40 56 60 52 54 62 63 55 55 62 69 72 71 67 64 62 58 54 52 50 53 58 68 71 72 70 74 75 76 76 77 79 80 84 87 88 95 98 99 99 99
48 47 40 40 44 47 54 54 64 65 63 62 68 72 74 74 73 70 69 68 66 64 63 63 64 66 68 72 74 77 78 77 77 79 79 83 88 87 89 97 100 100 100 100
48 43 41 45 48 52 52 65 70 73 72 72 72 74 77 78 80 77 73 69 67 68 69 69 70 72 75 74 74 74 76 77 79 80 82 87 88 88 91 98 100 100 100 100
45 42 44 52 60 58 66 74 74 76 78 81 80 78 80 77 74 75 78 79 78 74 72 72 71 72 72 73 73 75 77 80 81 84 87 90 92 92 97 99 100 100 99 99
79 52 52 48 55 72 70 76 78 78 74 71 77 78 81 76 74 73 75 76 77 77 79 82 82 80 76 78 81 78 80 82 83 87 90 91 93 97 99 99 99 99 99 99
60 61 61 60 68 72 79 76 75 73 71 71 68 68 69 71 70 72 72 72 74 78 81 82 81 79 79 82 84 84 87 85 84 88 92 94 95 100 99 100 99 99 99 100
69 74 59 75 77 78 81 77 75 74 72 70 70 70 72 72 71 68 65 64 64 64 68 77 85 86 87 86 88 90 92 92 91 94 98 96 97 100 100 100 99 99 99 85
83 83 85 84 82 83 82 81 79 77 76 76 75 75 76 77 77 76 76 74 72 71 74 76 79 90 94 93 96 98 96 93 95 97 99 100 100 100 100 99 99 99 98 80
87 77 89 90 91 90 88 86 85 82 81 80 81 81 81 80 78 78 78 79 80 80 81 83 84 86 94 98 96 99 100 100 100 95 98 100 99 99 100 99 99 99 98 89
100 91 94 95 97 95 94 91 91 89 88 87 83 78 78 77 77 78 80 82 83 84 85 85 92 92 91 98 100 99 99 100 100 99 100 100 100 99 99 99 99 99 99 99
100 100 100 99 100 97 96 94 92 89 84 82 81 80 78 74 71 77 84 86 88 90 92 96 95 97 97 97 100 100 100 100 100 100 100 100 100 100 99 99 99 99 99 99
99 99 100 100 100 100 100 98 91 87 79 57 38 30 29 31 33 40 52 73 89 96 96 98 99 100 98 100 100 100 100 100 100 100 100 100 100 100 100 100 99 99 99 99
100 99 99 99 99 99 99 99 82 42 24 21 19 20 21 21 23 23 28 40 60 86 86 87 90 93 94 97 100 100 100 100 100 100 100 100 100 100 100 100 100 100 100 99
97 98 98 98 98 84 39 30 25 24 24 18 18 20 21 22 23 24 27 35 43 32 29 32 44 63 81 91 94 95 98 100 100 100 100 100 100 99 100 100 100 100 100 99
96 97 98 98 98 98 98 82 29 22 22 22 22 23 22 23 23 24 25 28 27 26 26 28 28 28 27 30 39 60 85 94 98 99 99 100 100 100 99 99 99 99 100 99
96 95 97 98 98 96 94 92 96 79 43 30 29 26 23 22 22 24 29 27 26 27 28 29 30 29 30 31 32 32 36 50 75 92 97 98 100 100 100 100 99 99 98 98
98 98 98 98 98 98 89 52 46 41 42 43 38 27 22 21 23 24 26 26 27 29 31 34 35 34 35 36 36 37 36 36 37 44 60 83 97 100 100 100 99 97 97 97
97 100 98 98 98 98 93 85 71 57 57 52 28 21 20 23 25 26 27 29 30 32 34 36 38 39 40 41 41 42 43 43 42 42 42 45 52 75 94 99 99 99 98 98
61 73 83 95 94 80 90 97 85 61 61 52 25 27 32 33 35 38 41 43 42 40 38 38 38 41 45 47 49 50 52 51 51 52 52 49 49 50 54 72 91 98 98 97
47 46 45 55 74 82 83 94 92 80 63 53 29 31 33 36 38 40 43 47 52 55 55 50 47 49 51 52 52 53 54 55 56 59 58 58 57 56 56 54 56 69 89 97

GFSNGP_850_rhum_099.txt.gz
RH
83 68 73 80 82 81 85 68 82 73 55 47 39 39 37 40 48 53 57 58 56 58 58 60 63 63 64 65 65 63 62 60 56 53 51 46 45 50 54 54 54 53 53 54
87 57 66 81 79 78 72 65 64 59 57 48 40 39 39 42 46 55 58 59 61 60 63 66 66 64 65 64 64 61 58 57 56 55 52 51 54 55 55 55 56 58 60 61
96 60 60 79 67 72 66 57 58 72 60 51 51 47 46 44 44 48 55 62 63 64 66 68 68 67 62 62 62 60 60 59 58 57 56 57 58 58 60 61 61 62 62 61
85 61 78 55 46 53 62 53 51 51 51 50 49 48 52 49 45 43 50 60 63 65 66 67 68 67 66 65 62 62 61 60 59 60 60 61 62 63 64 65 66 66 66 66
80 76 58 61 57 56 57 67 54 58 60 57 53 53 62 59 55 49 46 51 61 63 66 67 66 65 67 67 66 65 64 63 63 63 64 65 67 68 69 70 69 69 71 71
86 82 70 65 53 50 50 88 66 63 59 56 56 76 77 65 59 54 51 52 57 64 67 68 68 69 69 66 66 66 66 67 67 68 69 70 71 73 74 74 73 75 76 76
80 84 64 52 53 52 72 80 66 60 56 61 73 70 70 69 65 61 56 68 66 66 68 70 72 73 71 69 67 70 70 70 71 72 72 74 74 76 78 77 77 80 81 83
79 74 76 53 57 71 66 61 67 66 58 69 70 72 73 75 74 70 65 63 78 76 74 76 78 79 78 75 75 75 75 76 77 78 77 77 77 78 80 80 81 84 85 91
69 73 46 43 45 48 48 50 69 68 64 66 71 73 72 74 73 73 73 71 68 70 77 81 82 82 82 80 77 77 78 79 80 80 78 78 77 78 80 83 85 87 91 97
58 66 64 61 58 61 64 68 72 73 72 71 74 79 81 83 82 82 81 76 73 71 70 71 72 72 74 76 77 77 79 80 80 78 77 78 78 79 83 87 89 91 93 100
75 69 61 58 62 62 69 75 75 77 81 81 82 82 80 80 79 78 78 78 80 80 79 78 77 75 75 76 77 78 78 78 78 78 78 81 82 82 85 89 93 94 97 100
94 80 80 72 63 68 75 78 79 79 80 82 81 80 78 74 75 75 74 74 75 77 80 80 81 82 84 85 85 81 80 80 81 81 84 87 86 86 87 90 96 99 100 100
71 69 64 69 83 74 80 80 79 80 79 74 72 72 76 76 76 74 69 66 64 64 66 69 72 76 82 88 89 86 86 90 89 88 90 92 92 94 98 100 100 100 100 100
72 63 77 71 72 75 79 84 82 82 79 82 91 91 91 78 75 74 72 72 74 75 74 73 73 74 77 82 90 94 93 93 93 95 98 99 99 100 100 99 99 99 100 100
81 79 78 78 83 85 86 87 86 84 84 83 80 80 81 80 81 79 77 75 76 77 80 81 81 80 81 82 83 88 99 99 100 100 100 100 100 100 100 100 99 99 99 100
98 96 98 93 96 97 95 92 93 90 89 89 91 98 89 81 78 77 77 76 76 77 80 84 84 84 85 83 86 93 99 100 100 100 100 100 100 100 100 100 100 100 100 99
99 97 100 100 92 89 95 95 94 96 98 98 99 96 82 81 78 76 63 51 62 82 88 90 91 94 93 93 93 98 100 99 100 100 100 100 100 100 100 100 100 100 99 99
100 99 100 99 99 98 100 100 100 100 100 100 98 83 65 44 32 27 26 25 28 49 80 90 88 89 94 98 99 100 99 99 100 100 100 100 100 100 100 100 99 99 99 100
99 97 97 100 100 100 100 99 99 99 99 98 84 38 30 25 23 22 22 23 28 42 38 27 26 30 49 76 84 91 97 98 99 99 99 99 99 99 99 99 99 99 100 99
99 98 99 100 98 100 100 99 98 98 97 82 32 27 27 26 26 26 24 23 26 28 24 23 23 24 24 25 25 26 28 47 78 95 99 99 99 99 99 99 99 99 99 99
96 98 100 100 100 98 98 95 88 58 73 88 73 48 46 53 44 27 24 22 27 24 23 22 22 24 25 25 26 27 27 26 27 28 34 55 87 99 100 100 98 98 98 98
100 100 100 100 100 97 94 94 93 97 96 91 98 98 96 76 56 28 22 21 25 24 25 26 26 28 31 33 33 33 33 33 32 32 31 30 32 33 40 60 90 100 100 100
100 100 100 100 99 100 100 100 98 96 70 51 46 46 49 39 26 21 20 22 25 28 31 32 35 36 37 37 37 38 41 43 43 41 40 40 41 40 39 39 45 59 65 91
77 99 100 99 100 99 98 99 98 97 98 97 96 85 42 21 22 26 28 32 44 49 52 54 56 57 57 53 48 46 47 50 52 52 52 53 53 54 54 52 51 50 49 51
65 67 97 99 97 100 100 99 99 98 92 79 62 62 55 31 30 39 43 43 41 42 45 48 53 57 59 58 51 48 48 49 50 53 55 57 58 58 57 58 55 55 58 58
50 54 58 63 75 73 80 91 93 83 84 95 85 71 61 46 33 31 31 30 28 28 30 36 45 53 57 58 54 52 53 57 60 62 63 64 66 66 66 65 64 63 63 62
46 42 42 45 48 48 45 46 57 73 85 96 91 92 78 61 49 33 30 29 28 28 28 32 45 55 59 59 55 56 60 64 67 67 67 69 71 71 71 71 71 71 72 72

GFSNGP_850_rhum_105.txt.gz
RH
84 74 80 78 81 84 86 86 90 89 74 55 52 48 45 44 54 55 56 51 47 44 47 59 60 59 57 56 53 51 49 50 52 52 54 57 54 53 54 54 53 52 52 52
85 68 78 86 80 81 78 87 85 82 75 54 50 50 51 50 50 53 57 59 57 58 53 56 63 62 61 59 56 56 58 61 62 61 60 60 63 61 56 52 53 54 56 57
83 68 67 81 69 81 75 64 80 80 66 51 52 54 58 55 51 50 51 59 61 60 60 60 60 62 63 64 63 64 64 66 69 69 69 66 58 56 57 56 57 59 60 61
88 64 79 59 53 63 67 64 57 57 56 58 58 63 62 63 58 51 50 54 61 64 63 62 63 65 67 67 65 66 68 65 62 61 60 59 59 59 60 61 62 63 65 66
83 81 60 69 66 74 65 76 70 66 62 57 57 62 66 64 62 60 54 49 52 61 65 66 67 71 72 68 68 66 63 63 63 64 64 62 62 63 64 65 67 69 70 70
88 84 78 64 55 52 54 89 69 61 58 61 60 72 72 72 70 66 61 56 49 52 63 67 68 68 68 67 65 63 64 65 66 65 64 65 66 67 70 71 72 72 73 74
85 90 72 52 58 56 66 66 68 59 58 63 68 67 74 74 71 70 66 60 58 56 64 68 69 69 68 69 68 72 70 69 69 70 70 70 70 72 73 74 74 76 75 75
86 87 84 56 60 70 65 67 74 66 61 67 68 72 74 74 74 73 71 80 82 73 71 71 71 72 73 74 76 75 74 73 73 74 74 75 76 77 78 79 78 77 75 74
72 73 68 77 76 78 73 60 71 72 66 67 72 77 76 80 80 77 75 74 83 85 78 75 74 75 77 79 80 79 78 78 78 79 81 81 81 82 82 81 78 75 74 74
75 76 78 71 69 69 77 76 78 76 75 74 74 78 83 85 83 82 82 78 75 75 78 82 83 82 81 81 82 84 84 82 83 84 84 85 87 86 84 81 81 78 78 79
83 71 71 74 77 73 79 82 80 81 82 80 82 84 84 80 80 79 78 78 79 79 77 76 76 77 78 80 82 83 85 87 88 88 89 90 88 86 83 85 86 85 87 86
84 78 78 78 76 80 69 79 84 84 83 88 88 88 86 78 75 75 75 75 73 71 71 72 75 78 80 81 81 81 81 82 84 85 85 86 86 85 86 91 92 94 95 94
73 73 71 71 76 80 75 70 79 84 86 85 85 87 81 78 78 76 71 67 68 67 67 67 67 68 68 70 73 77 82 86 86 88 88 88 90 91 92 96 96 97 98 98
67 64 67 72 78 76 72 80 83 87 88 85 83 84 85 83 83 89 88 86 78 77 76 76 76 76 77 77 76 76 76 79 84 90 94 94 95 96 97 100 99 99 100 98
71 72 73 76 80 86 88 94 94 93 92 92 92 94 96 95 90 85 88 87 80 77 77 78 79 80 80 80 80 80 79 80 81 84 94 98 100 100 99 100 99 98 100 100
81 82 82 93 94 93 89 87 90 91 90 94 95 94 95 98 100 100 99 95 80 80 79 78 79 82 82 82 84 84 84 83 84 88 95 99 98 99 99 100 100 100 99 100
77 89 96 92 97 99 97 96 94 90 96 99 100 100 100 100 100 100 96 74 40 33 40 52 69 82 84 87 87 87 90 93 98 99 100 100 100 100 100 100 100 99 99 100
85 97 98 99 99 97 97 100 99 100 100 100 100 99 100 99 98 83 42 31 24 29 47 52 34 26 25 28 42 61 72 79 90 99 100 100 100 100 99 100 100 100 100 100
87 99 98 98 99 98 98 99 100 99 99 99 98 99 99 99 98 94 69 30 35 39 45 28 24 23 24 24 23 24 25 26 26 31 53 90 100 100 99 99 100 100 100 100
93 99 98 98 98 97 97 100 100 98 96 95 96 98 97 91 76 66 66 47 36 40 38 25 23 23 24 24 26 27 26 27 27 27 27 28 30 41 73 99 100 100 100 100
98 99 99 99 98 100 100 99 94 93 90 79 86 92 87 78 80 90 97 96 94 93 72 26 23 25 26 28 29 30 31 31 31 32 32 32 32 32 31 31 33 38 46 84
94 100 98 98 97 99 100 97 91 90 90 94 97 98 98 98 80 61 53 50 29 26 28 28 34 39 46 51 55 55 54 49 44 40 40 39 40 40 40 40 40 42 44 43
62 97 99 99 98 99 99 99 100 96 90 96 94 90 71 55 53 38 29 26 25 26 34 49 52 53 53 54 55 54 53 53 51 47 45 45 46 45 46 47 49 50 52 54
61 63 72 94 99 99 98 100 99 99 94 97 94 97 96 93 69 44 32 38 47 45 48 43 42 39 36 37 42 48 52 52 53 51 51 52 54 57 58 59 60 62 62 63
60 66 70 76 80 82 98 100 99 100 100 98 98 99 96 68 62 58 40 34 41 43 38 33 30 30 29 29 36 49 54 56 56 53 53 56 59 61 62 65 67 66 65 65
49 49 53 55 59 71 81 97 98 96 99 99 97 87 86 96 88 74 60 48 37 34 33 32 31 28 29 32 44 54 60 61 57 57 60 62 64 66 66 65 64 64 64 65
44 46 47 44 43 46 53 58 56 50 56 55 54 70 78 92 94 93 76 63 56 47 38 34 34 39 40 44 55 61 63 59 60 63 65 65 65 65 65 64 64 65 66 66

GFSNGP_850_rhum_111.txt.gz
RH
80 79 81 87 88 87 95 87 83 77 73 69 66 66 66 60 55 57 64 63 65 65 66 54 52 54 65 66 63 58 60 63 59 65 76 79 80 82 82 80 77 74 54 52
81 82 79 81 83 82 83 80 83 76 77 60 59 60 64 67 57 60 65 68 67 69 72 71 68 63 63 63 61 60 58 57 58 59 62 66 67 66 70 70 59 54 56 54
82 69 74 80 70 80 75 78 71 82 69 61 69 74 77 66 66 65 59 63 68 68 68 75 75 72 69 64 61 58 57 58 58 58 57 59 60 61 59 60 61 59 57 57
86 60 85 61 65 60 74 81 72 70 70 66 70 75 72 72 67 64 63 56 55 63 70 68 71 73 72 70 68 67 64 61 61 61 62 65 65 66 66 65 62 60 59 57
80 84 63 72 69 81 71 91 79 72 64 63 64 67 73 77 73 72 68 63 57 52 60 67 70 70 70 71 73 75 76 76 75 74 72 72 72 71 66 62 60 62 64 68
87 82 82 71 60 60 65 94 75 60 65 68 60 70 72 75 72 69 70 67 61 54 53 67 69 72 74 74 73 74 74 74 73 73 72 70 69 67 66 65 68 69 71 71
88 90 73 56 63 64 67 68 82 65 67 68 74 73 77 75 75 74 70 72 79 74 66 71 73 75 76 78 75 73 73 74 74 74 74 72 70 68 67 68 70 73 74 74
89 88 84 73 68 64 62 70 81 75 70 73 75 78 77 80 79 75 73 79 86 82 79 77 78 78 78 78 76 76 74 72 72 74 73 71 70 72 72 74 76 75 74 73
72 72 69 85 82 84 80 81 84 82 79 74 75 77 80 84 82 79 77 75 83 89 84 80 78 80 82 81 81 80 79 79 79 78 77 77 77 77 76 76 76 79 80 76
80 80 79 81 83 85 84 82 84 85 82 81 78 78 78 74 80 78 78 78 77 78 82 87 86 86 86 85 85 84 84 84 83 81 82 81 82 82 84 85 85 83 83 80
83 80 79 81 77 81 86 84 84 83 85 85 80 75 81 86 83 79 79 78 78 79 80 81 82 84 88 91 93 95 96 98 97 97 97 94 94 92 89 88 90 91 87 82
84 70 70 71 80 80 75 70 69 77 85 87 79 87 90 88 81 78 76 73 70 69 69 70 73 76 78 82 85 87 90 91 93 96 100 97 95 98 95 96 96 92 88 90
74 70 76 76 75 75 76 75 72 68 79 87 86 86 88 91 85 82 78 75 74 75 76 78 78 77 75 75 75 76 77 80 84 88 90 94 96 96 95 98 96 94 94 95
76 76 79 80 77 76 79 78 78 79 77 82 88 89 90 88 89 89 90 96 98 97 98 96 98 91 78 76 77 77 77 78 80 81 83 84 86 90 96 99 99 99 99 99
73 68 61 65 69 72 76 78 82 82 81 87 90 93 94 97 99 99 98 96 94 99 99 99 99 95 82 77 77 79 79 79 79 80 82 82 82 82 86 90 93 98 100 97
70 67 65 66 70 75 80 86 85 84 84 82 79 79 82 86 91 94 99 99 99 99 99 80 60 77 70 64 70 80 85 85 85 83 83 86 87 88 92 98 99 98 99 100
72 80 70 69 75 85 86 97 97 100 97 96 95 96 96 96 100 100 100 100 98 99 94 88 81 68 59 29 28 27 27 34 45 60 75 87 100 100 100 99 99 99 99 99
58 56 62 67 75 86 95 98 99 98 99 98 98 98 98 96 93 94 96 94 80 53 44 44 48 35 26 24 25 26 25 25 26 26 26 28 34 64 97 100 100 100 100 99
62 64 64 66 77 91 97 98 98 99 99 98 98 95 92 84 83 90 92 91 83 65 63 64 66 58 45 48 48 30 26 29 30 31 32 32 33 32 32 36 65 92 98 99
69 70 69 72 82 96 99 98 98 99 99 99 98 90 84 87 90 88 77 68 67 77 87 88 93 94 92 90 63 32 39 48 51 49 46 42 40 39 38 39 39 39 42 46
70 69 68 70 80 91 99 99 99 100 98 95 92 84 83 86 83 80 85 86 90 75 51 36 35 31 31 37 50 58 58 55 54 55 55 53 51 49 48 48 48 47 48 49
66 65 64 66 71 90 100 99 100 100 95 89 86 87 92 90 91 90 75 56 43 31 26 25 26 40 52 55 55 52 49 48 45 46 51 53 53 52 51 51 52 53 53 54
63 58 58 56 62 79 99 99 98 98 99 94 92 93 93 94 92 84 79 92 75 62 61 57 40 55 75 87 70 46 38 36 38 49 53 56 58 57 55 57 58 60 60 61
56 57 53 56 62 65 68 74 96 95 98 96 90 96 95 96 96 98 98 90 65 58 43 36 38 45 48 42 35 32 30 31 39 54 60 61 60 58 61 63 64 65 64 64
59 56 54 56 56 56 58 66 77 81 91 94 98 99 99 98 97 94 98 98 81 69 65 44 40 41 39 36 36 34 35 42 49 61 62 58 59 63 66 67 67 64 64 64
59 48 51 52 49 50 51 57 54 62 73 73 79 93 95 96 96 98 94 85 91 94 87 67 58 48 44 43 42 47 54 51 60 66 63 62 64 66 66 64 63 61 60 59
64 51 45 46 43 42 44 43 44 44 59 62 53 54 56 56 56 64 74 86 95 95 89 77 72 69 67 65 68 68 57 61 67 62 61 63 64 64 62 60 59 58 57 58

GFSNGP_850_rhum_114.txt.gz
RH
68 67 68 73 71 64 88 65 77 62 64 59 56 54 55 56 63 74 82 80 78 75 61 58 64 76 74 71 61 59 60 61 61 61 65 72 93 97 89 87 82 79 80 79
74 56 53 63 63 57 62 58 58 55 64 51 55 53 56 61 63 68 72 78 75 76 78 76 71 69 77 78 78 74 65 61 63 70 76 91 90 85 85 84 82 82 76 58
75 59 60 65 72 68 63 62 57 65 62 51 55 61 69 68 68 72 75 76 69 74 70 76 78 74 69 69 72 72 75 81 85 89 90 90 91 90 85 80 75 66 57 56
59 50 67 60 58 61 68 68 59 59 56 56 61 70 75 78 76 75 78 73 67 61 69 66 71 73 72 69 68 68 67 63 65 70 74 72 72 72 69 64 60 59 60 57
57 61 63 61 62 75 68 77 62 54 52 57 65 64 69 79 79 83 77 72 67 63 64 66 65 68 71 72 71 70 70 71 71 68 68 68 66 65 65 66 65 62 60 60
62 64 67 58 54 60 57 79 64 56 57 56 54 49 60 83 75 72 78 86 75 66 66 74 73 71 68 71 76 77 75 75 76 78 78 77 75 74 72 69 65 64 65 67
61 65 57 49 55 62 56 71 73 64 67 63 56 67 79 79 79 78 76 82 85 81 77 79 80 80 80 77 73 71 73 77 79 79 78 77 75 73 71 69 69 71 74 75
64 67 70 64 63 54 61 74 78 74 74 75 78 80 82 84 82 79 76 77 86 84 86 86 86 88 86 83 81 77 74 72 73 72 73 75 75 73 70 71 72 72 73 73
52 53 69 83 76 82 76 76 85 83 78 76 77 77 82 81 79 80 81 79 79 85 86 85 87 89 89 87 88 87 86 85 85 84 80 77 75 74 74 75 76 78 78 78
64 68 70 78 87 88 87 88 85 84 82 81 80 81 77 71 72 74 74 76 81 82 81 86 88 87 88 88 89 89 89 89 89 89 89 88 87 86 86 84 84 84 85 86
64 71 75 77 81 87 84 82 81 82 84 82 78 76 77 84 80 76 73 70 68 68 70 77 83 85 87 92 97 94 98 96 97 96 95 95 96 96 96 95 95 94 92 91
52 55 54 59 76 74 74 71 70 76 83 85 79 82 83 79 79 78 74 72 69 68 70 70 71 72 73 77 82 85 87 91 96 98 100 100 98 100 100 98 100 100 100 98
56 68 69 73 74 75 76 74 72 67 72 84 84 88 89 86 78 72 76 83 83 94 99 98 97 97 90 75 74 77 81 84 85 88 92 96 99 100 99 100 100 99 98 96
63 65 82 80 75 72 73 72 73 70 69 74 82 86 88 90 87 86 86 88 93 95 96 98 100 100 99 100 99 86 82 84 85 86 87 88 90 91 92 94 97 98 100 99
72 66 64 68 70 64 64 67 73 76 76 79 84 89 93 95 95 96 98 99 97 93 94 94 93 97 96 94 94 94 91 83 88 86 87 88 90 92 92 90 87 88 92 96
79 72 62 62 61 60 62 70 74 79 81 86 85 85 82 78 87 91 95 98 99 99 99 99 96 86 65 61 60 57 50 75 77 78 83 86 90 96 98 98 95 98 99 100
75 80 71 67 60 58 62 70 76 87 97 98 98 97 97 99 98 99 99 100 99 96 94 90 68 59 65 71 78 76 53 24 23 25 25 30 51 80 98 100 100 100 100 100
60 56 56 51 51 60 64 70 87 98 99 98 98 97 98 98 100 94 90 91 90 85 76 60 52 46 33 28 28 30 30 29 25 24 25 27 28 30 33 64 98 100 100 100
67 53 53 57 54 57 62 73 87 95 99 98 98 96 97 93 90 83 86 91 88 80 69 69 68 64 53 44 53 67 69 60 44 38 33 32 32 33 35 36 37 48 82 99
63 61 61 53 51 52 60 68 88 97 98 98 98 99 95 86 84 88 86 78 69 70 79 89 87 90 88 74 79 73 45 57 62 57 55 55 53 51 48 46 44 43 42 43
63 62 59 54 52 52 55 62 90 99 98 98 99 97 90 83 84 82 78 81 86 81 71 57 43 38 33 34 45 54 58 60 54 49 50 48 50 52 53 53 52 52 50 50
65 64 59 55 48 51 54 64 90 99 100 99 94 91 85 86 90 88 86 78 60 54 44 33 28 27 35 53 57 59 68 71 68 65 56 57 73 59 53 53 54 56 56 57
66 63 57 48 45 54 64 77 94 99 98 99 99 89 90 92 94 92 86 83 86 88 65 54 53 50 43 59 76 75 48 38 34 32 37 51 59 65 66 61 59 60 66 68
63 56 53 49 55 59 58 62 74 84 94 96 99 87 90 89 92 95 96 97 97 95 73 61 50 39 40 45 49 45 38 36 35 37 45 58 66 66 63 62 63 69 73 68
55 57 51 48 51 52 56 59 64 65 71 76 84 92 96 93 97 96 99 98 99 100 95 76 71 56 46 44 43 40 39 39 43 50 52 65 68 64 67 68 68 68 67 66
58 56 49 48 49 51 51 52 52 55 60 60 64 68 79 90 93 91 81 95 100 92 86 92 92 78 64 58 54 53 52 57 62 56 61 68 66 65 66 67 68 66 66 64
62 62 58 47 42 46 48 44 44 39 44 49 50 57 61 58 59 58 61 65 72 81 94 96 92 81 73 69 69 68 70 69 60 62 67 64 64 64 63 64 65 63 62 62

GFSNGP_850_rhum_120.txt.gz
RH
57 57 64 70 65 66 72 68 93 77 78 69 65 62 62 66 74 84 92 99 100 98 95 100 100 100 93 91 84 80 90 88 85 85 89 96 98 100 93 99 96 98 85 78
64 52 62 74 77 69 87 96 65 76 76 61 64 67 67 69 74 79 85 90 92 97 91 89 90 100 100 93 76 78 83 99 96 95 92 97 100 95 94 88 85 90 96 100
71 50 51 81 90 69 65 58 60 81 66 63 72 72 74 75 80 87 90 86 88 89 94 93 90 91 98 92 85 81 83 91 99 100 99 98 99 99 98 99 100 100 100 97
76 48 80 62 56 61 61 58 53 55 59 67 75 78 79 80 87 93 93 89 88 85 81 81 85 82 83 96 100 98 100 100 100 100 100 100 100 99 98 99 99 100 99 89
74 73 66 62 60 63 68 73 58 59 54 58 72 68 83 82 87 94 94 91 94 95 86 80 79 82 83 81 79 82 98 98 100 100 100 100 100 100 99 100 100 99 95 92
62 71 76 64 55 53 55 84 58 58 61 63 54 92 92 85 82 86 88 85 76 78 81 78 84 79 72 75 80 82 81 80 84 93 99 98 99 100 100 100 100 98 94 86
61 75 62 50 53 52 70 82 59 62 64 70 86 82 85 84 83 80 87 88 88 83 80 80 80 76 72 74 71 75 78 81 83 82 80 80 81 84 84 84 82 80 74 70
60 60 80 54 55 71 73 63 64 68 70 74 79 83 81 84 87 83 81 80 82 80 81 83 80 79 77 74 77 76 74 74 74 77 81 84 84 82 80 78 78 76 74 73
65 72 64 66 68 64 64 68 72 74 74 75 78 82 81 82 81 82 84 81 77 80 87 88 86 84 84 86 86 86 83 80 79 78 80 80 82 82 82 83 82 82 80 77
64 67 70 72 73 72 70 77 78 78 77 75 79 81 81 81 76 69 67 71 80 73 69 71 75 80 86 89 88 88 89 90 92 92 86 84 86 86 86 86 85 85 86 85
64 63 64 68 72 75 76 74 75 79 79 78 79 81 81 81 78 76 73 71 69 69 75 77 77 75 71 68 68 81 84 92 96 95 94 92 97 97 97 96 92 92 97 94
60 54 58 58 68 71 68 68 69 73 76 79 83 87 88 84 80 77 76 77 77 81 87 83 85 83 79 77 79 84 82 70 72 84 95 99 100 100 99 100 100 100 99 99
44 45 49 53 65 69 68 63 62 67 69 81 75 85 87 86 84 85 81 80 81 84 93 96 97 97 90 86 80 78 83 87 90 78 72 74 82 89 96 100 100 100 100 100
49 51 65 64 68 70 66 65 67 67 66 65 66 71 81 83 86 90 90 90 92 94 82 90 92 92 92 89 83 76 75 77 85 92 92 82 78 79 85 91 95 96 99 100
55 50 53 58 63 64 66 66 67 66 65 63 66 71 71 78 87 90 93 93 93 93 88 87 91 90 89 86 81 74 70 68 56 56 67 75 77 81 85 86 90 95 98 98
65 62 64 60 62 64 66 68 64 64 63 64 78 73 70 77 81 82 84 86 88 89 89 91 91 86 83 76 66 59 53 56 64 56 42 29 24 23 29 51 74 78 79 95
70 70 69 69 68 66 66 63 59 61 63 66 76 80 87 92 96 98 98 97 92 92 88 83 82 80 77 69 55 41 32 29 30 34 39 40 38 35 31 29 30 27 30 68
53 51 54 57 62 66 63 58 53 54 52 52 61 80 97 98 92 92 94 98 94 86 81 84 86 81 71 69 66 66 61 60 68 61 54 49 49 50 48 44 40 37 36 33
63 54 56 59 59 59 56 52 51 48 46 53 66 79 88 94 93 94 98 93 84 81 82 80 71 70 75 77 76 76 66 60 66 53 59 68 62 57 53 50 50 52 53 49
66 61 57 58 57 52 49 48 39 38 41 51 67 76 84 90 97 100 97 86 81 82 76 71 74 80 71 58 56 49 32 37 42 51 63 58 57 67 70 70 77 75 58 57
59 59 56 54 50 48 44 38 36 39 41 48 59 70 82 90 100 100 95 85 79 78 78 80 66 55 48 40 34 33 33 49 57 58 57 70 66 44 32 34 48 57 69 68
56 56 53 48 50 44 41 41 35 36 44 49 54 67 89 98 96 92 89 82 85 87 86 84 70 73 70 62 59 49 39 48 61 76 89 60 42 34 33 40 52 62 64 67
57 56 50 50 49 46 44 35 36 43 43 47 53 61 70 79 93 90 84 85 89 93 94 93 92 94 95 89 67 50 45 48 53 62 56 48 40 38 40 49 58 65 65 64
60 56 54 56 52 48 36 37 43 43 46 48 50 55 63 65 72 87 88 88 91 95 95 97 97 97 99 96 84 68 56 49 48 50 49 45 44 46 57 58 64 70 68 69
62 58 58 55 50 45 36 40 43 44 48 46 46 48 54 59 64 61 68 70 82 91 97 100 100 94 96 97 96 81 78 77 60 57 55 56 59 66 66 64 70 69 69 70
60 59 58 53 52 44 39 41 44 46 46 42 40 38 39 43 48 52 61 69 69 68 69 72 71 80 96 93 92 95 94 78 70 68 68 70 73 73 66 69 68 66 68 69
65 65 60 56 54 52 50 49 48 45 47 46 44 42 40 36 39 44 50 56 62 65 69 78 83 87 91 98 100 97 89 84 81 80 78 79 78 69 70 68 64 64 66 68

GFSNGP_850_rhum_123.txt.gz
RH
73 64 79 91 95 96 94 98 97 95 89 87 83 84 89 94 97 98 100 99 100 100 100 100 100 100 100 100 100 100 99 99 98 97 89 94 100 95 98 97 96 99 95 99
63 62 72 95 80 77 84 70 78 85 89 76 78 80 86 95 96 99 100 100 99 95 97 100 100 100 100 100 98 99 100 99 100 100 100 100 100 100 100 100 100 100 92 97
77 57 56 84 93 70 68 66 68 92 83 79 84 83 88 96 99 100 100 99 100 98 92 86 93 99 100 99 100 100 100 100 100 100 99 99 100 100 99 100 100 100 100 100
82 59 91 69 61 63 72 67 64 66 76 81 85 87 89 95 100 100 100 100 96 93 90 84 82 83 73 85 92 98 99 99 100 100 100 98 98 98 99 99 100 99 99 100
75 86 73 71 63 62 72 80 70 71 68 76 75 72 86 88 100 100 100 100 97 92 91 86 82 78 73 73 76 92 99 100 100 100 100 99 99 99 99 99 99 100 100 100
67 79 80 67 58 54 57 89 68 70 78 75 69 93 92 88 90 95 96 96 96 92 85 82 82 74 68 71 72 73 74 74 79 94 99 97 99 100 100 100 99 98 99 100
71 80 70 56 54 54 74 83 70 69 74 76 92 87 86 80 81 86 88 90 89 82 83 86 84 76 73 72 73 77 74 72 74 77 78 78 82 85 89 93 96 98 98 95
68 69 70 56 58 69 70 66 69 72 74 80 82 82 82 81 75 75 79 82 84 77 82 88 85 80 77 76 84 82 80 78 76 75 75 76 80 82 82 82 80 81 82 88
66 64 67 67 67 69 65 70 72 73 74 76 80 74 71 68 66 66 66 69 72 74 80 80 80 82 81 89 88 87 86 86 85 84 84 84 82 80 80 82 84 85 86 84
66 64 72 72 68 70 68 73 75 73 78 78 80 78 77 74 68 64 63 62 62 61 62 65 67 67 69 70 76 80 78 79 85 89 91 93 93 93 92 90 88 88 87 87
71 70 70 72 71 73 72 69 73 75 77 80 80 82 80 80 75 71 69 68 68 67 65 64 65 64 67 70 69 67 72 73 73 78 87 96 98 98 98 98 100 100 100 99
72 63 64 59 63 72 68 66 67 68 77 83 84 84 86 84 80 81 80 77 74 72 73 73 68 69 66 63 62 61 62 70 75 82 80 75 78 89 99 99 99 99 99 100
43 41 51 46 62 67 64 66 68 69 72 73 84 92 92 90 90 87 85 85 86 88 93 90 90 92 80 71 65 63 63 67 73 78 88 90 84 77 70 74 90 97 100 100
40 46 61 61 73 70 64 64 65 68 68 69 72 77 81 84 89 91 92 93 95 99 99 90 88 95 87 82 79 76 72 72 71 68 68 73 82 83 82 81 75 69 80 89
48 45 44 57 62 72 69 65 69 69 66 65 66 68 71 77 84 88 94 99 98 96 96 96 96 93 90 86 80 74 69 66 60 56 57 51 38 29 26 32 47 68 78 84
56 53 53 56 59 66 68 70 69 67 62 61 61 63 66 72 80 88 90 90 91 94 94 91 87 82 79 76 74 67 55 45 36 34 35 35 36 35 32 27 23 23 27 37
62 67 64 64 63 64 63 64 65 58 55 58 60 64 70 79 85 93 98 100 99 96 92 85 81 82 83 81 72 64 59 53 51 60 69 68 66 61 57 54 51 47 43 37
36 38 44 41 51 58 64 65 59 51 48 48 47 52 61 67 76 89 89 87 92 93 90 81 81 81 75 70 70 69 70 70 68 69 57 51 59 61 57 53 51 49 48 48
48 44 46 51 54 56 60 57 52 48 44 39 43 48 57 68 76 82 93 89 93 84 79 78 76 68 69 76 77 72 67 47 35 42 46 55 66 62 62 68 65 59 64 71
53 54 51 54 57 58 55 53 49 46 38 39 43 48 57 67 78 86 93 91 90 83 77 74 72 75 78 74 61 50 48 44 36 50 58 62 59 64 70 45 32 31 40 52
54 57 55 56 55 54 52 47 42 36 35 32 36 44 51 57 68 78 80 84 83 81 80 79 80 79 63 58 53 47 46 39 38 51 62 64 74 76 49 37 34 36 45 57
52 55 55 54 52 49 48 42 38 38 31 35 41 43 45 50 61 72 80 79 80 85 88 89 91 89 82 85 82 77 64 56 50 48 57 70 85 65 46 39 39 47 52 62
53 55 56 54 48 46 44 42 39 30 34 38 39 42 45 53 57 67 72 80 80 86 88 91 94 97 100 100 99 99 97 72 64 49 48 53 56 53 46 46 52 60 60 68
60 61 58 54 54 50 45 42 31 33 36 37 39 43 45 47 49 56 64 71 80 82 84 89 91 98 100 100 99 98 98 97 74 62 62 55 54 52 56 61 68 65 68 71
64 61 59 55 53 50 49 35 32 34 37 38 37 38 38 39 35 37 44 50 56 61 64 74 88 94 93 88 94 90 96 96 86 94 74 66 65 66 71 77 73 70 72 69
68 65 58 54 54 52 45 34 34 36 38 40 42 41 39 36 34 32 32 35 40 50 58 66 69 70 74 76 80 93 94 97 98 87 77 76 78 80 82 78 72 75 72 71
72 69 67 66 60 55 45 39 40 45 46 45 44 44 43 42 41 41 39 37 42 48 54 62 73 82 86 91 97 100 100 99 96 94 90 86 85 84 79 74 75 70 70 71

GFSNGP_850_rhum_126.txt.gz
RH
99 82 82 86 88 80 89 92 95 95 94 98 96 97 97 100 99 98 100 100 100 100 100 100 99 100 100 99 100 100 98 100 95 99 100 100 98 100 99 99 99 91 80 86
76 76 79 91 85 72 74 75 78 79 92 79 84 90 95 99 98 99 100 100 100 100 100 100 100 100 99 100 100 100 100 100 100 89 88 92 94 100 99 95 92 96 100 100
74 61 57 81 93 82 76 74 76 92 85 81 88 90 96 99 100 100 100 100 100 100 100 100 100 99 98 100 100 100 100 100 100 100 98 100 100 100 100 100 100 97 98 100
82 62 82 63 67 67 76 77 74 72 78 83 89 90 97 100 100 100 100 95 95 96 92 87 89 98 99 100 100 100 99 99 100 100 100 100 99 100 100 100 100 100 100 100
77 92 76 69 66 64 74 78 76 76 78 76 77 71 88 96 99 100 100 100 95 86 84 79 77 80 77 78 79 89 98 99 99 99 98 98 97 97 94 96 98 99 100 100
73 81 82 62 59 57 58 78 74 73 83 80 71 91 95 93 97 98 98 94 89 85 82 78 75 70 63 67 70 76 81 82 82 83 93 99 99 99 97 95 96 98 99 99
76 82 72 57 57 54 77 69 72 72 80 77 93 91 91 87 86 90 92 88 82 78 77 82 78 70 69 72 72 75 73 72 71 73 76 79 82 81 80 80 86 91 95 94
73 71 61 54 60 66 63 72 68 72 78 81 83 82 79 78 77 78 85 89 90 87 86 86 84 78 76 76 85 84 82 77 75 73 72 72 70 72 75 80 82 83 82 81
61 61 60 65 61 62 63 67 73 71 74 72 72 73 74 68 66 64 64 64 62 62 63 68 67 68 67 78 83 73 67 67 75 79 82 84 82 80 79 80 79 78 80 82
60 60 74 69 71 64 63 59 62 64 70 73 70 72 74 74 70 71 69 66 69 71 69 67 70 69 67 67 64 66 69 69 68 70 73 76 86 91 94 94 93 93 91 90
71 69 73 72 70 69 69 65 64 67 67 69 71 70 73 70 71 71 72 73 75 76 76 78 82 80 73 67 66 62 59 61 67 72 75 76 83 89 97 99 98 96 95 96
60 59 61 60 64 72 71 66 63 67 72 70 68 68 66 67 66 64 66 68 72 77 81 79 76 76 76 73 70 67 63 62 64 70 74 80 83 80 81 91 98 98 99 98
37 41 44 48 54 70 69 63 62 62 64 69 75 81 78 73 70 71 70 72 74 75 77 75 73 69 76 73 68 66 66 67 69 72 69 70 77 82 84 84 82 80 88 96
36 40 59 53 61 67 65 57 60 63 68 68 72 78 84 84 86 84 85 85 84 84 83 81 78 80 76 71 71 69 67 71 71 68 61 57 50 43 38 35 41 49 64 79
42 40 35 40 52 63 63 62 65 65 66 69 70 71 78 84 86 87 92 94 99 100 100 96 88 86 83 79 74 70 71 67 61 52 46 44 43 42 40 37 35 30 25 26
48 46 43 45 55 64 66 66 60 63 66 66 64 65 67 70 77 84 88 90 92 92 95 94 90 87 81 80 78 76 68 60 51 44 47 61 65 64 62 58 56 54 51 48
58 61 57 61 58 65 63 58 58 61 65 64 57 60 66 71 77 84 90 92 100 100 98 95 88 82 82 84 81 70 64 65 65 65 64 62 52 53 55 55 53 52 52 52
34 33 39 33 48 54 63 62 63 66 64 56 57 63 66 65 63 73 85 92 94 90 94 91 84 82 81 73 70 71 71 69 65 50 49 50 49 61 67 64 66 66 55 50
41 37 39 42 43 47 52 59 62 62 59 53 50 44 48 55 59 70 82 79 86 87 87 80 79 76 69 70 78 78 69 63 56 40 38 46 49 63 60 64 68 43 32 30
39 39 44 43 49 50 54 58 61 58 50 47 41 41 41 48 56 68 80 70 78 89 84 79 77 74 76 78 76 66 57 49 45 42 39 52 61 62 63 75 57 41 34 34
39 40 46 49 50 55 58 57 55 49 46 38 36 33 36 46 55 62 70 61 83 84 78 77 79 80 82 77 68 69 67 62 61 56 48 47 57 67 84 89 61 42 38 41
46 46 47 49 53 56 60 59 54 50 39 35 30 34 39 43 48 51 58 64 79 80 80 84 88 91 92 92 91 92 92 91 92 79 69 67 55 58 67 61 52 44 46 58
51 52 52 54 54 55 56 55 51 41 38 28 32 36 39 44 46 48 52 62 72 76 77 79 86 90 95 100 100 99 99 98 98 97 95 76 55 58 57 56 52 56 64 69
60 63 62 60 61 61 55 50 44 40 32 35 36 37 39 42 42 42 47 51 55 61 62 69 76 81 88 90 90 99 94 93 94 99 96 76 86 77 62 63 67 72 77 71
69 70 69 68 65 58 53 48 44 33 33 36 36 36 35 34 33 35 34 36 39 45 50 59 66 70 72 72 76 81 84 90 91 95 95 96 91 73 72 76 81 82 75 73
75 78 73 69 62 56 54 51 41 34 36 38 40 41 41 40 38 38 38 36 36 37 40 49 56 62 66 72 82 87 89 91 94 93 94 94 87 85 86 86 86 78 75 74
77 83 79 74 68 66 60 53 40 35 37 41 44 46 45 44 44 43 46 49 50 47 45 46 47 54 62 71 81 91 100 100 100 99 99 98 94 88 82 77 73 76 72 66

GFSNGP_850_rhum_129.txt.gz
RH
92 93 81 86 85 79 88 88 97 94 98 98 97 97 100 100 98 98 100 99 100 100 100 100 100 100 100 100 99 99 100 100 93 93 100 100 100 100 88 89 88 80 73 74
89 80 77 84 87 78 78 78 76 80 95 85 89 92 98 100 99 99 100 100 100 100 100 100 100 100 100 100 100 100 100 99 100 98 97 99 100 92 100 98 97 98 100 93
75 66 64 76 82 82 80 78 80 93 82 83 89 93 98 99 100 100 100 100 100 100 100 100 100 100 100 100 100 99 98 100 100 100 100 100 99 98 100 100 99 98 100 97
83 63 67 60 67 70 76 77 78 74 76 81 87 93 98 100 100 100 100 98 95 92 91 97 100 100 96 94 93 95 89 81 88 92 92 99 99 99 97 97 97 99 99 100
79 87 71 68 70 68 74 71 77 78 81 78 75 72 85 100 100 100 100 96 95 90 86 87 86 87 86 91 97 94 97 100 100 100 100 98 90 91 93 94 91 95 98 96
80 82 74 56 61 59 61 76 74 73 80 84 71 87 96 93 99 99 96 90 85 84 81 77 80 81 73 75 75 78 80 81 88 96 99 100 99 98 98 98 98 99 98 98
80 82 68 58 60 56 64 61 73 74 78 77 91 88 85 82 90 95 95 92 86 77 83 86 80 75 74 81 85 88 82 80 77 75 74 76 80 80 80 81 85 90 92 93
78 72 55 56 62 65 54 73 69 75 77 80 78 80 77 74 70 68 68 67 65 63 70 75 73 68 78 79 86 82 80 80 80 82 81 80 78 76 76 75 75 75 78 80
63 58 48 58 58 54 60 61 64 63 76 71 78 81 75 72 69 66 65 66 65 64 63 63 61 58 58 66 69 65 60 62 66 70 74 77 78 85 89 90 89 88 87 86
64 53 66 61 58 63 63 59 56 62 69 74 67 71 73 72 71 72 71 73 74 72 69 68 71 67 63 65 64 61 58 56 61 69 72 76 72 69 72 76 86 91 93 93
75 66 69 63 64 64 65 65 60 63 60 61 65 64 68 68 68 68 70 72 75 76 78 78 73 72 75 75 72 67 65 64 62 66 71 74 76 76 79 84 86 84 89 96
54 46 45 43 41 63 66 62 57 54 57 63 66 66 66 68 72 73 74 77 80 83 85 85 78 77 80 83 79 76 73 71 69 68 68 66 69 77 79 80 82 84 85 92
27 27 43 40 32 54 61 64 62 57 57 58 60 65 71 74 76 76 75 75 77 78 80 82 83 80 77 75 72 75 73 69 70 69 65 59 56 55 55 50 52 59 67 77
36 32 56 46 42 46 50 58 58 53 56 58 62 63 66 70 71 71 72 75 76 80 82 77 76 83 84 82 79 78 70 68 68 64 56 50 46 46 46 45 47 45 38 32
42 37 36 34 41 48 57 68 65 62 60 58 57 59 59 57 51 50 55 55 55 55 54 54 57 67 71 75 76 71 70 70 64 57 53 50 54 62 63 61 59 56 54 53
40 42 42 40 37 44 56 68 63 58 57 54 57 60 60 58 60 60 66 73 79 84 95 97 91 93 88 79 76 77 76 66 60 58 59 62 62 54 52 54 56 55 56 57
40 52 49 47 43 45 53 54 51 51 51 56 60 64 61 58 60 63 72 85 92 89 84 83 92 94 86 79 80 76 67 64 65 64 62 56 56 51 56 65 65 65 67 55
33 24 29 33 37 42 51 55 55 53 55 56 65 63 57 54 48 56 62 71 75 74 76 80 84 82 78 79 74 67 68 69 65 62 54 42 43 47 50 64 61 67 63 42
35 40 34 35 35 34 41 46 49 52 57 61 64 53 46 42 43 49 51 52 65 62 65 83 80 75 74 71 67 69 72 66 60 56 54 45 41 51 59 63 62 72 63 47
32 43 47 47 45 42 40 44 50 57 59 64 61 52 42 35 40 46 51 47 58 64 69 81 78 75 74 71 73 74 67 63 59 54 51 51 45 47 58 66 71 86 80 54
36 40 45 48 46 49 46 47 51 58 60 63 53 44 33 37 41 46 48 46 50 71 75 81 77 76 78 81 84 78 74 75 74 69 74 77 65 59 60 65 70 79 62 51
38 39 42 47 45 48 50 53 59 60 64 60 48 40 38 34 40 43 47 46 61 73 78 78 81 86 88 92 93 95 97 98 98 98 98 98 94 92 76 57 58 60 56 52
38 45 50 53 50 47 55 60 63 66 63 53 44 37 31 36 41 44 44 50 56 69 73 74 77 79 82 86 92 97 97 100 100 100 100 99 99 96 75 76 81 63 62 66
32 44 54 61 62 62 65 66 67 66 60 50 42 36 39 39 39 40 45 47 49 57 56 58 63 68 74 78 82 86 93 99 99 100 100 98 98 94 93 93 75 70 75 79
30 28 52 69 68 65 65 67 67 64 56 46 36 38 39 41 38 40 36 37 39 39 40 44 49 56 58 58 61 64 82 84 86 86 89 91 95 96 94 87 82 82 80 79
44 45 40 50 68 68 64 66 64 57 48 38 38 40 41 42 41 41 40 38 38 39 39 40 40 42 46 52 61 72 84 90 96 95 93 95 96 96 94 89 76 73 73 72
52 59 65 78 72 72 74 70 63 55 47 39 41 45 46 45 46 45 45 45 47 52 54 52 50 49 50 52 60 69 81 98 100 100 100 98 98 90 68 65 66 66 68 68

GFSNGP_850_rhum_132.txt.gz
RH
87 91 82 85 87 84 89 85 91 83 95 90 94 98 100 100 99 98 100 100 100 100 100 100 100 100 100 100 100 100 100 99 96 100 100 99 100 100 99 98 98 94 94 92
88 83 75 78 80 80 82 80 78 81 88 80 81 88 97 100 100 100 100 100 100 100 100 100 100 100 100 100 100 95 98 100 100 100 98 100 100 100 100 100 95 95 97 95
85 69 67 73 76 81 79 79 84 92 79 82 84 86 97 99 100 100 100 100 100 100 100 100 100 100 100 100 100 99 100 100 100 100 100 100 99 99 100 97 97 87 93 97
86 62 67 48 69 69 79 76 77 78 77 80 81 82 89 100 100 100 100 93 87 87 88 96 100 99 100 100 100 100 100 100 100 100 100 100 99 100 100 100 97 93 99 100
79 84 59 68 70 78 80 67 75 76 80 80 76 76 80 99 100 100 100 100 98 87 80 74 73 76 77 82 94 98 99 100 100 99 98 99 100 100 100 100 94 92 100 99
82 83 64 48 63 60 60 76 71 72 75 80 77 88 92 97 100 100 100 100 96 96 91 84 83 74 67 73 72 76 82 80 84 86 88 93 96 97 98 99 99 98 98 99
80 87 68 52 62 60 66 49 69 68 71 76 84 82 82 84 82 80 76 76 74 68 72 74 66 63 69 77 82 87 81 77 76 73 71 73 75 75 75 74 76 80 86 90
80 77 50 57 66 71 52 66 61 66 60 64 74 81 77 72 73 69 69 72 73 69 68 67 63 59 62 66 71 68 69 66 66 71 74 76 76 78 77 78 76 75 75 77
67 60 42 59 55 52 58 61 65 63 60 60 65 66 68 68 69 69 73 74 76 72 70 70 71 69 64 68 64 61 55 56 63 66 71 73 66 66 69 77 83 86 87 89
63 52 58 48 52 56 61 61 59 61 62 65 61 68 67 69 70 71 72 74 75 74 71 70 74 74 76 71 66 64 59 54 53 53 59 61 65 67 69 72 72 72 74 80
76 64 58 52 46 47 52 62 56 54 56 60 69 71 71 68 67 68 70 72 77 78 79 79 72 65 65 69 65 59 59 58 56 55 58 57 55 60 67 70 74 77 78 82
38 34 39 32 34 46 58 60 60 56 63 69 72 63 64 66 69 70 72 75 78 80 81 85 84 80 80 82 75 75 72 66 66 65 62 58 56 56 57 58 60 61 62 62
26 22 26 29 32 42 53 60 63 58 58 62 69 71 70 70 71 74 77 79 81 84 85 85 82 82 82 82 76 72 66 63 65 63 58 51 48 48 48 48 48 46 46 43
41 37 41 30 30 32 45 54 62 60 57 59 61 60 62 66 70 70 73 78 77 76 78 78 74 70 71 72 70 68 67 66 66 63 54 49 55 62 62 58 55 54 53 52
28 42 40 32 33 33 46 54 60 60 53 52 52 53 58 59 59 60 62 65 68 70 72 74 71 69 68 66 68 68 66 66 67 60 55 55 58 58 51 49 52 56 58 59
31 36 45 40 32 36 43 59 60 58 56 51 54 56 56 57 56 54 50 46 48 51 53 53 56 62 68 72 72 66 68 71 66 60 61 62 59 53 48 50 57 61 62 62
37 42 46 46 42 39 38 40 39 41 47 49 44 50 50 49 43 36 36 37 36 34 34 38 38 46 57 64 63 68 71 66 64 65 64 62 50 45 48 51 59 62 64 67
27 31 35 29 32 33 37 38 41 44 47 42 47 51 53 51 41 36 31 29 31 32 39 52 58 64 71 72 74 74 68 68 71 69 66 63 54 44 45 54 61 63 64 70
31 29 38 44 38 34 34 36 37 39 49 53 56 54 53 54 49 43 40 38 41 43 45 63 70 79 81 77 75 70 68 74 77 71 64 57 54 52 46 48 59 65 68 76
26 25 28 39 50 48 44 41 41 47 52 60 61 61 62 60 53 48 46 43 41 49 58 60 68 81 79 76 74 72 75 78 72 68 67 65 66 71 67 60 59 62 64 68
26 32 32 32 44 53 51 48 49 50 55 62 63 60 58 61 55 46 41 36 36 55 56 62 64 75 74 74 77 80 83 83 84 85 88 89 91 94 92 87 87 81 66 62
25 25 28 31 33 33 44 47 47 52 59 64 65 65 67 60 49 38 34 33 41 44 44 51 68 70 74 82 83 85 88 91 97 100 100 96 97 96 93 93 93 84 83 84
32 31 29 35 36 37 44 43 44 53 57 61 64 63 63 53 42 37 31 37 40 43 47 61 69 74 75 74 76 82 86 87 87 86 96 100 100 100 98 94 93 90 90 79
41 39 37 34 41 51 50 47 52 53 57 62 66 68 63 51 40 32 35 38 41 42 44 44 55 59 63 61 64 70 78 85 94 100 100 100 100 100 96 97 96 95 87 83
52 49 46 42 38 36 55 60 64 63 67 70 72 69 58 46 37 38 38 39 36 34 31 36 40 42 44 45 47 54 58 67 74 81 94 95 95 96 96 97 97 94 90 82
61 61 56 52 50 47 43 60 74 72 75 76 75 67 53 40 39 39 37 34 33 33 36 38 40 42 43 45 47 52 58 63 73 91 93 95 94 95 98 98 94 80 70 70
53 54 54 57 56 59 55 52 67 76 75 75 73 62 46 42 43 44 43 43 42 46 44 46 51 52 50 49 48 49 50 56 68 82 87 97 100 100 96 71 67 65 65 66